[[{"header":{"parameterUnit":"m.s-1","parameterCategory":1,"la1":31.0,"la2":29.5877,"lo1":-88.7671,"lo2":-86.6584,"dy":0.0162,"dx":0.0185,"nx":115,"ny":88,"refTime":"2023-08-07T00:00:00:Z","depth":0,"parameterNumber":2,"parameterNumberName":"U-component_of_WINDS"},"data":[0.0,0.0,0.0,0.0,0.0,0.0,0.0,0.0,0.0,0.0,0.0,0.0,0.0,0.0,0.0,0.0,0.0,0.0,0.0,0.0,0.0,0.0,0.0,0.0,0.0,0.0,0.0,0.0,0.0,0.0,0.0,0.0,0.0,0.0,0.0,0.0,0.0,0.0,0.0,0.0,0.0,0.0,0.0,0.0,0.0,0.0,0.0,0.0,0.0,0.0,0.0,0.0,0.0,0.0,0.0,0.0,0.0,0.0,0.0,0.0,0.0,0.0,0.0,0.0,0.0,0.0,0.0,0.0,0.0,0.0,0.0,0.0,0.0,0.0,0.0,0.0,0.0,0.0,0.0,0.0,0.0,0.0,0.0,0.0,0.0,0.0,0.0,0.0,0.0,0.0,0.0,0.0,0.0,0.0,0.0,0.0,0.0,0.0,0.0,0.0,0.0,0.0,0.0,0.0,0.0,0.0,0.0,0.0,0.0,0.0,0.0,0.0,0.0,0.0,0.0,0.0,0.0,0.0,0.0,0.0,0.0,0.0,0.0,0.0,0.0,0.0,0.0,0.0,0.0,0.0,0.0,0.0,0.0,0.0,0.0,0.0,0.0,0.0,0.0,0.0,0.0,0.0,0.0,0.0,0.0,0.0,0.0,0.0,0.0,0.0,0.0,0.0,0.0,0.0,0.0,0.0,0.0,0.0,0.0,0.0,0.0,0.0,0.0,0.0,0.0,0.0,0.0,0.0,0.0,0.0,0.0,0.0,0.0,0.0,0.0,0.0,0.0,0.0,0.0,0.0,0.0,0.0,0.0,0.0,0.0,0.0,0.0,0.0,0.0,0.0,0.0,0.0,0.0,0.0,0.0,0.0,0.0,0.0,0.0,0.0,0.0,0.0,0.0,0.0,0.0,0.0,0.0,0.0,0.0,0.0,0.0,0.0,0.0,0.0,0.0,0.0,0.0,0.0,0.0,0.0,0.0,0.0,0.0,0.0,0.0,0.0,0.0,0.0,0.0,0.0,0.0,0.0,0.0,0.0,0.0,0.0,0.0,0.0,0.0,0.0,0.0,0.0,0.0,0.0,0.0,0.0,0.0,0.0,0.0,0.0,0.0,0.0,0.0,0.0,0.0,0.0,0.0,0.0,0.0,0.0,0.0,0.0,0.0,0.0,0.0,0.0,0.0,0.0,0.0,0.0,0.0,0.0,0.0,0.0,0.0,0.0,0.0,0.0,0.0,0.0,0.0,0.0,0.0,0.0,0.0,0.0,0.0,0.0,0.0,0.0,0.0,0.0,0.0,0.0,0.0,0.0,0.0,0.0,0.0,0.0,0.0,0.0,0.0,0.0,0.0,0.0,0.0,0.0,0.0,0.0,0.0,0.0,0.0,0.0,0.0,0.0,0.0,0.0,0.0,0.0,0.0,0.0,0.0,0.0,0.0,0.0,0.0,0.0,0.0,0.0,0.0,0.0,0.0,0.0,0.0,0.0,0.0,0.0,0.0,0.0,0.0,0.0,0.0,0.0,0.0,0.0,0.0,0.0,0.0,0.0,0.0,0.0,0.0,0.0,0.0,0.0,0.0,0.0,0.0,0.0,0.0,0.0,0.0,0.0,0.0,0.0,0.0,0.0,0.0,0.0,0.0,0.0,0.0,0.0,0.0,0.0,0.0,0.0,0.0,0.0,0.0,0.0,0.0,0.0,0.0,0.0,0.0,0.0,0.0,0.0,0.0,0.0,0.0,0.0,0.0,0.0,0.0,0.0,0.0,0.0,0.0,0.0,0.0,0.0,0.0,0.0,0.0,0.0,0.0,0.0,0.0,0.0,0.0,0.0,0.0,0.0,0.0,0.0,0.0,0.0,0.0,0.0,0.0,0.0,0.0,0.0,0.0,0.0,0.0,0.0,0.0,0.0,0.0,0.0,0.0,0.0,0.0,0.0,0.0,0.0,0.0,0.0,0.0,0.0,0.0,0.0,0.0,0.0,0.0,0.0,0.0,0.0,0.0,0.0,0.0,0.0,0.0,0.0,0.0,0.0,0.0,0.0,0.0,0.0,0.0,0.0,0.0,0.0,0.0,0.0,0.0,0.0,0.0,0.0,0.0,0.0,0.0,0.0,0.0,0.0,0.0,0.0,0.0,0.0,0.0,0.0,0.0,0.0,0.0,0.0,0.0,0.0,0.0,0.0,0.0,0.0,0.0,0.0,0.0,0.0,0.0,0.0,0.0,0.0,0.0,0.0,0.0,0.0,0.0,0.0,0.0,0.0,0.0,0.0,0.0,0.0,0.0,0.0,0.0,0.0,0.0,0.0,0.0,0.0,0.0,0.0,0.0,0.0,0.0,0.0,0.0,0.0,0.0,0.0,0.0,0.0,0.0,0.0,0.0,0.0,0.0,0.0,0.0,0.0,0.0,0.0,0.0,0.0,0.0,0.0,0.0,0.0,0.0,0.0,0.0,0.0,0.0,0.0,0.0,0.0,0.0,0.0,0.0,0.0,0.0,0.0,0.0,0.0,0.0,0.0,0.0,0.0,0.0,0.0,0.0,0.0,0.0,0.0,0.0,0.0,0.0,0.0,0.0,0.0,0.0,0.0,0.0,0.0,0.0,0.0,0.0,0.0,0.0,0.0,0.0,0.0,0.0,0.0,0.0,0.0,0.0,0.0,0.0,0.0,0.0,0.0,0.0,0.0,0.0,0.0,0.0,0.0,0.0,0.0,0.0,0.0,0.0,0.0,0.0,0.0,0.0,0.0,0.0,0.0,0.0,0.0,0.0,0.0,0.0,0.0,0.0,0.0,0.0,0.0,0.0,0.0,0.0,0.0,0.0,0.0,0.0,0.0,0.0,0.0,0.0,0.0,0.0,0.0,0.0,0.0,0.0,0.0,0.0,0.0,0.0,0.0,0.0,0.0,0.0,0.0,0.0,0.0,0.0,0.0,0.0,0.0,0.0,0.0,0.0,0.0,0.0,0.0,0.0,0.0,0.0,0.0,0.0,0.0,0.0,0.0,0.0,0.0,0.0,0.0,0.0,0.0,0.0,0.0,0.0,0.0,0.0,0.0,0.0,0.0,0.0,0.0,0.0,0.0,0.0,0.0,0.0,0.0,0.0,0.0,0.0,0.0,0.0,0.0,0.0,0.0,0.0,0.0,0.0,0.0,0.0,0.0,0.0,0.0,0.0,0.0,0.0,0.0,0.0,0.0,0.0,0.0,0.0,0.0,0.0,0.0,0.0,0.0,0.0,0.0,0.0,0.0,0.0,0.0,0.0,0.0,0.0,0.0,0.0,0.0,0.0,0.0,0.0,0.0,0.0,0.0,0.0,0.0,0.0,0.0,0.0,0.0,0.0,0.0,0.0,0.0,0.0,0.0,0.0,0.0,0.0,0.0,0.0,0.0,0.0,0.0,0.0,0.0,0.0,0.0,0.0,0.0,0.0,0.0,0.0,0.0,0.0,0.0,0.0,0.0,0.0,0.0,0.0,0.0,0.0,0.0,0.0,0.0,0.0,0.0,0.0,0.0,0.0,0.0,0.0,0.0,0.0,0.0,0.0,0.0,0.0,0.0,0.0,0.0,0.0,0.0,0.0,0.0,0.0,0.0,0.0,0.0,0.0,0.0,0.0,0.0,0.0,0.0,0.0,0.0,0.0,0.0,0.0,0.0,0.0,0.0,0.0,0.0,0.0,0.0,0.0,0.0,0.0,0.0,0.0,0.0,0.0,0.0,0.0,0.0,0.0,0.0,0.0,0.0,0.0,0.0,0.0,0.0,0.0,0.0,0.0,0.0,0.0,0.0,0.0,0.0,0.0,0.0,0.0,0.0,0.0,0.0,0.0,0.0,0.0,0.0,0.0,0.0,0.0,0.0,0.0,0.0,0.0,0.0,0.0,0.0,0.0,0.0,0.0,0.0,0.0,0.0,0.0,0.0,0.0,0.0,0.0,0.0,0.0,0.0,0.0,0.0,0.0,0.0,0.0,0.0,0.0,0.0,0.0,0.0,0.0,0.0,0.0,0.0,0.0,0.0,0.0,0.0,0.0,0.0,0.0,0.0,0.0,0.0,0.0,0.0,0.0,0.0,0.0,0.0,0.0,0.0,0.0,0.0,0.0,0.0,0.0,0.0,0.0,0.0,0.0,0.0,0.0,0.0,0.0,0.0,0.0,0.0,0.0,0.0,0.0,0.0,0.0,0.0,0.0,0.0,0.0,0.0,0.0,0.0,0.0,0.0,0.0,0.0,0.0,0.0,0.0,0.0,0.0,0.0,0.0,0.0,-2.9718,0.0,0.0,0.0,0.0,0.0,0.0,0.0,0.0,0.0,0.0,0.0,0.0,0.0,0.0,0.0,0.0,0.0,0.0,0.0,0.0,0.0,0.0,0.0,0.0,0.0,0.0,0.0,0.0,0.0,0.0,0.0,0.0,0.0,0.0,0.0,0.0,0.0,0.0,0.0,0.0,0.0,0.0,0.0,0.0,0.0,0.0,0.0,0.0,0.0,0.0,0.0,0.0,0.0,0.0,0.0,0.0,0.0,0.0,0.0,0.0,0.0,0.0,0.0,0.0,0.0,0.0,0.0,0.0,0.0,0.0,0.0,0.0,0.0,0.0,0.0,0.0,0.0,0.0,0.0,0.0,0.0,0.0,0.0,0.0,0.0,0.0,0.0,0.0,0.0,0.0,0.0,0.0,0.0,0.0,0.0,0.0,0.0,0.0,0.0,0.0,0.0,0.0,0.0,0.0,0.0,0.0,0.0,0.0,0.0,0.0,-3.1296,-3.1694,-3.1676,-3.1317,-3.0487,0.0,0.0,0.0,0.0,0.0,0.0,0.0,0.0,0.0,0.0,0.0,0.0,0.0,0.0,0.0,0.0,0.0,0.0,0.0,0.0,0.0,0.0,0.0,0.0,0.0,0.0,0.0,0.0,0.0,0.0,0.0,0.0,0.0,0.0,0.0,0.0,0.0,0.0,0.0,0.0,0.0,0.0,0.0,0.0,0.0,0.0,0.0,0.0,0.0,0.0,0.0,0.0,0.0,0.0,0.0,0.0,0.0,0.0,0.0,0.0,0.0,0.0,0.0,0.0,0.0,0.0,0.0,0.0,0.0,0.0,0.0,0.0,0.0,0.0,0.0,0.0,0.0,0.0,0.0,0.0,0.0,0.0,0.0,0.0,0.0,0.0,0.0,0.0,0.0,0.0,0.0,0.0,0.0,0.0,0.0,0.0,0.0,0.0,0.0,0.0,0.0,0.0,0.0,0.0,0.0,0.0,0.0,0.0,0.0,0.0,0.0,0.0,-3.2302,-3.1815,-3.0764,0.0,0.0,0.0,0.0,0.0,0.0,0.0,0.0,0.0,0.0,0.0,0.0,0.0,0.0,0.0,0.0,0.0,0.0,0.0,0.0,0.0,0.0,0.0,0.0,0.0,0.0,0.0,0.0,0.0,0.0,0.0,0.0,0.0,0.0,0.0,0.0,0.0,0.0,0.0,0.0,0.0,0.0,0.0,0.0,0.0,0.0,0.0,0.0,0.0,0.0,0.0,0.0,0.0,0.0,0.0,0.0,0.0,0.0,0.0,0.0,0.0,0.0,0.0,0.0,0.0,0.0,0.0,0.0,0.0,0.0,0.0,0.0,0.0,0.0,0.0,0.0,0.0,0.0,0.0,0.0,0.0,0.0,0.0,0.0,0.0,0.0,0.0,0.0,0.0,0.0,0.0,0.0,0.0,0.0,0.0,0.0,0.0,0.0,0.0,0.0,0.0,0.0,0.0,0.0,0.0,0.0,0.0,0.0,0.0,0.0,-3.2864,-3.2915,-3.2915,0.0,-3.0411,0.0,0.0,0.0,0.0,0.0,0.0,0.0,0.0,0.0,0.0,0.0,0.0,0.0,0.0,0.0,0.0,0.0,0.0,0.0,0.0,0.0,0.0,0.0,0.0,0.0,0.0,0.0,0.0,0.0,0.0,0.0,0.0,0.0,0.0,0.0,0.0,0.0,0.0,0.0,0.0,0.0,0.0,0.0,0.0,0.0,0.0,0.0,0.0,0.0,0.0,0.0,0.0,0.0,0.0,0.0,0.0,0.0,0.0,0.0,0.0,0.0,0.0,0.0,0.0,0.0,0.0,0.0,0.0,0.0,0.0,0.0,0.0,0.0,0.0,0.0,0.0,0.0,0.0,0.0,0.0,0.0,0.0,0.0,0.0,0.0,0.0,0.0,0.0,0.0,0.0,0.0,0.0,0.0,0.0,0.0,0.0,0.0,0.0,0.0,0.0,0.0,0.0,0.0,0.0,0.0,0.0,0.0,0.0,0.0,0.0,-3.3253,-3.4238,-3.3744,-3.2636,0.0,0.0,0.0,0.0,0.0,0.0,0.0,0.0,0.0,0.0,0.0,0.0,0.0,0.0,0.0,0.0,0.0,0.0,0.0,0.0,0.0,0.0,0.0,0.0,0.0,0.0,0.0,0.0,0.0,0.0,0.0,0.0,0.0,0.0,0.0,0.0,0.0,0.0,0.0,0.0,0.0,0.0,0.0,0.0,0.0,0.0,0.0,0.0,0.0,0.0,0.0,0.0,0.0,0.0,0.0,0.0,0.0,0.0,0.0,0.0,0.0,0.0,0.0,0.0,0.0,0.0,0.0,0.0,0.0,0.0,0.0,0.0,0.0,0.0,0.0,0.0,0.0,0.0,0.0,0.0,0.0,0.0,0.0,0.0,0.0,0.0,0.0,0.0,0.0,0.0,0.0,0.0,0.0,0.0,0.0,0.0,0.0,0.0,0.0,0.0,0.0,0.0,0.0,0.0,0.0,0.0,0.0,0.0,0.0,0.0,-3.269,-3.3899,-3.5174,-3.4467,-3.3214,-3.1474,0.0,0.0,0.0,0.0,0.0,0.0,0.0,0.0,0.0,0.0,0.0,0.0,0.0,0.0,0.0,0.0,0.0,0.0,0.0,0.0,0.0,0.0,0.0,0.0,0.0,0.0,0.0,0.0,0.0,0.0,0.0,0.0,0.0,0.0,0.0,0.0,0.0,0.0,0.0,0.0,0.0,0.0,0.0,0.0,0.0,0.0,0.0,0.0,0.0,0.0,0.0,0.0,0.0,0.0,0.0,0.0,0.0,0.0,0.0,0.0,0.0,0.0,0.0,0.0,0.0,0.0,0.0,0.0,0.0,0.0,0.0,0.0,0.0,0.0,0.0,0.0,0.0,0.0,0.0,0.0,0.0,0.0,0.0,0.0,0.0,0.0,0.0,0.0,0.0,0.0,0.0,0.0,0.0,0.0,0.0,0.0,0.0,0.0,0.0,0.0,0.0,0.0,0.0,0.0,0.0,0.0,0.0,0.0,-3.219,-3.3822,-3.5119,-3.5921,-3.5042,-3.3732,0.0,0.0,0.0,0.0,0.0,0.0,0.0,0.0,0.0,0.0,0.0,0.0,0.0,0.0,0.0,0.0,0.0,0.0,0.0,0.0,0.0,0.0,0.0,0.0,0.0,0.0,0.0,0.0,0.0,0.0,0.0,0.0,0.0,0.0,0.0,0.0,0.0,0.0,0.0,0.0,0.0,0.0,0.0,0.0,0.0,0.0,0.0,0.0,0.0,0.0,0.0,0.0,0.0,0.0,0.0,0.0,0.0,0.0,0.0,0.0,0.0,0.0,0.0,0.0,0.0,0.0,0.0,0.0,0.0,0.0,0.0,0.0,0.0,0.0,0.0,0.0,0.0,0.0,0.0,0.0,0.0,0.0,0.0,0.0,0.0,0.0,0.0,0.0,0.0,0.0,0.0,0.0,0.0,0.0,0.0,0.0,0.0,0.0,0.0,0.0,0.0,0.0,0.0,0.0,0.0,0.0,0.0,0.0,0.0,-3.2834,-3.5115,-3.6095,-3.5747,-3.5431,-3.4217,0.0,0.0,0.0,0.0,0.0,0.0,0.0,0.0,0.0,0.0,0.0,0.0,0.0,0.0,0.0,0.0,0.0,0.0,0.0,0.0,0.0,0.0,0.0,0.0,0.0,0.0,0.0,0.0,0.0,0.0,0.0,0.0,0.0,0.0,0.0,0.0,0.0,0.0,0.0,0.0,0.0,0.0,0.0,0.0,0.0,0.0,0.0,0.0,0.0,0.0,0.0,0.0,0.0,0.0,0.0,0.0,0.0,0.0,0.0,0.0,0.0,0.0,0.0,0.0,0.0,0.0,0.0,0.0,0.0,0.0,0.0,0.0,0.0,0.0,0.0,0.0,0.0,0.0,0.0,0.0,0.0,0.0,0.0,0.0,0.0,0.0,0.0,0.0,0.0,0.0,0.0,0.0,0.0,0.0,0.0,0.0,0.0,0.0,0.0,0.0,0.0,0.0,0.0,0.0,0.0,0.0,0.0,0.0,0.0,-3.396,0.0,-3.6866,-3.6447,-3.5909,-3.4519,0.0,0.0,0.0,0.0,0.0,0.0,0.0,0.0,0.0,0.0,0.0,0.0,0.0,0.0,0.0,0.0,0.0,0.0,0.0,0.0,0.0,0.0,0.0,0.0,0.0,0.0,0.0,0.0,0.0,0.0,0.0,0.0,0.0,0.0,0.0,0.0,0.0,0.0,0.0,0.0,0.0,0.0,0.0,0.0,0.0,0.0,0.0,0.0,0.0,0.0,0.0,0.0,0.0,0.0,0.0,0.0,0.0,0.0,0.0,0.0,0.0,0.0,0.0,0.0,0.0,0.0,0.0,0.0,0.0,0.0,0.0,0.0,0.0,0.0,0.0,0.0,0.0,0.0,0.0,0.0,0.0,0.0,0.0,0.0,0.0,0.0,0.0,0.0,0.0,0.0,0.0,0.0,0.0,0.0,0.0,0.0,0.0,0.0,0.0,0.0,0.0,0.0,0.0,0.0,0.0,0.0,0.0,0.0,-3.2148,-3.5548,-3.6584,-3.7449,-3.8101,-3.6489,-3.4774,0.0,0.0,0.0,0.0,0.0,0.0,0.0,0.0,0.0,0.0,0.0,0.0,0.0,0.0,0.0,0.0,0.0,0.0,0.0,0.0,0.0,0.0,0.0,0.0,0.0,0.0,0.0,0.0,0.0,0.0,0.0,0.0,0.0,0.0,0.0,0.0,0.0,0.0,0.0,0.0,0.0,0.0,0.0,0.0,0.0,0.0,0.0,0.0,0.0,0.0,0.0,0.0,0.0,0.0,0.0,0.0,0.0,0.0,0.0,0.0,0.0,0.0,0.0,0.0,0.0,0.0,0.0,0.0,0.0,0.0,0.0,0.0,0.0,0.0,0.0,0.0,0.0,0.0,0.0,0.0,0.0,0.0,0.0,0.0,0.0,0.0,0.0,0.0,0.0,0.0,0.0,0.0,0.0,0.0,0.0,0.0,0.0,0.0,0.0,0.0,0.0,0.0,0.0,0.0,0.0,0.0,0.0,0.0,0.0,-3.7176,-3.8142,-3.8719,-3.8831,-3.7647,-3.5932,0.0,0.0,0.0,0.0,0.0,0.0,0.0,0.0,0.0,0.0,0.0,0.0,0.0,0.0,0.0,0.0,0.0,0.0,0.0,0.0,0.0,0.0,0.0,0.0,0.0,0.0,0.0,0.0,0.0,0.0,0.0,0.0,0.0,0.0,0.0,0.0,0.0,0.0,0.0,0.0,0.0,0.0,0.0,0.0,0.0,0.0,0.0,0.0,0.0,0.0,0.0,0.0,0.0,0.0,0.0,0.0,0.0,0.0,0.0,0.0,0.0,0.0,0.0,0.0,0.0,0.0,0.0,0.0,0.0,0.0,0.0,0.0,0.0,0.0,0.0,0.0,0.0,0.0,0.0,0.0,0.0,0.0,0.0,0.0,0.0,0.0,0.0,0.0,0.0,0.0,0.0,0.0,0.0,0.0,0.0,0.0,0.0,0.0,0.0,0.0,0.0,0.0,0.0,0.0,0.0,0.0,0.0,0.0,0.0,-3.9589,-4.0058,-4.0203,-4.0095,-3.8834,-3.6934,-3.4339,0.0,0.0,0.0,0.0,0.0,0.0,0.0,0.0,0.0,0.0,0.0,0.0,0.0,0.0,0.0,0.0,0.0,0.0,0.0,0.0,0.0,0.0,0.0,0.0,0.0,0.0,0.0,0.0,0.0,0.0,0.0,0.0,0.0,0.0,0.0,0.0,0.0,0.0,0.0,0.0,0.0,0.0,0.0,0.0,0.0,0.0,0.0,0.0,0.0,0.0,0.0,0.0,0.0,0.0,0.0,0.0,0.0,0.0,0.0,0.0,0.0,0.0,0.0,0.0,0.0,0.0,0.0,0.0,0.0,0.0,0.0,0.0,0.0,0.0,0.0,0.0,0.0,0.0,0.0,0.0,0.0,0.0,0.0,0.0,0.0,0.0,0.0,0.0,0.0,0.0,0.0,0.0,0.0,0.0,0.0,0.0,0.0,0.0,0.0,0.0,0.0,0.0,0.0,0.0,0.0,0.0,0.0,0.0,-4.2645,-4.2224,-4.1938,-4.1683,-4.0056,-3.7863,0.0,0.0,0.0,0.0,0.0,0.0,0.0,0.0,0.0,0.0,0.0,0.0,0.0,0.0,0.0,0.0,0.0,0.0,0.0,0.0,0.0,0.0,0.0,0.0,0.0,0.0,0.0,0.0,0.0,0.0,0.0,0.0,0.0,0.0,0.0,0.0,0.0,0.0,0.0,0.0,0.0,0.0,0.0,0.0,0.0,0.0,0.0,0.0,0.0,0.0,0.0,0.0,0.0,0.0,0.0,0.0,0.0,0.0,0.0,0.0,0.0,0.0,0.0,0.0,0.0,0.0,0.0,0.0,0.0,0.0,0.0,0.0,0.0,0.0,0.0,0.0,0.0,0.0,0.0,0.0,0.0,0.0,0.0,0.0,0.0,0.0,0.0,0.0,0.0,0.0,0.0,0.0,0.0,0.0,0.0,0.0,0.0,0.0,0.0,0.0,0.0,0.0,0.0,0.0,0.0,0.0,0.0,0.0,0.0,-4.402,-4.5143,-4.491,-4.3379,-4.2099,-4.0178,0.0,0.0,0.0,0.0,0.0,0.0,0.0,0.0,0.0,0.0,0.0,0.0,0.0,0.0,0.0,0.0,0.0,0.0,0.0,0.0,0.0,0.0,0.0,0.0,0.0,0.0,0.0,0.0,0.0,0.0,0.0,0.0,0.0,0.0,0.0,0.0,0.0,0.0,0.0,0.0,0.0,0.0,0.0,0.0,0.0,0.0,0.0,0.0,0.0,0.0,0.0,0.0,0.0,0.0,0.0,0.0,0.0,0.0,0.0,0.0,0.0,0.0,0.0,0.0,0.0,0.0,0.0,0.0,0.0,0.0,0.0,0.0,0.0,0.0,0.0,0.0,0.0,0.0,0.0,0.0,0.0,0.0,0.0,0.0,0.0,0.0,0.0,0.0,0.0,0.0,0.0,0.0,0.0,0.0,0.0,0.0,0.0,0.0,0.0,0.0,0.0,0.0,0.0,0.0,0.0,0.0,0.0,0.0,-4.1556,-4.4938,-4.6274,-4.6472,-4.5566,-4.3957,-4.1676,0.0,0.0,0.0,0.0,0.0,0.0,0.0,0.0,0.0,0.0,0.0,0.0,0.0,0.0,0.0,0.0,0.0,0.0,0.0,0.0,0.0,0.0,0.0,0.0,0.0,0.0,0.0,0.0,0.0,0.0,0.0,0.0,0.0,0.0,0.0,0.0,0.0,0.0,0.0,0.0,0.0,0.0,0.0,0.0,0.0,0.0,0.0,0.0,0.0,0.0,0.0,0.0,0.0,0.0,0.0,0.0,0.0,0.0,0.0,0.0,0.0,0.0,0.0,0.0,0.0,0.0,0.0,0.0,0.0,0.0,0.0,0.0,0.0,0.0,0.0,0.0,0.0,0.0,0.0,0.0,0.0,0.0,0.0,0.0,0.0,0.0,0.0,0.0,0.0,0.0,0.0,0.0,0.0,0.0,0.0,0.0,0.0,0.0,0.0,0.0,0.0,0.0,0.0,0.0,0.0,0.0,0.0,0.0,-4.2086,-4.5505,-4.6413,-4.724,-4.7961,-4.5576,-4.2713,0.0,0.0,0.0,0.0,0.0,0.0,0.0,0.0,0.0,0.0,0.0,0.0,0.0,0.0,0.0,0.0,0.0,0.0,0.0,0.0,0.0,0.0,0.0,0.0,0.0,0.0,0.0,0.0,0.0,0.0,0.0,0.0,0.0,0.0,0.0,0.0,0.0,0.0,0.0,0.0,0.0,0.0,0.0,0.0,0.0,0.0,0.0,0.0,0.0,0.0,0.0,0.0,0.0,0.0,0.0,0.0,0.0,0.0,0.0,0.0,0.0,0.0,0.0,0.0,0.0,0.0,0.0,0.0,0.0,0.0,0.0,0.0,0.0,0.0,0.0,0.0,0.0,0.0,0.0,0.0,0.0,0.0,0.0,0.0,0.0,0.0,0.0,0.0,0.0,0.0,0.0,0.0,0.0,0.0,0.0,0.0,0.0,0.0,0.0,0.0,0.0,0.0,0.0,0.0,0.0,0.0,0.0,0.0,-4.327,-4.6549,-4.73,-4.812,-4.91,-4.6526,-4.3733,0.0,0.0,0.0,0.0,0.0,0.0,0.0,0.0,0.0,0.0,0.0,0.0,0.0,0.0,0.0,0.0,0.0,0.0,0.0,0.0,0.0,0.0,0.0,0.0,0.0,0.0,0.0,0.0,0.0,0.0,0.0,0.0,0.0,0.0,0.0,0.0,0.0,0.0,0.0,0.0,0.0,0.0,0.0,0.0,0.0,0.0,0.0,0.0,-3.5964,0.0,0.0,0.0,0.0,0.0,0.0,0.0,0.0,0.0,0.0,0.0,0.0,0.0,0.0,0.0,0.0,0.0,0.0,0.0,0.0,0.0,0.0,0.0,0.0,0.0,0.0,0.0,0.0,0.0,0.0,0.0,0.0,0.0,0.0,0.0,0.0,0.0,0.0,0.0,0.0,0.0,0.0,0.0,0.0,0.0,0.0,0.0,0.0,0.0,0.0,0.0,0.0,0.0,0.0,0.0,0.0,0.0,0.0,0.0,-4.3371,-4.6261,-4.743,-4.8277,-4.8778,-4.6307,-4.385,0.0,0.0,0.0,0.0,0.0,0.0,0.0,0.0,0.0,0.0,0.0,0.0,0.0,0.0,0.0,0.0,0.0,0.0,0.0,0.0,0.0,0.0,0.0,0.0,0.0,0.0,0.0,0.0,0.0,0.0,0.0,0.0,0.0,0.0,0.0,0.0,0.0,0.0,0.0,0.0,0.0,0.0,0.0,0.0,0.0,0.0,0.0,0.0,0.0,0.0,0.0,0.0,0.0,0.0,0.0,0.0,0.0,0.0,0.0,0.0,0.0,0.0,0.0,0.0,0.0,0.0,0.0,0.0,0.0,0.0,0.0,0.0,0.0,0.0,0.0,0.0,0.0,0.0,0.0,0.0,0.0,0.0,0.0,0.0,0.0,0.0,0.0,0.0,0.0,0.0,0.0,0.0,0.0,0.0,0.0,0.0,0.0,0.0,0.0,0.0,0.0,0.0,0.0,0.0,0.0,0.0,0.0,-3.9867,-4.2992,-4.5529,-4.6963,-4.7793,-4.8005,-4.5737,-4.3483,-4.1444,0.0,0.0,0.0,0.0,0.0,0.0,0.0,0.0,0.0,0.0,0.0,0.0,0.0,0.0,0.0,0.0,0.0,0.0,0.0,0.0,0.0,0.0,0.0,0.0,0.0,0.0,0.0,0.0,0.0,0.0,0.0,0.0,0.0,0.0,0.0,0.0,0.0,0.0,-3.219,-3.4038,0.0,0.0,0.0,0.0,0.0,0.0,0.0,0.0,-3.7247,0.0,0.0,0.0,0.0,0.0,0.0,0.0,0.0,0.0,0.0,0.0,0.0,0.0,0.0,0.0,0.0,0.0,0.0,0.0,0.0,0.0,0.0,0.0,0.0,0.0,0.0,0.0,0.0,0.0,0.0,0.0,0.0,0.0,0.0,0.0,0.0,0.0,0.0,0.0,0.0,0.0,0.0,0.0,0.0,0.0,0.0,0.0,0.0,0.0,0.0,0.0,0.0,0.0,0.0,0.0,0.0,-3.6443,-3.9467,-4.2499,-4.545,-4.5656,-4.6116,-4.6962,-4.5189,-4.2894,-4.0061,0.0,0.0,0.0,0.0,0.0,0.0,0.0,0.0,0.0,0.0,0.0,0.0,0.0,0.0,0.0,0.0,0.0,0.0,0.0,0.0,0.0,0.0,0.0,0.0,0.0,0.0,0.0,0.0,0.0,0.0,0.0,0.0,0.0,0.0,0.0,0.0,0.0,0.0,0.0,-3.4253,-3.5043,0.0,0.0,0.0,0.0,0.0,0.0,0.0,0.0,-3.6307,0.0,0.0,0.0,0.0,0.0,0.0,0.0,0.0,0.0,0.0,0.0,0.0,0.0,0.0,0.0,0.0,0.0,0.0,0.0,0.0,0.0,0.0,0.0,0.0,0.0,0.0,0.0,0.0,0.0,0.0,0.0,0.0,0.0,0.0,0.0,0.0,0.0,0.0,0.0,0.0,0.0,0.0,0.0,0.0,0.0,0.0,0.0,0.0,0.0,0.0,0.0,0.0,0.0,0.0,0.0,-3.5466,-3.9043,-4.2035,-4.4204,-4.4594,-4.5179,-4.6094,-4.3718,-4.1426,0.0,0.0,0.0,0.0,0.0,0.0,0.0,0.0,0.0,0.0,0.0,0.0,0.0,0.0,0.0,0.0,0.0,0.0,0.0,0.0,0.0,0.0,0.0,0.0,0.0,0.0,0.0,0.0,0.0,0.0,0.0,0.0,0.0,0.0,0.0,0.0,0.0,0.0,0.0,0.0,-3.3212,-3.4355,-3.4889,0.0,0.0,0.0,0.0,0.0,0.0,-3.6594,-3.6588,0.0,0.0,0.0,0.0,0.0,0.0,0.0,0.0,0.0,0.0,0.0,0.0,0.0,0.0,0.0,0.0,0.0,0.0,0.0,0.0,0.0,0.0,0.0,0.0,0.0,0.0,0.0,0.0,0.0,0.0,0.0,0.0,0.0,0.0,0.0,0.0,0.0,0.0,0.0,0.0,0.0,0.0,0.0,0.0,0.0,0.0,0.0,0.0,0.0,0.0,0.0,0.0,0.0,0.0,0.0,-3.4305,-3.8362,-4.1214,-4.2746,-4.3413,-4.4118,-4.4765,-4.2008,-3.985,0.0,0.0,0.0,0.0,0.0,0.0,0.0,0.0,0.0,0.0,0.0,0.0,0.0,0.0,0.0,0.0,0.0,0.0,0.0,0.0,0.0,0.0,0.0,0.0,0.0,0.0,0.0,0.0,0.0,0.0,0.0,0.0,0.0,0.0,0.0,0.0,0.0,0.0,0.0,0.0,0.0,-3.3594,-3.4634,-3.5419,0.0,0.0,0.0,0.0,-3.6692,-3.7049,0.0,0.0,0.0,0.0,0.0,0.0,0.0,0.0,0.0,0.0,0.0,0.0,0.0,0.0,0.0,0.0,0.0,0.0,0.0,0.0,0.0,0.0,0.0,0.0,0.0,0.0,0.0,0.0,0.0,0.0,0.0,0.0,0.0,0.0,0.0,0.0,0.0,0.0,0.0,0.0,0.0,0.0,0.0,0.0,0.0,0.0,0.0,0.0,0.0,0.0,0.0,0.0,0.0,0.0,0.0,0.0,-3.3861,-3.7219,-3.9807,-4.1252,-4.1835,-4.2171,-4.2233,-4.0535,-3.8766,0.0,0.0,0.0,0.0,0.0,0.0,0.0,0.0,0.0,0.0,0.0,0.0,0.0,0.0,0.0,0.0,0.0,0.0,0.0,0.0,0.0,0.0,0.0,0.0,0.0,0.0,0.0,0.0,0.0,0.0,0.0,0.0,0.0,0.0,0.0,0.0,0.0,0.0,0.0,0.0,0.0,-3.3127,-3.5605,-3.6225,-3.6556,0.0,0.0,-3.7451,-3.7073,-3.6871,0.0,0.0,0.0,0.0,0.0,0.0,0.0,0.0,0.0,0.0,0.0,0.0,0.0,0.0,0.0,0.0,0.0,0.0,0.0,0.0,0.0,0.0,0.0,0.0,0.0,0.0,0.0,0.0,0.0,0.0,0.0,0.0,0.0,0.0,0.0,0.0,0.0,0.0,0.0,0.0,0.0,0.0,0.0,0.0,0.0,0.0,0.0,0.0,0.0,0.0,0.0,0.0,0.0,0.0,0.0,-3.24,-3.2885,-3.6411,-3.8903,-4.0059,-4.0562,-4.083,-4.094,-3.9344,-3.7593,0.0,0.0,0.0,0.0,0.0,0.0,0.0,0.0,0.0,0.0,0.0,0.0,0.0,0.0,0.0,0.0,0.0,0.0,0.0,0.0,0.0,0.0,0.0,0.0,0.0,0.0,0.0,0.0,0.0,0.0,0.0,0.0,0.0,0.0,0.0,0.0,0.0,0.0,0.0,0.0,0.0,0.0,-3.5323,-3.6543,0.0,0.0,0.0,-3.7615,-3.7344,0.0,0.0,0.0,0.0,0.0,0.0,0.0,0.0,0.0,0.0,0.0,0.0,0.0,0.0,0.0,0.0,0.0,0.0,0.0,0.0,0.0,0.0,0.0,0.0,0.0,0.0,0.0,0.0,0.0,0.0,0.0,0.0,0.0,0.0,0.0,0.0,0.0,0.0,0.0,0.0,0.0,0.0,0.0,0.0,0.0,0.0,0.0,0.0,0.0,0.0,0.0,0.0,0.0,0.0,0.0,0.0,0.0,-3.2,-3.5728,-3.8135,-3.8977,-3.9625,-3.9889,-3.9817,-3.8379,0.0,0.0,0.0,0.0,0.0,0.0,0.0,0.0,0.0,0.0,0.0,0.0,0.0,0.0,0.0,0.0,0.0,0.0,0.0,0.0,0.0,0.0,0.0,0.0,0.0,0.0,0.0,-1.9025,0.0,0.0,0.0,0.0,0.0,0.0,0.0,0.0,0.0,0.0,0.0,0.0,0.0,0.0,-3.3408,-3.5345,-3.6838,-3.7853,0.0,0.0,-3.7962,-3.7677,-3.7057,-3.6329,0.0,0.0,0.0,0.0,0.0,0.0,0.0,0.0,0.0,0.0,0.0,0.0,0.0,0.0,0.0,0.0,0.0,0.0,0.0,0.0,0.0,0.0,0.0,0.0,0.0,0.0,0.0,0.0,0.0,0.0,0.0,0.0,0.0,0.0,0.0,0.0,0.0,0.0,0.0,0.0,0.0,0.0,0.0,0.0,0.0,0.0,0.0,0.0,0.0,0.0,0.0,0.0,0.0,0.0,0.0,-3.1887,-3.5118,-3.7237,-3.8098,-3.9173,-3.9324,-3.8552,-3.7655,-3.6238,0.0,0.0,0.0,0.0,0.0,0.0,0.0,0.0,0.0,0.0,0.0,0.0,0.0,0.0,0.0,0.0,0.0,0.0,0.0,0.0,0.0,0.0,0.0,0.0,0.0,0.0,0.0,0.0,0.0,0.0,0.0,0.0,0.0,0.0,0.0,0.0,0.0,0.0,0.0,0.0,0.0,-3.3282,-3.6436,-3.7325,-3.8105,0.0,0.0,-3.8711,-3.8559,-3.7334,-3.6135,-3.5024,0.0,0.0,0.0,0.0,0.0,0.0,0.0,0.0,0.0,0.0,0.0,0.0,0.0,0.0,0.0,0.0,0.0,0.0,0.0,0.0,0.0,0.0,0.0,0.0,0.0,0.0,0.0,0.0,0.0,0.0,0.0,0.0,0.0,0.0,0.0,0.0,0.0,0.0,0.0,0.0,0.0,0.0,0.0,0.0,0.0,0.0,0.0,0.0,0.0,0.0,0.0,0.0,0.0,-3.0832,-3.1901,-3.4371,-3.6015,-3.6701,-3.7912,-3.8091,-3.6852,-3.6862,-3.5722,0.0,0.0,0.0,0.0,0.0,0.0,0.0,0.0,0.0,0.0,0.0,0.0,0.0,0.0,0.0,0.0,0.0,0.0,0.0,0.0,0.0,0.0,0.0,0.0,0.0,0.0,0.0,0.0,-2.1437,-2.212,-2.268,0.0,0.0,0.0,0.0,0.0,0.0,0.0,0.0,0.0,0.0,-3.411,-3.6015,-3.7153,0.0,0.0,-3.7782,-3.7208,-3.6936,-3.58,-3.4725,-3.4117,-3.2193,0.0,0.0,0.0,0.0,0.0,0.0,0.0,0.0,0.0,0.0,0.0,0.0,0.0,0.0,0.0,0.0,0.0,0.0,0.0,0.0,0.0,0.0,0.0,0.0,0.0,0.0,0.0,0.0,0.0,0.0,0.0,0.0,0.0,0.0,0.0,0.0,0.0,0.0,0.0,0.0,0.0,0.0,0.0,0.0,0.0,0.0,0.0,0.0,0.0,0.0,0.0,0.0,-3.0661,-3.1955,-3.3755,-3.5119,-3.5878,-3.7205,-3.7352,-3.6192,-3.6435,-3.5575,0.0,0.0,0.0,0.0,0.0,0.0,0.0,0.0,0.0,0.0,0.0,0.0,0.0,0.0,0.0,0.0,0.0,0.0,0.0,0.0,0.0,0.0,0.0,0.0,0.0,0.0,0.0,0.0,-2.1801,-2.2307,-2.2919,0.0,0.0,0.0,0.0,0.0,0.0,0.0,0.0,0.0,0.0,-3.4678,-3.5749,-3.6858,-3.7572,-3.7572,-3.6647,-3.5846,-3.5486,-3.4385,-3.333,-3.3005,0.0,0.0,0.0,0.0,0.0,0.0,0.0,0.0,0.0,0.0,0.0,0.0,0.0,0.0,0.0,0.0,0.0,0.0,0.0,0.0,0.0,0.0,0.0,0.0,0.0,0.0,0.0,0.0,0.0,0.0,0.0,0.0,0.0,0.0,0.0,0.0,0.0,0.0,0.0,0.0,0.0,0.0,0.0,0.0,0.0,0.0,0.0,0.0,0.0,0.0,0.0,0.0,0.0,0.0,-3.1985,-3.3343,-3.461,-3.5878,-3.7175,-3.7428,-3.657,-3.6599,-3.5915,-3.4341,0.0,0.0,0.0,0.0,0.0,0.0,0.0,0.0,0.0,0.0,0.0,0.0,0.0,0.0,0.0,0.0,0.0,0.0,0.0,0.0,0.0,0.0,0.0,0.0,0.0,0.0,-2.1839,-2.2211,-2.2482,0.0,0.0,0.0,0.0,0.0,0.0,0.0,0.0,0.0,0.0,-3.2491,-3.4654,-3.5811,-3.6447,-3.6684,-3.6803,-3.5855,-3.5027,-3.4529,-3.3301,-3.2316,0.0,0.0,0.0,0.0,0.0,0.0,0.0,0.0,0.0,0.0,0.0,0.0,0.0,0.0,0.0,0.0,0.0,0.0,0.0,0.0,0.0,0.0,0.0,0.0,0.0,0.0,0.0,-3.9654,-3.9476,0.0,0.0,0.0,0.0,0.0,0.0,0.0,0.0,0.0,0.0,0.0,-3.6847,-3.5915,0.0,0.0,0.0,0.0,0.0,0.0,0.0,0.0,0.0,0.0,0.0,0.0,-3.1008,-3.229,-3.3229,-3.4076,-3.4923,-3.5769,-3.5915,-3.5136,-3.5514,-3.4961,-3.3209,0.0,0.0,0.0,0.0,0.0,0.0,0.0,0.0,0.0,0.0,0.0,0.0,0.0,0.0,0.0,0.0,0.0,0.0,0.0,0.0,0.0,0.0,0.0,0.0,0.0,-2.1925,0.0,0.0,0.0,0.0,0.0,0.0,0.0,0.0,0.0,0.0,0.0,-2.9702,-3.0876,-3.271,-3.4022,-3.4399,-3.4719,-3.486,0.0,0.0,0.0,0.0,0.0,0.0,0.0,0.0,0.0,0.0,0.0,0.0,0.0,0.0,-2.955,-2.8602,-2.8354,-2.8313,-2.8313,0.0,0.0,0.0,0.0,0.0,0.0,0.0,0.0,0.0,0.0,0.0,0.0,0.0,0.0,0.0,0.0,-4.063,0.0,0.0,0.0,0.0,0.0,0.0,0.0,0.0,-3.7116,-3.7501,-3.8111,-3.7391,-3.7118,0.0,-3.6468,-3.4735,0.0,0.0,0.0,0.0,0.0,0.0,0.0,0.0,-3.1438,-3.2483,-3.3151,-3.3761,-3.4399,-3.5038,-3.5154,-3.4777,-3.5154,-3.4457,-3.2571,-3.17,-3.065,0.0,0.0,0.0,0.0,0.0,0.0,0.0,0.0,0.0,0.0,0.0,0.0,0.0,0.0,0.0,0.0,0.0,0.0,0.0,0.0,0.0,0.0,0.0,-2.2399,0.0,0.0,0.0,0.0,0.0,0.0,0.0,0.0,0.0,-2.7669,-2.9114,-3.0499,-3.1296,-3.2474,-3.3251,-3.3073,0.0,0.0,0.0,0.0,0.0,0.0,0.0,-2.9095,-2.9024,-2.8522,-2.8516,-2.9183,-2.972,-3.0206,-3.0616,0.0,0.0,-2.9848,-2.9869,-2.9893,-2.9653,-2.946,-2.9104,-2.8527,-2.8233,-2.7879,0.0,0.0,0.0,0.0,0.0,0.0,0.0,0.0,-4.3734,-4.3734,0.0,-4.2907,0.0,0.0,0.0,0.0,0.0,0.0,0.0,0.0,-3.891,-3.9023,-3.9613,-3.9757,-3.9535,-3.8826,-3.8546,-3.7011,-3.4486,-3.3339,0.0,0.0,0.0,0.0,0.0,0.0,-3.1903,-3.2571,-3.3209,-3.379,-3.4399,-3.5009,-3.5398,-3.5299,-3.5328,-3.4428,-3.2629,-3.2483,-3.1454,-2.9311,-2.8276,0.0,0.0,0.0,0.0,0.0,0.0,0.0,0.0,0.0,0.0,0.0,0.0,0.0,0.0,0.0,0.0,0.0,0.0,0.0,0.0,-2.2552,0.0,0.0,0.0,0.0,0.0,0.0,0.0,0.0,0.0,0.0,-2.8515,-2.9625,-3.0555,-3.0831,0.0,0.0,0.0,0.0,-3.2183,-3.1483,-3.0742,-3.0023,-2.9575,-2.8653,-2.7998,-2.7998,0.0,0.0,-2.8844,-2.9621,-3.009,-3.0231,-3.0466,-3.1072,-3.2512,-3.2572,-3.2346,-3.1745,-3.1168,-3.0563,-2.9659,-2.9199,-2.8919,-5.1818,0.0,0.0,0.0,0.0,-4.6742,-4.6742,-4.6742,-4.6742,-4.6444,-4.5914,-4.5028,0.0,0.0,0.0,0.0,0.0,0.0,-3.9726,-3.9747,-3.9805,-4.0157,-4.0531,-3.9416,-3.906,-3.9249,-3.8585,-3.7434,-3.5793,-3.5386,-3.4176,-3.199,0.0,0.0,0.0,0.0,-3.3006,-3.3209,-3.3819,-3.4225,-3.4399,-3.4603,-3.469,-3.469,-3.469,-3.3926,-3.2442,-3.2384,-3.1438,-2.9605,-2.8176,0.0,0.0,0.0,0.0,0.0,0.0,0.0,0.0,0.0,0.0,0.0,0.0,0.0,0.0,0.0,0.0,0.0,0.0,0.0,-2.2663,-2.2767,-2.2941,0.0,0.0,0.0,0.0,0.0,0.0,0.0,0.0,0.0,-2.9324,-3.0019,-3.0572,0.0,0.0,-3.0877,-3.0491,-3.0261,-3.0052,-2.9802,0.0,0.0,0.0,-2.7904,-2.7431,-2.7241,-2.7688,-2.8143,-2.8387,-2.9178,-2.9891,-3.0092,-3.0428,-3.089,-3.1636,-3.2276,-3.2587,-3.2274,-3.1817,-3.1321,-3.0649,-3.0159,-2.969,-5.5098,-5.2605,-5.0585,-4.9558,-4.9293,-4.9293,-4.9127,-4.8862,-4.8862,-4.863,-4.8166,-4.6913,-4.6092,-4.5472,-4.4204,0.0,0.0,0.0,-4.1924,-4.1485,-4.1354,-4.1317,-4.1222,-4.0363,-3.9955,-4.0042,-3.9353,-3.8173,-3.6693,-3.6431,-3.527,-3.3325,0.0,0.0,-3.2542,-3.3151,-3.3536,-3.3499,-3.4109,-3.4399,-3.4399,-3.4399,-3.4399,-3.4399,-3.4399,-3.3752,-3.2378,-3.232,-3.1461,-2.9645,-2.814,-2.7023,0.0,0.0,0.0,0.0,0.0,0.0,0.0,0.0,0.0,0.0,0.0,-2.2197,0.0,0.0,0.0,0.0,-2.2178,-2.2504,-2.2815,-2.3346,0.0,0.0,0.0,0.0,0.0,0.0,0.0,-2.7916,-2.8472,-2.8942,-2.9301,-2.9642,-2.9961,-3.026,-3.0034,-2.9669,-2.9279,0.0,-2.8653,-2.8581,-2.8092,-2.7715,-2.762,-2.7146,-2.6825,-2.6738,-2.718,-2.7703,-2.7885,-2.8532,-2.9203,-2.9484,-2.965,-3.0025,-3.0942,-3.1201,-3.1529,-3.2103,-3.1931,-3.149,-3.0828,-3.0216,-2.976,-5.7475,-5.6647,-5.3864,-5.2274,-5.1545,-5.1545,-5.1148,-5.0485,-5.0485,-5.0419,-5.0187,-4.8661,-4.7768,-4.7435,-4.5975,0.0,-4.511,-4.4737,-4.4251,-4.3897,-4.3031,-4.2305,-4.1695,-4.182,-4.1628,-4.0989,-4.035,-3.9073,-3.7331,-3.6606,-3.5648,-3.4428,-3.3848,-3.3238,-3.2716,-3.3267,-3.3558,-3.3558,-3.4109,-3.4399,-3.4399,-3.4399,-3.4399,-3.4399,-3.4399,-3.3752,-3.2407,-3.2256,-3.1432,-2.9588,-2.8079,-2.6996,-2.6249,0.0,0.0,0.0,0.0,0.0,0.0,0.0,0.0,0.0,0.0,0.0,0.0,0.0,0.0,0.0,-2.2678,0.0,-2.2876,-2.4139,0.0,0.0,0.0,-2.6387,-2.7337,-2.7336,-2.7667,-2.8654,0.0,0.0,-2.8723,0.0,-2.8932,-2.9301,-2.9117,-2.8746,-2.8395,-2.8092,-2.7809,-2.7547,-2.7146,-2.686,-2.686,-2.6476,-2.6229,-2.629,-2.6546,-2.6903,-2.7321,-2.7723,-2.8145,-2.8566,-2.838,-2.8628,-3.0088,-2.973,-2.9542,-3.1043,-3.1504,-3.1295,-3.0331,-2.976,-2.9301,-5.8535,-5.8204,-5.6415,-5.4924,-5.3765,-5.3732,-5.3334,-5.2672,-5.2672,-5.2042,-5.0982,-5.027,-4.9094,-4.7529,-4.5853,-4.5056,-4.4858,-4.4173,-4.3577,-4.3092,-4.2503,-4.1972,-4.1477,-4.0887,-4.0495,-4.0292,-3.9712,-3.8667,-3.7331,-3.6635,-3.5648,-3.4457,-3.4254,-3.4109,-3.3964,-3.4109,-3.4196,-3.4196,-3.4341,-3.4399,-3.4399,-3.4399,-3.4399,-3.4399,-3.4399,-3.3686,-3.2155,-3.2033,-3.0977,-2.8691,-2.7556,-2.6472,-2.538,-2.3987,0.0,0.0,0.0,0.0,0.0,0.0,0.0,0.0,0.0,-2.2197,-2.2197,0.0,-2.2197,0.0,-2.2678,-2.3448,-2.4582,-2.4755,0.0,0.0,-2.6209,-2.6622,-2.7244,-2.7575,-2.8195,-2.9183,-2.9212,-2.906,-2.8987,-2.868,-2.8395,-2.8092,-2.7831,-2.7736,-2.7547,-2.7167,-2.688,-2.6784,-2.6688,-2.6496,-2.6284,-2.6014,-2.5762,-2.5859,-2.6251,-2.6606,-2.6884,-2.7003,-2.7202,-2.7774,-2.7662,-2.784,-2.8507,-2.8287,-2.8239,-2.8923,-2.9852,-3.0354,-2.9783,-2.9371,-2.8914,-5.8899,-5.8767,-5.7309,-5.6216,-5.5454,-5.5156,-5.4394,-5.3434,-5.34,-5.2804,-5.1744,-5.1059,-4.9772,-4.816,-4.7109,-4.647,-4.6139,-4.5591,-4.4909,-4.4067,-4.3446,-4.2823,-4.2208,-4.1456,-4.112,-4.1091,-4.011,-3.9102,-3.8115,-3.6896,-3.5822,-3.4835,-3.4545,-3.4399,-3.4399,-3.4399,-3.4399,-3.4399,-3.4399,-3.4399,-3.4399,-3.4399,-3.4283,-3.3993,-3.3926,-3.312,-3.169,-3.1504,-3.0559,-2.8706,-2.7577,-2.6526,-2.5537,-2.4124,-2.315,0.0,0.0,0.0,0.0,0.0,0.0,0.0,0.0,0.0,0.0,0.0,-2.2895,0.0,-2.3568,0.0,-2.5087,-2.5609,-2.6099,-2.6588,-2.6971,-2.7325,-2.7754,-2.7972,-2.8549,-2.9542,-2.9281,-2.9128,-2.905,-2.8675,-2.8207,-2.7641,-2.7262,-2.6976,-2.7071,-2.6688,-2.6304,-2.6284,-2.6207,-2.611,-2.5917,-2.5643,-2.5449,-2.5449,-2.5469,-2.5604,-2.57,-2.5777,-2.5968,-2.6255,-2.6451,-2.6662,-2.6991,-2.7098,-2.7179,-2.7493,-2.8118,-2.8543,-2.8385,-2.8203,-2.7731,-5.8899,-5.8767,-5.7309,-5.6647,-5.6514,-5.5885,-5.4825,-5.3566,-5.3566,-5.3102,-5.2269,-5.1152,-5.0066,-4.8973,-4.8675,-4.8285,-4.7763,-4.7473,-4.6639,-4.5542,-4.4886,-4.4108,-4.3329,-4.2769,-4.2415,-4.2216,-4.0858,-3.9741,-3.9044,-3.7302,-3.6054,-3.5427,-3.4806,-3.4486,-3.4399,-3.4399,-3.4399,-3.4399,-3.4399,-3.4399,-3.4399,-3.4399,-3.4109,-3.3499,-3.3273,-3.2507,-3.1111,-3.0927,-3.0207,-2.9066,-2.7858,-2.6891,-2.6109,-2.4615,-2.3593,0.0,-2.3242,0.0,0.0,0.0,0.0,0.0,0.0,0.0,0.0,-2.352,-2.3875,-2.3857,-2.4747,-2.5301,-2.5302,-2.6538,-2.734,-2.7254,-2.7599,-2.8092,-2.8563,-2.8467,-2.8695,-2.9602,-2.9366,-2.9015,-2.8921,-2.8571,-2.8014,-2.739,-2.6825,-2.654,-2.6601,-2.624,-2.5972,-2.5952,-2.5643,-2.5449,-2.5449,-2.5215,-2.498,-2.4941,-2.4746,-2.4394,-2.4394,-2.4579,-2.4723,-2.4663,-2.5088,-2.5472,-2.5702,-2.5903,-2.6062,-2.6267,-2.6292,-2.6402,-2.6883,-2.6858,-2.6372,-5.8899,-5.8767,-5.7309,-5.6349,-5.5819,-5.5686,-5.5123,-5.4295,-5.4295,-5.3419,-5.1875,-5.108,-5.0399,-4.9733,-4.849,-4.7758,-4.7435,-4.6529,-4.5813,-4.5285,-4.4603,-4.4079,-4.3566,-4.309,-4.2393,-4.1544,-4.0841,-3.9692,-3.8376,-3.7535,-3.6519,-3.5456,-3.5241,-3.4922,-3.4428,0.0,0.0,0.0,-3.4399,-3.4399,-3.4399,-3.4399,-3.4042,-3.3301,-3.3177,0.0,-3.0949,-3.0864,-3.0073,-2.845,-2.8023,0.0,0.0,0.0,0.0,0.0,0.0,0.0,0.0,0.0,0.0,0.0,-2.4049,-2.4049,-2.373,-2.3713,-2.3953,-2.4338,-2.4939,-2.5685,-2.6476,-2.7043,-2.7561,-2.7965,-2.7971,-2.8092,-2.8563,-2.8527,-2.8808,-2.9394,-2.9057,-2.8646,-2.8298,-2.7766,-2.723,-2.6641,-2.6165,-2.5911,-2.5542,-2.5451,-2.5153,-2.4839,-2.4727,-2.4687,-2.4668,-2.4609,-2.4531,-2.4512,-2.4492,-2.4258,-2.3945,-2.3867,-2.3929,-2.3742,-2.4138,-2.4536,-2.4763,-2.4804,-2.4751,-2.4445,-2.4186,-2.442,-2.6004,-2.6325,-2.6062,-5.8701,0.0,-5.7144,-5.6282,0.0,-5.562,-5.499,-5.3964,-5.3964,-5.3148,-5.1762,-5.1401,-5.0986,-5.0552,-4.8982,-4.8192,-4.7869,-4.6629,-4.5792,-4.5352,-4.4949,-4.4496,-4.4082,-4.3205,-4.2485,-4.1844,-4.0588,-3.9642,-3.8818,-3.7812,-3.6983,-3.6315,-3.5747,-3.5212,-3.4893,-3.4574,-3.4399,-3.4399,-3.4399,-3.4332,-3.4264,-3.4264,-3.3763,-3.2643,0.0,0.0,0.0,0.0,0.0,0.0,0.0,0.0,0.0,0.0,0.0,-2.5103,-2.4772,-2.4523,-2.4414,-2.4454,-2.453,-2.453,-2.4771,-2.4819,-2.4554,-2.4771,-2.5011,-2.5276,-2.6021,-2.6719,-2.7272,-2.7723,-2.8052,-2.8315,-2.8259,-2.8298,-2.8536,-2.8502,-2.861,-2.8999,-2.8864,-2.8595,-2.8355,-2.7919,-2.7393,-2.6662,-2.6166,-2.5632,-2.5218,-2.5045,-2.4834,-2.4453,-2.4414,-2.4414,-2.4394,-2.4219,-2.4102,-2.4082,-2.375,-2.3418,-2.3203,-2.2882,-2.2648,-2.2748,-2.2886,-2.3176,-2.3368,-2.3539,-2.3478,-2.3257,-2.3036,-2.314,-2.4276,-2.4485,-2.4251,-5.8469,-5.7707,-5.6879,-5.6084,-5.5421,-5.5289,-5.4386,-5.3162,0.0,0.0,0.0,-5.1688,-5.1475,-5.0908,-4.9539,-4.8675,-4.8189,-4.6869,-4.6008,-4.5499,-4.5352,-4.5024,-4.4617,-4.3381,-4.2636,-4.2209,-4.0512,-3.9484,-3.9262,-3.8044,-3.7389,-3.7215,-3.6228,-3.559,-3.5427,-3.4835,-3.4516,-3.4332,-3.4332,-3.4264,-3.4128,-3.4059,-3.3446,-3.2168,-3.1829,-3.1104,-2.991,-2.9582,-2.9303,-2.9022,-2.8428,-2.7966,-2.7651,-2.688,-2.6238,-2.5756,-2.5577,-2.5425,-2.5086,-2.5293,-2.53,-2.53,-2.5324,-2.5324,-2.5324,-2.5805,-2.6093,-2.6093,-2.7079,-2.7705,-2.7729,-2.8186,-2.8522,-2.8522,-2.8522,-2.8522,-2.8522,-2.8339,-2.845,-2.875,-2.8575,-2.849,-2.8441,-2.7974,-2.7478,-2.6758,-2.6098,-2.5564,-2.49,-2.4596,-2.4433,-2.4121,-2.4082,-2.4141,-2.4121,-2.3809,-2.3594,-2.3496,-2.291,-2.2318,-2.2162,-2.1723,-2.1491,-2.1496,-2.1598,-2.1758,-2.1942,-2.2225,-2.2411,-2.2371,-2.2351,-2.2229,-2.2169,-2.2149,-2.2148,-5.8469,-5.7674,-5.6349,-5.5355,-5.4626,-5.3997,-5.3195,-5.2323,-5.2251,-5.1966,-5.1573,-5.1573,-5.0992,-4.9973,-4.9199,-4.8272,-4.7298,-4.6462,-4.604,0.0,-4.5573,-4.5352,-4.5067,-4.3938,-4.2877,-4.1776,-4.0576,-3.9579,-3.8676,-3.8248,-3.7825,-3.736,-3.7128,-3.646,-3.5444,-3.527,-3.4882,-3.4157,-3.4128,-3.4128,-3.4128,-3.402,-3.3471,-3.2624,-3.2018,-3.1237,-3.0303,-2.9708,-2.924,-2.883,-2.8776,-2.8529,-2.8244,-2.7904,-2.7617,-2.7222,-2.6764,-2.6339,-2.6039,-2.5697,-2.5465,-2.5324,-2.5324,-2.5324,-2.5324,-2.5781,-2.6093,-2.6142,-2.7055,-2.7729,-2.7753,-2.8162,-2.845,-2.8474,-2.8498,-2.8498,-2.8474,-2.8395,-2.8443,-2.8563,-2.8241,-2.7917,-2.7684,-2.7213,-2.6713,-2.6081,-2.5616,-2.506,-2.4415,-2.3914,-2.3584,-2.332,-2.332,-2.332,-2.3281,-2.2969,-2.2754,-2.2695,-2.2116,-2.1588,-2.1298,-2.0981,-2.0628,-2.0286,-2.0614,-2.0866,-2.1067,-2.1356,-2.152,-2.1487,-2.1309,-2.1131,-2.0858,-2.0603,-2.0697,-5.8237,-5.7111,-5.6051,-5.5189,-5.4427,-5.3334,-5.2528,-5.1941,-5.1941,-5.1794,-5.1466,-5.1075,-5.0464,-4.9705,-4.8675,-4.7782,-4.7066,-4.6398,-4.5968,-4.5792,-4.575,-4.5573,-4.529,-4.4266,-4.3113,-4.1954,-4.0696,-3.9565,-3.8708,-3.8352,-3.8057,-3.7796,-3.7476,-3.6838,-3.5938,-3.588,-3.5664,-3.5136,-3.4473,-3.3991,-3.3882,-3.3744,-3.3322,-3.2426,-3.2022,-3.1534,-3.0627,-2.9914,-2.9453,-2.9258,-2.8893,-2.8665,-2.8444,-2.8314,-2.8118,-2.7815,-2.7348,-2.685,-2.6508,-2.5955,-2.5535,-2.53,-2.5324,-2.5324,-2.5324,-2.5805,-2.6093,-2.6117,-2.6839,-2.7296,-2.7296,-2.7512,-2.7657,-2.7657,-2.7657,-2.7699,-2.7861,-2.7908,-2.7949,-2.8131,-2.8042,-2.7683,-2.7139,-2.6795,-2.6197,-2.5429,-2.4966,-2.4577,-2.3924,-2.3649,-2.3393,-2.3071,-2.2899,-2.2695,-2.2519,-2.2305,-2.2104,-2.1981,-2.153,-2.114,-2.0728,-2.0415,-2.001,-1.992,-2.0052,-2.0127,-2.0305,-2.0518,-2.0556,-2.056,-2.0464,-2.0289,-2.0058,-1.9863,-2.0014,-5.8038,-5.6614,-5.5752,-5.4858,-5.3964,-5.2837,-5.2158,-5.1762,-5.1598,-5.1386,-5.1099,-5.0473,-4.9831,-4.9148,-4.8047,-4.7253,-4.6812,-4.6262,-4.5968,-4.5792,-4.5823,-4.5656,-4.5217,-4.4237,-4.3221,-4.2107,-4.0678,-3.9491,-3.8826,-3.8427,-3.8202,-3.8144,-3.7664,-3.7113,-3.6476,-3.6375,-3.6245,-3.5827,-3.4909,-3.4225,-3.3832,-3.362,-3.3073,-3.2347,-3.2111,-3.1736,-3.1061,-3.0321,-2.9859,-2.9859,-2.9318,-2.9007,-2.9007,-2.8849,-2.8663,-2.8358,-2.7933,-2.7385,-2.6739,-2.6094,-2.5606,-2.537,-2.53,-2.5324,-2.5348,-2.5661,-2.5973,-2.6117,-2.6622,-2.6935,-2.6884,-2.6884,-2.686,-2.686,-2.6784,-2.69,-2.7156,-2.715,-2.7215,-2.7458,-2.7528,-2.7182,-2.672,-2.6368,-2.5758,-2.4777,-2.4449,-2.4196,-2.3619,-2.3432,-2.3246,-2.2768,-2.2473,-2.2266,-2.2016,-2.1797,-2.1574,-2.1351,-2.0943,-2.0552,-2.0278,-1.9893,-1.9585,-1.9706,-1.9627,-1.9664,-1.9803,-1.9901,-1.992,-1.9998,-1.992,-1.9803,-1.9803,-1.9627,-1.9566,-5.8005,-5.6581,-5.5222,-5.3831,-5.2672,-5.244,-5.2125,-5.1736,-5.1106,-5.0489,-4.9908,-4.9908,-4.8914,-4.7458,-4.7235,-4.6675,-4.5918,-4.5823,-4.576,-4.576,-4.5823,-4.5476,-4.4741,-4.3725,-4.2683,-4.1576,-4.019,-3.9311,-3.8797,-3.8427,-3.8202,-3.8202,-3.7947,-3.7526,-3.6979,-3.6745,-3.6237,-3.5475,-3.5334,-3.5022,-3.4384,-3.3508,-3.303,-3.2904,-3.2236,-3.1723,-3.1528,-3.0884,-3.0419,-3.031,-3.0256,-3.0228,-3.0228,-3.0228,-2.9848,-2.9201,-2.8852,-2.8208,-2.6858,-2.6188,-2.5795,-2.5606,-2.5419,-2.5324,-2.5324,-2.5348,-2.5588,-2.6021,-2.6524,-2.6815,-2.6836,-2.6713,-2.6514,-2.6467,-2.6363,-2.6406,-2.6429,-2.6376,-2.64,-2.6423,-2.641,-2.6093,-2.6016,-2.5561,-2.4937,-2.432,-2.4126,-2.3972,-2.3489,-2.3225,-2.2898,-2.2292,-2.1987,-2.1958,-2.1922,-2.1423,-2.1067,-2.0909,-2.0282,-1.9874,-1.9739,-1.9543,-1.9371,-1.945,-1.9371,-1.9469,-1.9548,-1.9645,-1.9724,-1.9784,-1.9706,-1.9548,-1.939,-1.9371,-1.9371,-5.7532,-5.6103,-5.4957,-5.3699,-5.2407,-5.191,-5.1498,-5.1041,-5.0353,-4.944,-4.8432,-4.84,-4.7933,-4.7066,-4.6684,-4.5968,-4.5191,-4.5159,-4.4938,-4.4591,-4.4591,-4.4401,-4.4047,-4.3443,-4.263,-4.1586,-4.0504,-3.9593,-3.8826,-3.8427,-3.8127,-3.8005,-3.7929,-3.771,-3.7404,-3.7253,-3.6959,-3.6552,-3.6184,-3.5723,-3.519,-3.4119,-3.3445,-3.3173,-3.2506,-3.2061,-3.1891,-3.1373,-3.0977,-3.0907,-3.0608,-3.0418,-3.0418,-3.0418,-3.0241,-2.9902,-2.9507,-2.8847,-2.7985,-2.7322,-2.6769,-2.6116,-2.5781,-2.5445,-2.5206,-2.504,-2.5087,-2.5349,-2.5732,-2.5901,-2.5852,-2.5779,-2.5682,-2.5559,-2.5486,-2.5456,-2.5662,-2.5611,-2.5628,-2.5777,-2.5693,-2.5478,-2.5028,-2.4453,-2.405,-2.3863,-2.3872,-2.3638,-2.3166,-2.3008,-2.2642,-2.1998,-2.1569,-2.1273,-2.1113,-2.0659,-2.0305,-2.0108,-1.9837,-1.9566,-1.9469,-1.939,-1.9292,-1.9292,-1.9292,-1.9292,-1.939,-1.939,-1.9469,-1.9548,-1.9548,-1.939,-1.9292,-1.9292,-1.9292,-5.7253,-5.5738,-5.4626,-5.34,-5.2042,-5.1512,-5.0938,-5.0287,-4.9562,-4.8518,-4.7389,-4.7005,-4.6702,-4.6389,-4.5945,-4.5334,-4.4717,-4.4527,-4.418,-4.3737,-4.3737,-4.3643,-4.3384,-4.2973,-4.2279,-4.1269,-4.0504,-3.9609,-3.8604,-3.8277,-3.8005,-3.7853,-3.7777,-3.7701,-3.7548,-3.7394,-3.7317,-3.7106,-3.6634,-3.6179,-3.5759,-3.4816,-3.3947,-3.332,-3.2837,-3.2464,-3.2182,-3.1748,-3.1531,-3.1531,-3.1124,-3.0907,-3.088,-3.088,-3.0825,-3.0566,-3.003,-2.9434,-2.8938,-2.8363,-2.7703,-2.6895,-2.6407,-2.5898,-2.5397,-2.5134,-2.4991,-2.4825,-2.5064,-2.5159,-2.504,-2.4969,-2.4849,-2.4706,-2.4634,-2.4653,-2.4807,-2.4802,-2.4791,-2.4907,-2.4808,-2.4709,-2.4175,-2.3713,-2.3422,-2.346,-2.3449,-2.3373,-2.2913,-2.2759,-2.2555,-2.1935,-2.1302,-2.0916,-2.0489,-2.0215,-1.9863,-1.9645,-1.9566,-1.9469,-1.9292,-1.9292,-1.9292,-1.9292,-1.9292,-1.9292,-1.9311,-1.9292,-1.9292,-1.9292,-1.9292,-1.9292,-1.9292,-1.9292,-1.9292,-5.733,-5.5454,-5.4063,-5.2638,-5.1313,-5.1074,-5.0467,-4.9599,-4.874,-4.7993,-4.7165,-4.6045,-4.5196,-4.4875,-4.478,-4.4717,-4.4591,-4.4022,-4.3706,-4.3611,-4.3611,-4.3327,-4.2758,-4.2354,-4.1596,-4.0693,-3.996,-3.9032,-3.8005,-3.7929,-3.7777,-3.7625,-3.7471,-3.7289,-3.724,-3.6929,-3.6721,-3.6693,-3.648,-3.6243,-3.6029,-3.548,-3.4525,-3.354,-3.3145,-3.2799,-3.2291,-3.2155,-3.2128,-3.2128,-3.2046,-3.2046,-3.2074,-3.2046,-3.1802,-3.1287,-3.0535,-2.9907,-2.9513,-2.9041,-2.8388,-2.7754,-2.7236,-2.6721,-2.5872,-2.5607,-2.5321,-2.4872,-2.4801,-2.4778,-2.4778,-2.4634,-2.4562,-2.449,-2.42,-2.4004,-2.4027,-2.3926,-2.3711,-2.3727,-2.3794,-2.3743,-2.3461,-2.332,-2.3246,-2.3141,-2.3067,-2.297,-2.2724,-2.2649,-2.2402,-2.1928,-2.1451,-2.1108,-2.0857,-2.0255,-1.9784,-1.9627,-1.9469,-1.9311,-1.9292,-1.9292,-1.9292,-1.9292,-1.9292,-1.9292,-1.9292,-1.9292,-1.9292,-1.9292,-1.9292,-1.9292,-1.9292,-1.9292,-1.9292,-5.5896,-5.4096,-5.2638,-5.1711,-5.1214,-5.008,-4.928,-4.8846,-4.7952,-4.7211,-4.6628,-4.5693,-4.5069,-4.4685,-4.3801,-4.3421,-4.339,-4.3169,-4.2821,-4.241,-4.2347,-4.222,-4.1999,-4.17,-4.1336,-4.0708,-4.0021,-3.9162,-3.8202,-3.8005,-3.7701,-3.7471,-3.7366,-3.7162,-3.6929,-3.68,-3.6642,-3.6563,-3.6405,-3.6325,-3.6086,-3.5867,-3.5268,-3.4294,-3.3506,-3.2969,-3.2752,-3.2399,-3.2182,-3.2182,-3.2182,-3.2182,-3.2182,-3.2182,-3.2101,-3.1857,-3.1379,-3.0956,-3.0639,-2.9977,-2.9201,-2.835,-2.7721,-2.7048,-2.6245,-2.5569,-2.514,-2.4881,-2.458,-2.4418,-2.4418,-2.449,-2.4418,-2.4127,-2.3982,-2.3813,-2.374,-2.3666,-2.3519,-2.3446,-2.3298,-2.315,-2.315,-2.3075,-2.3075,-2.3001,-2.3001,-2.2774,-2.2388,-2.225,-2.2103,-2.166,-2.1234,-2.0863,-2.0722,-2.0177,-1.9627,-1.9469,-1.939,-1.9292,-1.9292,-1.9292,-1.9292,-1.9292,-1.9292,-1.9292,-1.9292,-1.9292,-1.9292,-1.9292,-1.9292,-1.9292,-1.9292,-1.9292,-1.9292,-5.4489,-5.297,-5.1706,-5.0913,-5.0416,-4.9151,-4.8456,-4.7988,-4.7293,-4.6754,-4.6173,-4.5304,-4.4681,-4.4218,-4.2947,-4.2315,-4.2347,-4.2315,-4.2062,-4.162,-4.1588,-4.1588,-4.1588,-4.139,-4.1122,-4.0715,-4.0021,-3.9162,-3.8277,-3.7929,-3.7625,-3.7211,-3.7162,-3.6929,-3.6642,-3.6563,-3.6405,-3.6325,-3.6246,-3.6138,-3.6006,-3.5978,-3.5734,-3.5058,-3.4136,-3.343,-3.3152,-3.2671,-3.2372,-3.2209,-3.2182,-3.2182,-3.2182,-3.2182,-3.2182,-3.2182,-3.1963,-3.1669,-3.1347,-3.0823,-3.0113,-2.9151,-2.8464,-2.7651,-2.6765,-2.5907,-2.5378,-2.4883,-2.4511,-2.4186,-2.4077,-2.4127,-2.4127,-2.3909,-2.3813,-2.374,-2.3519,-2.3446,-2.3372,-2.3224,-2.3075,-2.3001,-2.3001,-2.3001,-2.2914,-2.2826,-2.2783,-2.2513,-2.2027,-2.1847,-2.1704,-2.1322,-2.0959,-2.0575,-2.0308,-1.9812,-1.9515,-1.9395,-1.9292,-1.9292,-1.9292,-1.9292,-1.9292,-1.9292,-1.9292,-1.9292,-1.9292,-1.9292,-1.9292,-1.9292,-1.9292,-1.9292,-1.9292,-1.9292,-1.9292,-5.3252,-5.2274,-5.1404,-5.0179,-4.9055,-4.8449,-4.7887,-4.7297,-4.6823,-4.6545,-4.6173,-4.4788,-4.4103,-4.3522,-4.2442,-4.1715,-4.1683,-4.1715,-4.1683,-4.1588,-4.1588,-4.1588,-4.1588,-4.139,-4.1122,-4.0715,-3.9666,-3.8797,-3.8202,-3.7853,-3.7471,-3.7084,-3.685,-3.6642,-3.6405,-3.6246,-3.6166,-3.6058,-3.5898,-3.571,-3.571,-3.571,-3.571,-3.5601,-3.5058,-3.4244,-3.3186,-3.305,-3.2725,-3.2236,-3.2182,-3.2182,-3.2182,-3.2182,-3.2182,-3.2182,-3.2182,-3.1963,-3.1596,-3.1272,-3.0748,-3.0037,-2.9549,-2.8578,-2.7567,-2.6909,-2.6147,-2.515,-2.4484,-2.413,-2.3824,-2.3689,-2.3762,-2.3835,-2.3666,-2.3519,-2.3298,-2.315,-2.3001,-2.3001,-2.3001,-2.3001,-2.2979,-2.2914,-2.2761,-2.2411,-2.2302,-2.2127,-2.1691,-2.1511,-2.1371,-2.102,-2.0594,-2.0236,-1.991,-1.9563,-1.9427,-1.9224,-1.9316,-1.9292,-1.9292,-1.9292,-1.9292,-1.9292,-1.9292,-1.9292,-1.9292,-1.9292,-1.9292,-1.9292,-1.9292,-1.9292,-1.9292,-1.9292,-1.9292,-5.2557,-5.1479,-5.0047,-4.9253,-4.8658,-4.7959,-4.7362,-4.7199,-4.6722,-4.6442,-4.6103,-4.5164,-4.4357,-4.3648,-4.2726,-4.2062,-4.162,-4.1588,-4.1588,-4.1588,-4.1588,-4.1588,-4.1588,-4.139,-4.0987,-4.0339,-3.9666,-3.8943,-3.8277,-3.7825,-3.7317,-3.6878,-3.6721,-3.6563,-3.6246,-3.6166,-3.5978,-3.5817,-3.571,-3.571,-3.571,-3.571,-3.571,-3.5683,-3.552,-3.4896,-3.3756,-3.3295,-3.2779,-3.2209,-3.2182,-3.2182,-3.2182,-3.2182,-3.2182,-3.2182,-3.1963,-3.1743,-3.1522,-3.1048,-3.0596,-3.0062,-2.9443,-2.8743,-2.7997,-2.7135,-2.6335,-2.5564,-2.4835,-2.4167,-2.4108,-2.3772,-2.3615,-2.3519,-2.3446,-2.3298,-2.315,-2.3075,-2.3001,-2.3001,-2.3001,-2.287,-2.263,-2.2564,-2.2368,-2.1909,-2.18,-2.1625,-2.1232,-2.1101,-2.0942,-2.0599,-2.0205,-1.9839,-1.9515,-1.9238,-1.9127,-1.9136,-1.9164,-1.9274,-1.9292,-1.9292,-1.9292,-1.9292,-1.9292,-1.9292,-1.9292,-1.9292,-1.9292,-1.9292,-1.9292,-1.9292,-1.9292,-1.9292,-1.9292,-5.1323,-5.0284,-4.9187,-4.8491,-4.8092,-4.7261,-4.6961,-4.6892,-4.6615,-4.6333,-4.6064,-4.5317,-4.4478,-4.3674,-4.2979,-4.2284,-4.1652,-4.1588,-4.1588,-4.1588,-4.1588,-4.1588,-4.1588,-4.1323,-4.0987,-4.0439,-3.9809,-3.9162,-3.8575,-3.8005,-3.7394,-3.6929,-3.6721,-3.6405,-3.5978,-3.5978,-3.5898,-3.571,-3.571,-3.571,-3.571,-3.571,-3.571,-3.571,-3.5629,-3.4954,-3.3873,-3.3414,-3.2847,-3.2199,-3.2036,-3.1963,-3.1963,-3.1963,-3.1963,-3.189,-3.1743,-3.1596,-3.1447,-3.0973,-3.052,-3.0139,-2.9521,-2.8791,-2.8267,-2.7345,-2.66,-2.5961,-2.5038,-2.4326,-2.4006,-2.366,-2.332,-2.3224,-2.3298,-2.3224,-2.3075,-2.3001,-2.3001,-2.3001,-2.3001,-2.2761,-2.2455,-2.2302,-2.2018,-2.1516,-2.1319,-2.1144,-2.0751,-2.0598,-2.0398,-2.013,-1.9703,-1.9381,-1.9108,-1.8912,-1.8807,-1.8954,-1.9072,-1.9201,-1.9292,-1.9292,-1.9292,-1.9292,-1.9292,-1.9292,-1.9292,-1.9292,-1.9292,-1.9292,-1.9292,-1.9292,-1.9292,-1.9292,-1.9292,-4.9758,-4.8824,-4.8521,-4.7991,-4.7264,-4.6823,-4.6652,-4.6615,-4.6294,-4.6112,-4.5953,-4.5231,-4.4464,-4.3769,-4.3169,-4.2442,-4.1746,-4.1588,-4.1588,-4.1588,-4.1588,-4.1522,-4.1456,-4.1221,-4.095,-4.0539,-3.998,-3.9481,-3.887,-3.8202,-3.7596,-3.6978,-3.6536,-3.6138,-3.5817,-3.571,-3.571,-3.571,-3.571,-3.571,-3.5629,-3.5629,-3.5575,-3.5548,-3.5413,-3.4848,-3.3799,-3.3296,-3.2711,-3.1978,-3.177,-3.1669,-3.1596,-3.1622,-3.1596,-3.1669,-3.1596,-3.1522,-3.1272,-3.1048,-3.0748,-3.0368,-2.9754,-2.9184,-2.8554,-2.7683,-2.6874,-2.6026,-2.5147,-2.4346,-2.3908,-2.3307,-2.3119,-2.3075,-2.315,-2.315,-2.3075,-2.3001,-2.3001,-2.3001,-2.2979,-2.2826,-2.239,-2.228,-2.1778,-2.1188,-2.0882,-2.0598,-2.0402,-2.0205,-1.9987,-1.9745,-1.941,-1.9015,-1.8754,-1.86,-1.8432,-1.8378,-1.8669,-1.8981,-1.9219,-1.9274,-1.9292,-1.9292,-1.9292,-1.9292,-1.9292,-1.9292,-1.9292,-1.9292,-1.9292,-1.9292,-1.9292,-1.9292,-1.9292,-4.9159,-4.8758,-4.7893,-4.743,-4.7199,-4.6722,-4.6582,-4.6545,-4.6223,-4.6112,-4.5977,-4.5674,-4.5065,-4.4401,-4.3706,-4.3042,-4.2378,-4.181,-4.1588,-4.1588,-4.1456,-4.1323,-4.1221,-4.1185,-4.0746,-4.0261,-3.991,-3.9337,-3.8649,-3.8202,-3.7519,-3.6822,-3.6536,-3.6138,-3.579,-3.571,-3.571,-3.571,-3.571,-3.5629,-3.5467,-3.5467,-3.5171,-3.4661,-3.4901,-3.45,-3.3459,-3.272,-3.2216,-3.1776,-3.1669,-3.1596,-3.1522,-3.1522,-3.1522,-3.1522,-3.1447,-3.1347,-3.1272,-3.0999,-3.0698,-3.0444,-2.9985,-2.9468,-2.8816,-2.8075,-2.736,-2.654,-2.5552,-2.4557,-2.4237,-2.3504,-2.3067,-2.3001,-2.3075,-2.3075,-2.3001,-2.3001,-2.3001,-2.3001,-2.3001,-2.2783,-2.2411,-2.204,-2.1625,-2.1035,-2.0642,-2.038,-2.0293,-2.0074,-2.0009,-1.9681,-1.9327,-1.8812,-1.8429,-1.8216,-1.809,-1.7879,-1.8137,-1.865,-1.8962,-1.9237,-1.9274,-1.9292,-1.9292,-1.9292,-1.9292,-1.9274,-1.9292,-1.9201,-1.9237,-1.9201,-1.9274,-1.9311,-1.9213,-4.843,-4.8195,-4.7498,-4.7098,-4.6892,-4.6615,-4.6474,-4.6333,-4.608,-4.5968,-4.5968,-4.5896,-4.5381,-4.4685,-4.399,-4.3327,-4.2663,-4.1904,-4.1522,-4.1456,-4.1256,-4.1153,-4.1086,-4.1018,-4.0677,-4.0261,-3.991,-3.9481,-3.8797,-3.8277,-3.7567,-3.69,-3.6536,-3.6138,-3.571,-3.571,-3.571,-3.571,-3.5629,-3.5494,-3.5386,-3.5063,-3.4741,-3.4233,-3.4259,-3.3701,-3.2775,-3.2225,-3.1803,-3.1505,-3.1373,-3.1373,-3.1373,-3.1373,-3.1373,-3.1373,-3.1198,-3.1198,-3.1123,-3.0849,-3.0622,-3.0368,-3.0011,-2.9468,-2.887,-2.8211,-2.7545,-2.6553,-2.5497,-2.4758,-2.4149,-2.346,-2.3067,-2.3001,-2.3001,-2.3001,-2.3001,-2.3001,-2.3001,-2.3001,-2.2979,-2.2826,-2.239,-2.2062,-2.1691,-2.1254,-2.0817,-2.062,-2.0467,-2.0227,-2.0009,-1.9681,-1.9264,-1.8838,-1.8319,-1.8054,-1.7793,-1.7639,-1.7661,-1.8172,-1.8556,-1.9017,-1.9127,-1.9146,-1.9219,-1.9237,-1.9049,-1.8976,-1.9017,-1.8981,-1.9054,-1.9067,-1.9122,-1.9152,-1.9152,-4.7604,-4.747,-4.7235,-4.6961,-4.6582,-4.6404,-4.6223,-4.6112,-4.5896,-4.5823,-4.5823,-4.5823,-4.5476,-4.478,-4.4085,-4.339,-4.2789,-4.1901,-4.1453,-4.1256,-4.1086,-4.1049,-4.095,-4.0882,-4.077,-4.0484,-4.0142,-3.9715,-3.9091,-3.8543,-3.7749,-3.7056,-3.6615,-3.6138,-3.579,-3.571,-3.571,-3.5629,-3.5467,-3.5413,-3.5169,-3.4767,-3.4286,-3.3834,-3.3437,-3.283,-3.2201,-3.1888,-3.1756,-3.1299,-3.1048,-3.1048,-3.1048,-3.0973,-3.0973,-3.1048,-3.1048,-3.1048,-3.0999,-3.0849,-3.0596,-3.0368,-3.0088,-2.9546,-2.887,-2.8291,-2.7485,-2.6428,-2.5363,-2.4559,-2.37,-2.322,-2.3045,-2.3001,-2.3001,-2.3001,-2.3001,-2.3001,-2.3001,-2.3001,-2.3001,-2.2783,-2.2542,-2.2302,-2.2149,-2.1734,-2.1254,-2.0926,-2.0729,-2.0533,-2.0183,-1.9747,-1.933,-1.8865,-1.8347,-1.7842,-1.7618,-1.7383,-1.7442,-1.7733,-1.8079,-1.8483,-1.872,-1.883,-1.8661,-1.8606,-1.8552,-1.8497,-1.8574,-1.8552,-1.8529,-1.871,-1.8813,-1.8957,-1.8931,-4.7537,-4.747,-4.6929,-4.6652,-4.6512,-4.6294,-4.608,-4.608,-4.5864,-4.5728,-4.5792,-4.5792,-4.5634,-4.5412,-4.4211,-4.3611,-4.3163,-4.1987,-4.1189,-4.0919,-4.0851,-4.0746,-4.0746,-4.0715,-4.0816,-4.0649,-4.0122,-3.9751,-3.9402,-3.8481,-3.7672,-3.7056,-3.6536,-3.6138,-3.579,-3.5629,-3.5629,-3.5494,-3.5386,-3.5249,-3.4977,-3.4709,-3.407,-3.3278,-3.2962,-3.2516,-3.2071,-3.228,-3.2019,-3.1363,-3.1048,-3.0973,-3.0973,-3.0973,-3.0973,-3.0973,-3.0973,-3.0973,-3.0973,-3.0924,-3.0748,-3.0444,-3.0292,-2.9908,-2.9131,-2.8578,-2.7758,-2.6576,-2.5599,-2.4481,-2.3404,-2.3088,-2.3001,-2.3001,-2.3001,-2.3001,-2.3001,-2.3001,-2.3001,-2.3001,-2.3001,-2.2957,-2.2826,-2.2499,-2.2324,-2.2106,-2.1756,-2.1319,-2.1057,-2.086,-2.0443,-2.0028,-1.9631,-1.9142,-1.8395,-1.7852,-1.7486,-1.725,-1.7222,-1.7207,-1.7551,-1.773,-1.7947,-1.8019,-1.7943,-1.7907,-1.8001,-1.789,-1.789,-1.7979,-1.8047,-1.8297,-1.8512,-1.8611,-1.8692,-4.7671,-4.747,-4.6961,-4.6652,-4.6404,-4.6223,-4.585,-4.5492,-4.5358,-4.5096,-4.4875,-4.4812,-4.4812,-4.4749,-4.3769,-4.3163,-4.2774,-4.1721,-4.0987,-4.0783,-4.0715,-4.0578,-4.0539,-4.0608,-4.0685,-4.0609,-4.0122,-3.9751,-3.9299,-3.8556,-3.7749,-3.6978,-3.6457,-3.5978,-3.5629,-3.5467,-3.5386,-3.5249,-3.5168,-3.5003,-3.4839,-3.4383,-3.3828,-3.2986,-3.2908,-3.2829,-3.2359,-3.2515,-3.2202,-3.1548,-3.113,-3.0973,-3.0973,-3.0973,-3.0973,-3.0973,-3.0973,-3.0973,-3.0973,-3.0973,-3.0823,-3.0444,-3.0368,-2.9908,-2.9287,-2.8761,-2.7719,-2.6503,-2.5474,-2.4537,-2.3229,-2.3001,-2.3001,-2.3001,-2.3001,-2.3001,-2.3001,-2.3001,-2.3001,-2.3001,-2.3001,-2.3001,-2.287,-2.2695,-2.2652,-2.2542,-2.2237,-2.1822,-2.1712,-2.145,-2.0924,-2.046,-1.9974,-1.9422,-1.859,-1.7988,-1.7373,-1.7102,-1.6948,-1.6881,-1.6973,-1.7117,-1.7151,-1.7329,-1.7561,-1.7436,-1.7436,-1.7326,-1.7379,-1.7557,-1.7752,-1.7923,-1.817,-1.8356,-1.8318,-4.7737,-4.7403,-4.6961,-4.655,-4.6103,-4.5889,-4.5366,-4.4622,-4.4559,-4.4306,-4.3801,-4.3706,-4.3927,-4.3611,-4.3005,-4.2559,-4.1941,-4.1392,-4.0814,-4.0715,-4.0578,-4.0539,-4.0539,-4.0539,-4.047,-4.0292,-4.0011,-3.9715,-3.9224,-3.8456,-3.7749,-3.7056,-3.6429,-3.5978,-3.5575,-3.5249,-3.5168,-3.5168,-3.4921,-3.4839,-3.4647,-3.4114,-3.3535,-3.3117,-3.3247,-3.3195,-3.2725,-3.262,-3.2411,-3.1785,-3.1287,-3.1026,-3.0973,-3.0973,-3.0973,-3.0973,-3.0973,-3.0973,-3.0973,-3.0973,-3.0823,-3.0444,-3.0368,-2.9985,-2.9287,-2.8664,-2.7577,-2.6271,-2.5079,-2.4193,-2.3185,-2.3001,-2.3001,-2.3001,-2.3001,-2.3001,-2.2927,-2.2927,-2.2927,-2.3001,-2.3001,-2.3001,-2.3001,-2.2914,-2.2957,-2.2936,-2.2608,-2.2346,-2.2215,-2.1974,-2.1403,-2.0744,-2.0279,-1.9463,-1.861,-1.8037,-1.7442,-1.7116,-1.6821,-1.672,-1.6616,-1.658,-1.6715,-1.7054,-1.7252,-1.709,-1.6928,-1.6781,-1.6867,-1.7173,-1.7203,-1.7156,-1.7536,-1.8082,-1.7946,-4.7571,-4.7167,-4.6615,-4.5911,-4.5221,-4.5049,-4.4496,-4.3959,-4.3864,-4.3801,-4.3674,-4.3706,-4.3611,-4.3416,-4.2774,-4.1972,-4.1299,-4.0845,-4.0746,-4.0608,-4.0539,-4.0539,-4.0539,-4.047,-4.0401,-4.0191,-3.998,-3.9763,-3.9491,-3.8643,-3.7777,-3.724,-3.6615,-3.6138,-3.5817,-3.5575,-3.5249,-3.5086,-3.4839,-3.4647,-3.4376,-3.4245,-3.3875,-3.3404,-3.3587,-3.3378,-3.2908,-3.2698,-3.2411,-3.1862,-3.1287,-3.1052,-3.0973,-3.0973,-3.0973,-3.0973,-3.0973,-3.0973,-3.0973,-3.0973,-3.0823,-3.052,-3.0368,-2.9985,-2.9287,-2.8609,-2.7577,-2.5985,-2.4399,-2.3295,-2.3045,-2.3001,-2.3001,-2.3001,-2.3001,-2.2927,-2.2777,-2.2777,-2.2777,-2.2927,-2.2927,-2.3001,-2.2927,-2.2927,-2.2927,-2.2927,-2.2848,-2.2586,-2.2433,-2.2215,-2.1887,-2.1224,-2.0522,-1.9526,-1.8542,-1.8008,-1.751,-1.7185,-1.6894,-1.6741,-1.6527,-1.6306,-1.6348,-1.6805,-1.6822,-1.6553,-1.641,-1.6286,-1.637,-1.6648,-1.6505,-1.6288,-1.6944,-1.7531,-1.7523,-4.6979,-4.6478,-4.5681,-4.5053,-4.449,-4.425,-4.3832,-4.3232,-4.3169,-4.2947,-4.2695,-4.2631,-4.2631,-4.2469,-4.2113,-4.1403,-4.0945,-4.0677,-4.0608,-4.0509,-4.0539,-4.0539,-4.047,-4.047,-4.0331,-4.0191,-3.994,-3.9601,-3.9535,-3.8423,-3.7749,-3.7211,-3.6693,-3.6246,-3.5898,-3.5494,-3.5168,-3.5003,-3.4729,-3.4432,-3.4005,-3.3979,-3.3796,-3.3718,-3.3849,-3.3849,-3.3561,-3.2881,-3.2594,-3.2176,-3.1444,-3.1078,-3.0973,-3.0973,-3.0973,-3.0973,-3.0973,-3.0973,-3.0973,-3.0973,-3.0849,-3.0444,-3.0292,-2.9908,-2.9209,-2.8481,-2.7443,-2.5776,-2.4358,-2.3263,-2.3045,-2.3023,-2.2927,-2.2852,-2.2852,-2.2777,-2.2628,-2.2553,-2.2628,-2.2703,-2.2628,-2.2628,-2.2703,-2.2703,-2.2777,-2.2852,-2.2927,-2.2774,-2.2557,-2.2404,-2.2186,-2.1474,-2.0727,-1.9671,-1.8743,-1.8272,-1.7781,-1.7417,-1.7095,-1.692,-1.6663,-1.6451,-1.6464,-1.675,-1.6556,-1.6304,-1.6296,-1.6313,-1.6178,-1.6152,-1.6327,-1.6519,-1.6702,-1.6855,-1.6957,-4.6356,-4.553,-4.4747,-4.4157,-4.3759,-4.3395,-4.2884,-4.2347,-4.2062,-4.1683,-4.1241,-4.1336,-4.143,-4.1365,-4.1225,-4.0987,-4.0746,-4.0608,-4.0539,-4.0539,-4.0539,-4.0539,-4.047,-4.0401,-4.0261,-4.0121,-3.9768,-3.9481,-3.9179,-3.8456,-3.7901,-3.7443,-3.685,-3.6298,-3.5951,-3.5548,-3.5168,-3.4921,-3.4647,-3.4219,-3.3718,-3.3483,-3.3404,-3.343,-3.3822,-3.3953,-3.3692,-3.2934,-3.2489,-3.215,-3.1601,-3.0973,-3.0973,-3.0973,-3.0973,-3.0973,-3.0973,-3.0973,-3.0973,-3.0973,-3.0823,-3.0444,-3.0216,-2.9754,-2.9057,-2.8227,-2.7079,-2.5475,-2.426,-2.3591,-2.3263,-2.2992,-2.2874,-2.2777,-2.2703,-2.2553,-2.2402,-2.2327,-2.2252,-2.2327,-2.2252,-2.2327,-2.2478,-2.2553,-2.2628,-2.2628,-2.2703,-2.2703,-2.253,-2.2648,-2.2336,-2.1624,-2.0786,-1.9761,-1.9032,-1.8616,-1.8189,-1.7764,-1.7458,-1.7222,-1.7011,-1.6791,-1.6834,-1.6851,-1.6616,-1.6439,-1.6403,-1.6365,-1.626,-1.6325,-1.6534,-1.6599,-1.6537,-1.6635,-1.6717,-4.5865,-4.4619,-4.4289,-4.3699,-4.2794,-4.2094,-4.1462,-4.083,-4.0293,-3.985,-3.9977,-4.0419,-4.0639,-4.0507,-4.0645,-4.0653,-4.0547,-4.0416,-4.0447,-4.0509,-4.0539,-4.047,-4.047,-4.0331,-4.0191,-4.0011,-3.9625,-3.9409,-3.9192,-3.8649,-3.8202,-3.7749,-3.7211,-3.6772,-3.6457,-3.5871,-3.5629,-3.5467,-3.495,-3.4331,-3.3561,-3.3064,-3.2829,-3.2829,-3.2934,-3.3038,-3.3038,-3.2437,-3.2045,-3.1914,-3.1365,-3.0999,-3.0973,-3.0973,-3.0973,-3.0973,-3.0973,-3.0973,-3.0973,-3.0973,-3.0823,-3.0444,-3.0216,-2.9754,-2.8978,-2.7767,-2.6691,-2.5869,-2.4569,-2.3766,-2.3471,-2.3015,-2.2864,-2.2628,-2.2478,-2.2327,-2.2176,-2.2101,-2.2101,-2.2025,-2.2025,-2.2176,-2.2327,-2.2402,-2.2478,-2.2478,-2.2478,-2.2478,-2.2478,-2.2553,-2.2381,-2.1627,-2.1021,-2.0103,-1.9424,-1.8982,-1.8589,-1.8171,-1.7916,-1.7653,-1.7436,-1.7227,-1.6951,-1.691,-1.6766,-1.6621,-1.6685,-1.6524,-1.6381,-1.6365,-1.6476,-1.6365,-1.6237,-1.6365,-1.6621,-4.414,-4.3714,-4.2716,-4.1944,-4.143,-4.0704,-4.0261,-3.9945,-3.9661,-3.944,-3.9409,-3.9692,-3.9722,-3.9589,-3.961,-3.9787,-3.9893,-3.9955,-4.0201,-4.0447,-4.0439,-4.047,-4.0331,-4.0222,-4.0011,-3.9839,-3.9583,-3.9409,-3.9192,-3.8723,-3.8202,-3.8052,-3.7519,-3.7056,-3.685,-3.6191,-3.5871,-3.5359,-3.4553,-3.3567,-3.3066,-3.2542,-3.2202,-3.2228,-3.2489,-3.2594,-3.2489,-3.215,-3.1785,-3.1731,-3.1287,-3.0999,-3.0973,-3.0973,-3.0973,-3.0973,-3.0973,-3.0973,-3.0973,-3.0973,-3.0748,-3.0444,-3.0139,-2.9677,-2.8767,-2.7726,-2.6703,-2.6052,-2.5134,-2.4355,-2.3621,-2.3165,-2.2755,-2.2509,-2.2327,-2.2176,-2.2025,-2.1949,-2.1873,-2.1818,-2.1818,-2.1949,-2.2101,-2.2176,-2.2252,-2.2252,-2.2327,-2.2402,-2.2327,-2.2327,-2.1998,-2.1544,-2.1021,-2.0483,-1.9909,-1.939,-1.9049,-1.872,-1.849,-1.8257,-1.7941,-1.7682,-1.7329,-1.7025,-1.6782,-1.6814,-1.6878,-1.6716,-1.6476,-1.6428,-1.6397,-1.6349,-1.6333,-1.646,-1.6603,-4.2172,-4.2205,-4.1056,-4.042,-4.0261,-3.9566,-3.9281,-3.925,-3.8935,-3.8842,-3.8811,-3.8842,-3.884,-3.8803,-3.8862,-3.904,-3.9247,-3.9277,-3.9677,-4.0078,-4.0224,-4.0217,-4.02,-4.0081,-3.9839,-3.9666,-3.9481,-3.9409,-3.9192,-3.8797,-3.8427,-3.8277,-3.7749,-3.7366,-3.6978,-3.6457,-3.5978,-3.5386,-3.3993,-3.3172,-3.2699,-3.1993,-3.1705,-3.1757,-3.1993,-3.2254,-3.2202,-3.1862,-3.1601,-3.1496,-3.1235,-3.0973,-3.0973,-3.0973,-3.0973,-3.0973,-3.0973,-3.0973,-3.0973,-3.0973,-3.0823,-3.052,-2.9985,-2.9443,-2.8578,-2.7834,-2.7093,-2.6219,-2.5385,-2.4501,-2.3745,-2.3211,-2.2751,-2.2345,-2.2101,-2.1949,-2.1873,-2.1873,-2.1894,-2.1818,-2.1818,-2.1818,-2.1873,-2.1949,-2.2025,-2.2025,-2.2101,-2.2252,-2.2176,-2.2101,-2.1878,-2.1586,-2.1375,-2.0892,-2.0333,-1.9806,-1.9492,-1.918,-1.9013,-1.8738,-1.8319,-1.7871,-1.7446,-1.7204,-1.6894,-1.6812,-1.6796,-1.673,-1.673,-1.6635,-1.6555,-1.6524,-1.654,-1.6569,-1.6632,-4.0128,-4.0006,-3.9911,-3.9723,-3.9534,-3.8871,-3.8586,-3.8523,-3.777,-3.7461,-3.7557,-3.7686,-3.8182,-3.849,-3.8392,-3.8354,-3.8569,-3.8569,-3.9,-3.9302,-3.9382,-3.9589,-3.9695,-3.9698,-3.9606,-3.9535,-3.9451,-3.9409,-3.9337,-3.909,-3.8797,-3.8427,-3.8052,-3.7672,-3.7211,-3.6615,-3.5816,-3.517,-3.386,-3.3066,-3.2489,-3.1731,-3.1156,-3.1104,-3.113,-3.1104,-3.113,-3.1078,-3.113,-3.113,-3.0947,-3.0973,-3.0947,-3.0973,-3.0973,-3.0973,-3.0973,-3.0973,-3.0973,-3.0973,-3.0898,-3.052,-2.9985,-2.9184,-2.8498,-2.7672,-2.6976,-2.6311,-2.553,-2.4643,-2.3887,-2.3245,-2.273,-2.2213,-2.1949,-2.1873,-2.1797,-2.1797,-2.1818,-2.1818,-2.1818,-2.1818,-2.1818,-2.1873,-2.1873,-2.1949,-2.1873,-2.2025,-2.1949,-2.1873,-2.1873,-2.1694,-2.1714,-2.1322,-2.0737,-2.0357,-2.0171,-1.9716,-1.9409,-1.9091,-1.8726,-1.8193,-1.7529,-1.7221,-1.6976,-1.6812,-1.673,-1.673,-1.673,-1.673,-1.6617,-1.6553,-1.6537,-1.6617,-1.655,-3.9014,-3.8391,-3.8391,-3.8584,-3.8839,-3.8175,-3.7859,-3.7828,-3.7395,-3.7058,-3.6907,-3.694,-3.7125,-3.7309,-3.7371,-3.7523,-3.7831,-3.7892,-3.8258,-3.8591,-3.8769,-3.8659,-3.8827,-3.9013,-3.8993,-3.9073,-3.917,-3.9439,-3.9337,-3.9205,-3.9017,-3.8649,-3.819,-3.7901,-3.7394,-3.666,-3.5785,-3.4766,-3.3832,-3.3065,-3.2096,-3.1496,-3.0973,-3.0973,-3.0973,-3.0973,-3.0973,-3.0634,-3.0712,-3.079,-3.0607,-3.0686,-3.0869,-3.0921,-3.0947,-3.0973,-3.0973,-3.0973,-3.0973,-3.0973,-3.0823,-3.0444,-2.9806,-2.9106,-2.8474,-2.7834,-2.7103,-2.6438,-2.5666,-2.4716,-2.3731,-2.3217,-2.2866,-2.2185,-2.1894,-2.1818,-2.1818,-2.1818,-2.1818,-2.1818,-2.1818,-2.1818,-2.1818,-2.1818,-2.1818,-2.1818,-2.1818,-2.1818,-2.1818,-2.1818,-2.1818,-2.1741,-2.1721,-2.1512,-2.0943,-2.0851,-2.076,-2.0256,-1.975,-1.9335,-1.8834,-1.8175,-1.761,-1.7302,-1.6976,-1.6812,-1.673,-1.673,-1.673,-1.673,-1.6648,-1.6632,-1.6566,-1.6484,-1.6402,-3.8221,-3.7539,-3.7539,-3.7733,-3.8112,-3.767,-3.748,-3.748,-3.721,-3.6968,-3.6662,-3.6538,-3.6507,-3.6507,-3.6538,-3.6753,-3.7123,-3.7182,-3.7517,-3.7816,-3.8019,-3.8068,-3.8258,-3.8572,-3.9043,-3.8841,-3.908,-3.9439,-3.9409,-3.92,-3.8865,-3.8413,-3.7959,-3.7502,-3.7177,-3.6347,-3.5319,-3.4281,-3.351,-3.2773,-3.181,-3.1313,-3.0999,-3.0973,-3.0973,-3.0817,-3.066,-3.0372,-3.0241,-3.0215,-3.0163,-3.0215,-3.0503,-3.0738,-3.0817,-3.0921,-3.0973,-3.0973,-3.0973,-3.0924,-3.0748,-3.0292,-2.9677,-2.9106,-2.8554,-2.7834,-2.694,-2.6257,-2.5543,-2.474,-2.3549,-2.3057,-2.2662,-2.1963,-2.1838,-2.1818,-2.1818,-2.1818,-2.1818,-2.1818,-2.1818,-2.1818,-2.1818,-2.1818,-2.1818,-2.1818,-2.1818,-2.1818,-2.1818,-2.1818,-2.1721,-2.1665,-2.1589,-2.1359,-2.1128,-2.0876,-2.0624,-2.0313,-1.9806,-1.9353,-1.8834,-1.8175,-1.761,-1.7383,-1.7057,-1.6812,-1.6648,-1.6648,-1.6648,-1.673,-1.6648,-1.6484,-1.6402,-1.6319,-1.6252,-3.777,-3.7716,-3.7476,-3.7449,-3.7512,-3.7512,-3.748,-3.748,-3.7181,-3.6816,-3.6538,-3.6507,-3.6507,-3.6507,-3.6507,-3.6599,-3.663,-3.6505,-3.6654,-3.717,-3.7485,-3.8016,-3.8451,-3.8832,-3.9032,-3.932,-3.9409,-3.9409,-3.932,-3.877,-3.8389,-3.7706,-3.7054,-3.6606,-3.6522,-3.5395,-3.4334,-3.3584,-3.2948,-3.2326,-3.173,-3.1235,-3.1026,-3.0973,-3.0869,-3.0634,-3.0372,-2.9954,-2.9745,-2.9614,-2.9431,-2.9588,-3.0059,-3.0137,-3.0372,-3.0843,-3.0895,-3.0921,-3.0973,-3.0849,-3.047,-3.0088,-2.9521,-2.8973,-2.8235,-2.7452,-2.6715,-2.6113,-2.5204,-2.4238,-2.3468,-2.2791,-2.2335,-2.2004,-2.1859,-2.1818,-2.1818,-2.1818,-2.1818,-2.1818,-2.1818,-2.1818,-2.1818,-2.1818,-2.1818,-2.1818,-2.1818,-2.1818,-2.1818,-2.1741,-2.1645,-2.1589,-2.1436,-2.1205,-2.0974,-2.0722,-2.0489,-2.0177,-1.9784,-1.9231,-1.8754,-1.8112,-1.7708,-1.74,-1.7057,-1.673,-1.6648,-1.6648,-1.6566,-1.6402,-1.6402,-1.6319,-1.6154,-1.6087,-1.6087,-3.651,-3.6317,-3.6147,-3.6342,-3.6817,-3.7291,-3.748,-3.7421,-3.7121,-3.6816,-3.6538,-3.6507,-3.6507,-3.6507,-3.6507,-3.6507,-3.6476,-3.6289,-3.644,-3.6432,-3.6869,-3.7007,-3.7571,-3.8282,-3.8721,-3.8871,-3.905,-3.905,-3.8691,-3.8262,-3.7783,-3.7175,-3.6054,-3.5554,-3.5413,-3.4732,-3.3963,-3.3127,-3.2528,-3.2011,-3.1313,-3.1078,-3.0973,-3.0947,-3.0634,-3.032,-2.998,-2.9483,-2.9118,-2.9065,-2.8908,-2.8987,-2.9431,-2.9562,-2.9823,-3.0294,-3.0424,-3.0559,-3.0618,-3.0546,-3.0164,-2.9779,-2.9365,-2.8816,-2.8179,-2.7371,-2.6655,-2.5859,-2.4949,-2.409,-2.3387,-2.277,-2.2335,-2.1963,-2.1818,-2.1818,-2.1818,-2.1818,-2.1818,-2.1818,-2.1818,-2.1818,-2.1818,-2.1797,-2.1797,-2.1721,-2.1721,-2.1721,-2.1721,-2.1645,-2.1568,-2.1436,-2.1282,-2.0974,-2.0741,-2.0411,-2.0098,-1.9687,-1.9311,-1.8913,-1.8434,-1.787,-1.7546,-1.7221,-1.6894,-1.6648,-1.6566,-1.6402,-1.6237,-1.6072,-1.6154,-1.6072,-1.5906,-1.5922,-1.5922,-3.586,-3.5641,-3.5506,-3.5647,-3.6153,-3.6817,-3.7227,-3.7298,-3.7121,-3.6816,-3.66,-3.6569,-3.6507,-3.6507,-3.6507,-3.6507,-3.6476,-3.6226,-3.61,-3.6095,-3.6411,-3.661,-3.6993,-3.7494,-3.7973,-3.8212,-3.8392,-3.8422,-3.7993,-3.7615,-3.6832,-3.5758,-3.4852,-3.4356,-3.4147,-3.368,-3.3227,-3.2482,-3.1973,-3.1593,-3.1179,-3.0947,-3.0869,-3.0634,-3.032,-2.9954,-2.9431,-2.8908,-2.8438,-2.8543,-2.8464,-2.8386,-2.8778,-2.9039,-2.9274,-2.9568,-2.9658,-2.9844,-2.9956,-2.9884,-2.9554,-2.9341,-2.9028,-2.8474,-2.7914,-2.7044,-2.6311,-2.5557,-2.4695,-2.384,-2.3078,-2.2563,-2.219,-2.1818,-2.1818,-2.1818,-2.1818,-2.1818,-2.1818,-2.1818,-2.1818,-2.1818,-2.1818,-2.1797,-2.1797,-2.1721,-2.1645,-2.1645,-2.1645,-2.1512,-2.1359,-2.1205,-2.0974,-2.0644,-2.0333,-2.002,-1.9627,-1.9134,-1.8834,-1.8434,-1.8112,-1.7627,-1.7302,-1.6976,-1.673,-1.6484,-1.6319,-1.617,-1.5989,-1.5922,-1.5839,-1.5756,-1.5575,-1.5658,-1.5756,-3.5819,-3.5687,-3.5443,-3.53,-3.5489,-3.609,-3.6636,-3.7053,-3.6904,-3.6691,-3.6569,-3.6322,-3.6261,-3.6384,-3.6415,-3.6445,-3.6414,-3.6163,-3.6037,-3.6122,-3.6375,-3.6424,-3.6686,-3.7165,-3.7524,-3.7494,-3.7515,-3.7625,-3.7168,-3.6487,-3.5497,-3.4445,-3.3902,-3.3409,-3.3079,-3.2718,-3.2399,-3.2005,-3.1607,-3.1329,-3.1075,-3.0869,-3.0634,-3.032,-2.9928,-2.9379,-2.8856,-2.836,-2.8046,-2.7863,-2.7628,-2.7915,-2.815,-2.8333,-2.8656,-2.8827,-2.8795,-2.9087,-2.9173,-2.905,-2.8897,-2.8729,-2.8354,-2.7867,-2.7325,-2.6685,-2.5909,-2.5044,-2.4147,-2.336,-2.2662,-2.2252,-2.1901,-2.1818,-2.1818,-2.1818,-2.1818,-2.1818,-2.1818,-2.1818,-2.1818,-2.1818,-2.1741,-2.1721,-2.1645,-2.1512,-2.1436,-2.1359,-2.1282,-2.1282,-2.1128,-2.0876,-2.0644,-2.0333,-2.002,-1.9548,-1.9134,-1.8656,-1.8273,-1.7951,-1.7627,-1.7286,-1.6976,-1.6648,-1.6484,-1.6319,-1.6072,-1.5906,-1.5824,-1.5756,-1.5673,-1.5673,-1.5575,-1.5575,-1.559,-3.4716,-3.4406,-3.4176,-3.427,-3.4668,-3.5363,-3.5691,-3.5702,-3.556,-3.5443,-3.5267,-3.512,-3.543,-3.5737,-3.5768,-3.6076,-3.6198,-3.6226,-3.6037,-3.6118,-3.6285,-3.6424,-3.6656,-3.6985,-3.7285,-3.7276,-3.7178,-3.6871,-3.6319,-3.5554,-3.4553,-3.3633,-3.3326,-3.2874,-3.2516,-3.2182,-3.1863,-3.1643,-3.1246,-3.1097,-3.0817,-3.0607,-3.0294,-2.998,-2.9327,-2.8778,-2.8412,-2.7968,-2.7706,-2.7602,-2.7456,-2.7613,-2.7504,-2.7608,-2.7841,-2.8202,-2.8492,-2.8733,-2.8667,-2.8674,-2.842,-2.8004,-2.7608,-2.7472,-2.6955,-2.6273,-2.5436,-2.4535,-2.3705,-2.2945,-2.2475,-2.2087,-2.1859,-2.1818,-2.1818,-2.1818,-2.1818,-2.1818,-2.1818,-2.1741,-2.1741,-2.1665,-2.1665,-2.1589,-2.1512,-2.1359,-2.1205,-2.1051,-2.0974,-2.0896,-2.0819,-2.0586,-2.0255,-1.9863,-1.9371,-1.8993,-1.8576,-1.8095,-1.7708,-1.7383,-1.7057,-1.6812,-1.6566,-1.6319,-1.6154,-1.5989,-1.5824,-1.5741,-1.5658,-1.5658,-1.559,-1.5575,-1.5575,-1.5492,-1.5423,-3.43,-3.3949,-3.3642,-3.3636,-3.3941,-3.4383,-3.4486,-3.4471,-3.4773,-3.4852,-3.4736,-3.4623,-3.4845,-3.543,-3.5553,-3.583,-3.6476,-3.6163,-3.5973,-3.6031,-3.6105,-3.6064,-3.6267,-3.6477,-3.6507,-3.6589,-3.6454,-3.6022,-3.5427,-3.4553,-3.3675,-3.3396,-3.3114,-3.266,-3.2255,-3.1863,-3.1409,-3.1235,-3.1014,-3.0865,-3.0555,-3.0241,-2.998,-2.9405,-2.8621,-2.836,-2.8072,-2.7654,-2.7509,-2.7456,-2.7456,-2.7456,-2.7281,-2.724,-2.713,-2.7411,-2.7449,-2.7708,-2.7745,-2.7557,-2.748,-2.7244,-2.683,-2.6424,-2.6018,-2.5392,-2.4749,-2.4025,-2.3245,-2.2574,-2.2268,-2.1983,-2.1901,-2.1818,-2.1818,-2.1818,-2.1818,-2.1818,-2.1741,-2.1665,-2.1665,-2.1512,-2.1492,-2.1436,-2.1262,-2.1031,-2.0799,-2.0586,-2.0508,-2.0508,-2.0352,-2.0117,-1.9706,-1.9311,-1.8834,-1.8434,-1.7934,-1.7448,-1.7123,-1.6812,-1.6484,-1.6402,-1.6237,-1.6004,-1.5756,-1.5741,-1.5741,-1.5658,-1.559,-1.559,-1.5506,-1.5492,-1.5492,-1.5409,-1.5257,-3.4203,-3.3874,-3.3598,-3.3351,-3.3309,-3.3403,-3.3403,-3.3382,-3.4272,-3.4691,-3.4602,-3.4434,-3.4506,-3.4937,-3.5183,-3.5645,-3.6107,-3.6072,-3.5973,-3.5973,-3.5774,-3.5669,-3.5639,-3.5549,-3.5783,-3.5574,-3.5317,-3.5288,-3.4612,-3.3882,-3.3396,-3.3185,-3.2478,-3.1965,-3.1721,-3.1269,-3.0738,-3.0454,-3.0467,-3.0424,-3.0111,-2.9876,-2.951,-2.8647,-2.8281,-2.8072,-2.7706,-2.7456,-2.7456,-2.7456,-2.7456,-2.739,-2.7188,-2.685,-2.6764,-2.6653,-2.6621,-2.6656,-2.6763,-2.6577,-2.6334,-2.6178,-2.589,-2.531,-2.4803,-2.4635,-2.4089,-2.3502,-2.2772,-2.2289,-2.1983,-2.1921,-2.1838,-2.1818,-2.1818,-2.1818,-2.1818,-2.1741,-2.1665,-2.1589,-2.1512,-2.1359,-2.1205,-2.1128,-2.0876,-2.0644,-2.0411,-2.0177,-1.9942,-1.996,-1.9803,-1.9548,-1.9231,-1.8754,-1.8256,-1.7772,-1.7302,-1.6812,-1.6566,-1.6402,-1.6335,-1.617,-1.6004,-1.5839,-1.5741,-1.5658,-1.5658,-1.5658,-1.5673,-1.5673,-1.559,-1.5423,-1.5325,-1.5173,-1.4922,-3.3102,-3.2751,-3.267,-3.2875,-3.3277,-3.3309,-3.3309,-3.3287,-3.3302,-3.3443,-3.3357,-3.3166,-3.3336,-3.4044,-3.4568,-3.5091,-3.5615,-3.5858,-3.6006,-3.5879,-3.5653,-3.5489,-3.5489,-3.5489,-3.5394,-3.5228,-3.503,-3.4522,-3.3887,-3.3394,-3.296,-3.2522,-3.182,-3.1334,-3.0949,-3.0421,-3.0032,-2.9652,-2.966,-2.9666,-2.9431,-2.9013,-2.8543,-2.8229,-2.8046,-2.7785,-2.7456,-2.7456,-2.7456,-2.7456,-2.7456,-2.7348,-2.7079,-2.6602,-2.6327,-2.6258,-2.6119,-2.6033,-2.5847,-2.5707,-2.5421,-2.4919,-2.4507,-2.3971,-2.366,-2.3656,-2.3457,-2.2822,-2.2443,-2.2081,-2.1859,-2.1838,-2.1818,-2.1818,-2.1818,-2.1818,-2.1818,-2.1665,-2.1589,-2.1436,-2.1359,-2.1205,-2.0974,-2.0741,-2.0489,-2.0255,-1.9942,-1.9627,-1.9311,-1.9152,-1.9073,-1.8834,-1.8656,-1.8256,-1.7691,-1.7302,-1.6894,-1.6648,-1.6402,-1.6252,-1.6087,-1.6004,-1.5906,-1.5906,-1.5824,-1.5741,-1.5741,-1.5922,-1.5839,-1.5756,-1.5409,-1.5159,-1.4853,-1.4614,-1.4432,-3.2752,-3.24,-3.2498,-3.2609,-3.2887,-3.3151,-3.3309,-3.3256,-3.2989,-3.2912,-3.2858,-3.264,-3.2752,-3.3336,-3.3829,-3.4383,-3.5,-3.5462,-3.5521,-3.5485,-3.5537,-3.5619,-3.5489,-3.5335,-3.4996,-3.4777,-3.3973,-3.3339,-3.3004,-3.2386,-3.182,-3.1553,-3.0918,-3.0432,-2.9979,-2.9618,-2.9232,-2.8908,-2.8882,-2.8778,-2.8673,-2.8386,-2.815,-2.7994,-2.7732,-2.7456,-2.7456,-2.7456,-2.7456,-2.7456,-2.7456,-2.7281,-2.7011,-2.6602,-2.6327,-2.6119,-2.591,-2.5606,-2.5346,-2.4944,-2.4449,-2.3908,-2.3115,-2.2612,-2.2258,-2.2315,-2.2478,-2.2017,-2.2137,-2.1838,-2.1838,-2.1818,-2.1818,-2.1818,-2.1818,-2.1741,-2.1665,-2.1589,-2.1359,-2.1128,-2.0974,-2.0819,-2.0586,-2.0274,-2.002,-1.9784,-1.9469,-1.9073,-1.8754,-1.8434,-1.8273,-1.8175,-1.8014,-1.7691,-1.7221,-1.6894,-1.6648,-1.6417,-1.6252,-1.617,-1.6087,-1.5989,-1.5906,-1.5824,-1.5824,-1.5741,-1.5824,-1.5839,-1.5741,-1.5492,-1.5159,-1.481,-1.453,-1.4188,-1.4097,-3.2573,-3.236,-3.2305,-3.2378,-3.2482,-3.295,-3.3214,-3.3256,-3.2989,-3.2912,-3.2827,-3.2578,-3.2782,-3.309,-3.3429,-3.386,-3.4324,-3.485,-3.4912,-3.4971,-3.5148,-3.4958,-3.4951,-3.4877,-3.4392,-3.375,-3.2919,-3.2291,-3.1829,-3.14,-3.0993,-3.0391,-2.9966,-2.9635,-2.9425,-2.9153,-2.8726,-2.8386,-2.8203,-2.802,-2.7968,-2.7994,-2.7889,-2.768,-2.7456,-2.7456,-2.7456,-2.7456,-2.7456,-2.7456,-2.7416,-2.7214,-2.6943,-2.6602,-2.6233,-2.5955,-2.5606,-2.5324,-2.4945,-2.419,-2.3675,-2.3049,-2.2084,-2.1468,-2.1258,-2.1147,-2.1334,-2.1565,-2.1665,-2.1756,-2.1756,-2.1818,-2.1818,-2.1741,-2.1741,-2.1665,-2.1589,-2.1436,-2.1205,-2.0896,-2.0664,-2.0411,-2.0098,-1.9803,-1.9469,-1.9231,-1.8913,-1.8514,-1.8112,-1.7951,-1.7789,-1.7627,-1.7448,-1.7057,-1.673,-1.6648,-1.6566,-1.6484,-1.6335,-1.617,-1.6087,-1.6072,-1.5989,-1.5824,-1.5741,-1.5824,-1.5575,-1.5506,-1.5409,-1.5228,-1.4727,-1.4334,-1.4242,-1.4004,-1.3824,-3.1649,-3.1438,-3.1158,-3.1582,-3.2342,-3.2475,-3.2771,-3.3193,-3.2989,-3.2912,-3.2827,-3.2578,-3.2505,-3.2628,-3.3213,-3.3552,-3.3675,-3.4145,-3.4271,-3.4243,-3.4394,-3.4149,-3.3963,-3.3891,-3.3343,-3.2762,-3.2169,-3.1809,-3.1078,-3.0821,-3.0583,-3.0023,-2.9429,-2.8955,-2.8602,-2.8281,-2.7968,-2.7811,-2.7785,-2.768,-2.7654,-2.7654,-2.7628,-2.7482,-2.7456,-2.7456,-2.7456,-2.7456,-2.7456,-2.7456,-2.7416,-2.7214,-2.6875,-2.6508,-2.6094,-2.5676,-2.5324,-2.4897,-2.4376,-2.3743,-2.3208,-2.2332,-2.1468,-2.0892,-2.0685,-2.0407,-2.0728,-2.1125,-2.1321,-2.1549,-2.1631,-2.1776,-2.1741,-2.1665,-2.1665,-2.1436,-2.1282,-2.1128,-2.0896,-2.0586,-2.0255,-2.002,-1.9706,-1.9311,-1.8834,-1.8576,-1.8256,-1.787,-1.7708,-1.7465,-1.7302,-1.7139,-1.6976,-1.6812,-1.673,-1.673,-1.6648,-1.6484,-1.6402,-1.6237,-1.6237,-1.6237,-1.6057,-1.5741,-1.5824,-1.5906,-1.5658,-1.5075,-1.4908,-1.4657,-1.4153,-1.3867,-1.378,-1.3811,-1.3698]},{"header":{"parameterUnit":"m.s-1","parameterCategory":1,"la1":31.0,"la2":29.5877,"lo1":-88.7671,"lo2":-86.6584,"dy":0.0162,"dx":0.0185,"nx":115,"ny":88,"refTime":"2023-08-07T00:00:00:Z","depth":0,"parameterNumber":3,"parameterNumberName":"V-component_of_WINDS"},"data":[0.0,0.0,0.0,0.0,0.0,0.0,0.0,0.0,0.0,0.0,0.0,0.0,0.0,0.0,0.0,0.0,0.0,0.0,0.0,0.0,0.0,0.0,0.0,0.0,0.0,0.0,0.0,0.0,0.0,0.0,0.0,0.0,0.0,0.0,0.0,0.0,0.0,0.0,0.0,0.0,0.0,0.0,0.0,0.0,0.0,0.0,0.0,0.0,0.0,0.0,0.0,0.0,0.0,0.0,0.0,0.0,0.0,0.0,0.0,0.0,0.0,0.0,0.0,0.0,0.0,0.0,0.0,0.0,0.0,0.0,0.0,0.0,0.0,0.0,0.0,0.0,0.0,0.0,0.0,0.0,0.0,0.0,0.0,0.0,0.0,0.0,0.0,0.0,0.0,0.0,0.0,0.0,0.0,0.0,0.0,0.0,0.0,0.0,0.0,0.0,0.0,0.0,0.0,0.0,0.0,0.0,0.0,0.0,0.0,0.0,0.0,0.0,0.0,0.0,0.0,0.0,0.0,0.0,0.0,0.0,0.0,0.0,0.0,0.0,0.0,0.0,0.0,0.0,0.0,0.0,0.0,0.0,0.0,0.0,0.0,0.0,0.0,0.0,0.0,0.0,0.0,0.0,0.0,0.0,0.0,0.0,0.0,0.0,0.0,0.0,0.0,0.0,0.0,0.0,0.0,0.0,0.0,0.0,0.0,0.0,0.0,0.0,0.0,0.0,0.0,0.0,0.0,0.0,0.0,0.0,0.0,0.0,0.0,0.0,0.0,0.0,0.0,0.0,0.0,0.0,0.0,0.0,0.0,0.0,0.0,0.0,0.0,0.0,0.0,0.0,0.0,0.0,0.0,0.0,0.0,0.0,0.0,0.0,0.0,0.0,0.0,0.0,0.0,0.0,0.0,0.0,0.0,0.0,0.0,0.0,0.0,0.0,0.0,0.0,0.0,0.0,0.0,0.0,0.0,0.0,0.0,0.0,0.0,0.0,0.0,0.0,0.0,0.0,0.0,0.0,0.0,0.0,0.0,0.0,0.0,0.0,0.0,0.0,0.0,0.0,0.0,0.0,0.0,0.0,0.0,0.0,0.0,0.0,0.0,0.0,0.0,0.0,0.0,0.0,0.0,0.0,0.0,0.0,0.0,0.0,0.0,0.0,0.0,0.0,0.0,0.0,0.0,0.0,0.0,0.0,0.0,0.0,0.0,0.0,0.0,0.0,0.0,0.0,0.0,0.0,0.0,0.0,0.0,0.0,0.0,0.0,0.0,0.0,0.0,0.0,0.0,0.0,0.0,0.0,0.0,0.0,0.0,0.0,0.0,0.0,0.0,0.0,0.0,0.0,0.0,0.0,0.0,0.0,0.0,0.0,0.0,0.0,0.0,0.0,0.0,0.0,0.0,0.0,0.0,0.0,0.0,0.0,0.0,0.0,0.0,0.0,0.0,0.0,0.0,0.0,0.0,0.0,0.0,0.0,0.0,0.0,0.0,0.0,0.0,0.0,0.0,0.0,0.0,0.0,0.0,0.0,0.0,0.0,0.0,0.0,0.0,0.0,0.0,0.0,0.0,0.0,0.0,0.0,0.0,0.0,0.0,0.0,0.0,0.0,0.0,0.0,0.0,0.0,0.0,0.0,0.0,0.0,0.0,0.0,0.0,0.0,0.0,0.0,0.0,0.0,0.0,0.0,0.0,0.0,0.0,0.0,0.0,0.0,0.0,0.0,0.0,0.0,0.0,0.0,0.0,0.0,0.0,0.0,0.0,0.0,0.0,0.0,0.0,0.0,0.0,0.0,0.0,0.0,0.0,0.0,0.0,0.0,0.0,0.0,0.0,0.0,0.0,0.0,0.0,0.0,0.0,0.0,0.0,0.0,0.0,0.0,0.0,0.0,0.0,0.0,0.0,0.0,0.0,0.0,0.0,0.0,0.0,0.0,0.0,0.0,0.0,0.0,0.0,0.0,0.0,0.0,0.0,0.0,0.0,0.0,0.0,0.0,0.0,0.0,0.0,0.0,0.0,0.0,0.0,0.0,0.0,0.0,0.0,0.0,0.0,0.0,0.0,0.0,0.0,0.0,0.0,0.0,0.0,0.0,0.0,0.0,0.0,0.0,0.0,0.0,0.0,0.0,0.0,0.0,0.0,0.0,0.0,0.0,0.0,0.0,0.0,0.0,0.0,0.0,0.0,0.0,0.0,0.0,0.0,0.0,0.0,0.0,0.0,0.0,0.0,0.0,0.0,0.0,0.0,0.0,0.0,0.0,0.0,0.0,0.0,0.0,0.0,0.0,0.0,0.0,0.0,0.0,0.0,0.0,0.0,0.0,0.0,0.0,0.0,0.0,0.0,0.0,0.0,0.0,0.0,0.0,0.0,0.0,0.0,0.0,0.0,0.0,0.0,0.0,0.0,0.0,0.0,0.0,0.0,0.0,0.0,0.0,0.0,0.0,0.0,0.0,0.0,0.0,0.0,0.0,0.0,0.0,0.0,0.0,0.0,0.0,0.0,0.0,0.0,0.0,0.0,0.0,0.0,0.0,0.0,0.0,0.0,0.0,0.0,0.0,0.0,0.0,0.0,0.0,0.0,0.0,0.0,0.0,0.0,0.0,0.0,0.0,0.0,0.0,0.0,0.0,0.0,0.0,0.0,0.0,0.0,0.0,0.0,0.0,0.0,0.0,0.0,0.0,0.0,0.0,0.0,0.0,0.0,0.0,0.0,0.0,0.0,0.0,0.0,0.0,0.0,0.0,0.0,0.0,0.0,0.0,0.0,0.0,0.0,0.0,0.0,0.0,0.0,0.0,0.0,0.0,0.0,0.0,0.0,0.0,0.0,0.0,0.0,0.0,0.0,0.0,0.0,0.0,0.0,0.0,0.0,0.0,0.0,0.0,0.0,0.0,0.0,0.0,0.0,0.0,0.0,0.0,0.0,0.0,0.0,0.0,0.0,0.0,0.0,0.0,0.0,0.0,0.0,0.0,0.0,0.0,0.0,0.0,0.0,0.0,0.0,0.0,0.0,0.0,0.0,0.0,0.0,0.0,0.0,0.0,0.0,0.0,0.0,0.0,0.0,0.0,0.0,0.0,0.0,0.0,0.0,0.0,0.0,0.0,0.0,0.0,0.0,0.0,0.0,0.0,0.0,0.0,0.0,0.0,0.0,0.0,0.0,0.0,0.0,0.0,0.0,0.0,0.0,0.0,0.0,0.0,0.0,0.0,0.0,0.0,0.0,0.0,0.0,0.0,0.0,0.0,0.0,0.0,0.0,0.0,0.0,0.0,0.0,0.0,0.0,0.0,0.0,0.0,0.0,0.0,0.0,0.0,0.0,0.0,0.0,0.0,0.0,0.0,0.0,0.0,0.0,0.0,0.0,0.0,0.0,0.0,0.0,0.0,0.0,0.0,0.0,0.0,0.0,0.0,0.0,0.0,0.0,0.0,0.0,0.0,0.0,0.0,0.0,0.0,0.0,0.0,0.0,0.0,0.0,0.0,0.0,0.0,0.0,0.0,0.0,0.0,0.0,0.0,0.0,0.0,0.0,0.0,0.0,0.0,0.0,0.0,0.0,0.0,0.0,0.0,0.0,0.0,0.0,0.0,0.0,0.0,0.0,0.0,0.0,0.0,0.0,0.0,0.0,0.0,0.0,0.0,0.0,0.0,0.0,0.0,0.0,0.0,0.0,0.0,0.0,0.0,0.0,0.0,0.0,0.0,0.0,0.0,0.0,0.0,0.0,0.0,0.0,0.0,0.0,0.0,0.0,0.0,0.0,0.0,0.0,0.0,0.0,0.0,0.0,0.0,0.0,0.0,0.0,0.0,0.0,0.0,0.0,0.0,0.0,0.0,0.0,0.0,0.0,0.0,0.0,0.0,0.0,0.0,0.0,0.0,0.0,0.0,0.0,0.0,0.0,0.0,0.0,0.0,0.0,0.0,0.0,0.0,0.0,0.0,0.0,0.0,0.0,0.0,0.0,0.0,0.0,0.0,0.0,0.0,0.0,0.0,0.0,0.0,0.0,0.0,0.0,0.0,0.0,0.0,0.0,0.0,0.0,0.0,0.0,0.0,0.0,0.0,0.0,0.0,0.0,0.0,0.0,0.0,0.0,0.0,0.0,0.0,0.0,0.0,0.0,0.0,0.0,0.0,0.0,0.0,0.0,0.0,0.0,0.0,0.0,0.0,0.0,0.0,0.0,0.0,0.0,0.0,0.0,0.0,0.0,0.0,0.0,0.0,0.0,0.0,0.0,0.0,0.0,0.0,0.0,0.0,-0.7066,0.0,0.0,0.0,0.0,0.0,0.0,0.0,0.0,0.0,0.0,0.0,0.0,0.0,0.0,0.0,0.0,0.0,0.0,0.0,0.0,0.0,0.0,0.0,0.0,0.0,0.0,0.0,0.0,0.0,0.0,0.0,0.0,0.0,0.0,0.0,0.0,0.0,0.0,0.0,0.0,0.0,0.0,0.0,0.0,0.0,0.0,0.0,0.0,0.0,0.0,0.0,0.0,0.0,0.0,0.0,0.0,0.0,0.0,0.0,0.0,0.0,0.0,0.0,0.0,0.0,0.0,0.0,0.0,0.0,0.0,0.0,0.0,0.0,0.0,0.0,0.0,0.0,0.0,0.0,0.0,0.0,0.0,0.0,0.0,0.0,0.0,0.0,0.0,0.0,0.0,0.0,0.0,0.0,0.0,0.0,0.0,0.0,0.0,0.0,0.0,0.0,0.0,0.0,0.0,0.0,0.0,0.0,0.0,0.0,0.0,-0.8167,-0.8492,-0.8562,-0.8391,-0.8169,0.0,0.0,0.0,0.0,0.0,0.0,0.0,0.0,0.0,0.0,0.0,0.0,0.0,0.0,0.0,0.0,0.0,0.0,0.0,0.0,0.0,0.0,0.0,0.0,0.0,0.0,0.0,0.0,0.0,0.0,0.0,0.0,0.0,0.0,0.0,0.0,0.0,0.0,0.0,0.0,0.0,0.0,0.0,0.0,0.0,0.0,0.0,0.0,0.0,0.0,0.0,0.0,0.0,0.0,0.0,0.0,0.0,0.0,0.0,0.0,0.0,0.0,0.0,0.0,0.0,0.0,0.0,0.0,0.0,0.0,0.0,0.0,0.0,0.0,0.0,0.0,0.0,0.0,0.0,0.0,0.0,0.0,0.0,0.0,0.0,0.0,0.0,0.0,0.0,0.0,0.0,0.0,0.0,0.0,0.0,0.0,0.0,0.0,0.0,0.0,0.0,0.0,0.0,0.0,0.0,0.0,0.0,0.0,0.0,0.0,0.0,0.0,-0.9645,-0.95,-0.9332,0.0,0.0,0.0,0.0,0.0,0.0,0.0,0.0,0.0,0.0,0.0,0.0,0.0,0.0,0.0,0.0,0.0,0.0,0.0,0.0,0.0,0.0,0.0,0.0,0.0,0.0,0.0,0.0,0.0,0.0,0.0,0.0,0.0,0.0,0.0,0.0,0.0,0.0,0.0,0.0,0.0,0.0,0.0,0.0,0.0,0.0,0.0,0.0,0.0,0.0,0.0,0.0,0.0,0.0,0.0,0.0,0.0,0.0,0.0,0.0,0.0,0.0,0.0,0.0,0.0,0.0,0.0,0.0,0.0,0.0,0.0,0.0,0.0,0.0,0.0,0.0,0.0,0.0,0.0,0.0,0.0,0.0,0.0,0.0,0.0,0.0,0.0,0.0,0.0,0.0,0.0,0.0,0.0,0.0,0.0,0.0,0.0,0.0,0.0,0.0,0.0,0.0,0.0,0.0,0.0,0.0,0.0,0.0,0.0,0.0,-1.0599,-1.0695,-1.0695,0.0,-1.0546,0.0,0.0,0.0,0.0,0.0,0.0,0.0,0.0,0.0,0.0,0.0,0.0,0.0,0.0,0.0,0.0,0.0,0.0,0.0,0.0,0.0,0.0,0.0,0.0,0.0,0.0,0.0,0.0,0.0,0.0,0.0,0.0,0.0,0.0,0.0,0.0,0.0,0.0,0.0,0.0,0.0,0.0,0.0,0.0,0.0,0.0,0.0,0.0,0.0,0.0,0.0,0.0,0.0,0.0,0.0,0.0,0.0,0.0,0.0,0.0,0.0,0.0,0.0,0.0,0.0,0.0,0.0,0.0,0.0,0.0,0.0,0.0,0.0,0.0,0.0,0.0,0.0,0.0,0.0,0.0,0.0,0.0,0.0,0.0,0.0,0.0,0.0,0.0,0.0,0.0,0.0,0.0,0.0,0.0,0.0,0.0,0.0,0.0,0.0,0.0,0.0,0.0,0.0,0.0,0.0,0.0,0.0,0.0,0.0,0.0,-1.1531,-1.1789,-1.1784,-1.1637,0.0,0.0,0.0,0.0,0.0,0.0,0.0,0.0,0.0,0.0,0.0,0.0,0.0,0.0,0.0,0.0,0.0,0.0,0.0,0.0,0.0,0.0,0.0,0.0,0.0,0.0,0.0,0.0,0.0,0.0,0.0,0.0,0.0,0.0,0.0,0.0,0.0,0.0,0.0,0.0,0.0,0.0,0.0,0.0,0.0,0.0,0.0,0.0,0.0,0.0,0.0,0.0,0.0,0.0,0.0,0.0,0.0,0.0,0.0,0.0,0.0,0.0,0.0,0.0,0.0,0.0,0.0,0.0,0.0,0.0,0.0,0.0,0.0,0.0,0.0,0.0,0.0,0.0,0.0,0.0,0.0,0.0,0.0,0.0,0.0,0.0,0.0,0.0,0.0,0.0,0.0,0.0,0.0,0.0,0.0,0.0,0.0,0.0,0.0,0.0,0.0,0.0,0.0,0.0,0.0,0.0,0.0,0.0,0.0,0.0,-1.206,-1.2506,-1.2889,-1.2887,-1.2666,-1.2398,0.0,0.0,0.0,0.0,0.0,0.0,0.0,0.0,0.0,0.0,0.0,0.0,0.0,0.0,0.0,0.0,0.0,0.0,0.0,0.0,0.0,0.0,0.0,0.0,0.0,0.0,0.0,0.0,0.0,0.0,0.0,0.0,0.0,0.0,0.0,0.0,0.0,0.0,0.0,0.0,0.0,0.0,0.0,0.0,0.0,0.0,0.0,0.0,0.0,0.0,0.0,0.0,0.0,0.0,0.0,0.0,0.0,0.0,0.0,0.0,0.0,0.0,0.0,0.0,0.0,0.0,0.0,0.0,0.0,0.0,0.0,0.0,0.0,0.0,0.0,0.0,0.0,0.0,0.0,0.0,0.0,0.0,0.0,0.0,0.0,0.0,0.0,0.0,0.0,0.0,0.0,0.0,0.0,0.0,0.0,0.0,0.0,0.0,0.0,0.0,0.0,0.0,0.0,0.0,0.0,0.0,0.0,0.0,-1.2924,-1.3153,-1.3481,-1.3789,-1.3892,-1.38,0.0,0.0,0.0,0.0,0.0,0.0,0.0,0.0,0.0,0.0,0.0,0.0,0.0,0.0,0.0,0.0,0.0,0.0,0.0,0.0,0.0,0.0,0.0,0.0,0.0,0.0,0.0,0.0,0.0,0.0,0.0,0.0,0.0,0.0,0.0,0.0,0.0,0.0,0.0,0.0,0.0,0.0,0.0,0.0,0.0,0.0,0.0,0.0,0.0,0.0,0.0,0.0,0.0,0.0,0.0,0.0,0.0,0.0,0.0,0.0,0.0,0.0,0.0,0.0,0.0,0.0,0.0,0.0,0.0,0.0,0.0,0.0,0.0,0.0,0.0,0.0,0.0,0.0,0.0,0.0,0.0,0.0,0.0,0.0,0.0,0.0,0.0,0.0,0.0,0.0,0.0,0.0,0.0,0.0,0.0,0.0,0.0,0.0,0.0,0.0,0.0,0.0,0.0,0.0,0.0,0.0,0.0,0.0,0.0,-1.3517,-1.3921,-1.4309,-1.4443,-1.4495,-1.4261,0.0,0.0,0.0,0.0,0.0,0.0,0.0,0.0,0.0,0.0,0.0,0.0,0.0,0.0,0.0,0.0,0.0,0.0,0.0,0.0,0.0,0.0,0.0,0.0,0.0,0.0,0.0,0.0,0.0,0.0,0.0,0.0,0.0,0.0,0.0,0.0,0.0,0.0,0.0,0.0,0.0,0.0,0.0,0.0,0.0,0.0,0.0,0.0,0.0,0.0,0.0,0.0,0.0,0.0,0.0,0.0,0.0,0.0,0.0,0.0,0.0,0.0,0.0,0.0,0.0,0.0,0.0,0.0,0.0,0.0,0.0,0.0,0.0,0.0,0.0,0.0,0.0,0.0,0.0,0.0,0.0,0.0,0.0,0.0,0.0,0.0,0.0,0.0,0.0,0.0,0.0,0.0,0.0,0.0,0.0,0.0,0.0,0.0,0.0,0.0,0.0,0.0,0.0,0.0,0.0,0.0,0.0,0.0,0.0,-1.4067,0.0,-1.4801,-1.5004,-1.4874,-1.4652,0.0,0.0,0.0,0.0,0.0,0.0,0.0,0.0,0.0,0.0,0.0,0.0,0.0,0.0,0.0,0.0,0.0,0.0,0.0,0.0,0.0,0.0,0.0,0.0,0.0,0.0,0.0,0.0,0.0,0.0,0.0,0.0,0.0,0.0,0.0,0.0,0.0,0.0,0.0,0.0,0.0,0.0,0.0,0.0,0.0,0.0,0.0,0.0,0.0,0.0,0.0,0.0,0.0,0.0,0.0,0.0,0.0,0.0,0.0,0.0,0.0,0.0,0.0,0.0,0.0,0.0,0.0,0.0,0.0,0.0,0.0,0.0,0.0,0.0,0.0,0.0,0.0,0.0,0.0,0.0,0.0,0.0,0.0,0.0,0.0,0.0,0.0,0.0,0.0,0.0,0.0,0.0,0.0,0.0,0.0,0.0,0.0,0.0,0.0,0.0,0.0,0.0,0.0,0.0,0.0,0.0,0.0,0.0,-1.4229,-1.4724,-1.4874,-1.5131,-1.5394,-1.5208,-1.485,0.0,0.0,0.0,0.0,0.0,0.0,0.0,0.0,0.0,0.0,0.0,0.0,0.0,0.0,0.0,0.0,0.0,0.0,0.0,0.0,0.0,0.0,0.0,0.0,0.0,0.0,0.0,0.0,0.0,0.0,0.0,0.0,0.0,0.0,0.0,0.0,0.0,0.0,0.0,0.0,0.0,0.0,0.0,0.0,0.0,0.0,0.0,0.0,0.0,0.0,0.0,0.0,0.0,0.0,0.0,0.0,0.0,0.0,0.0,0.0,0.0,0.0,0.0,0.0,0.0,0.0,0.0,0.0,0.0,0.0,0.0,0.0,0.0,0.0,0.0,0.0,0.0,0.0,0.0,0.0,0.0,0.0,0.0,0.0,0.0,0.0,0.0,0.0,0.0,0.0,0.0,0.0,0.0,0.0,0.0,0.0,0.0,0.0,0.0,0.0,0.0,0.0,0.0,0.0,0.0,0.0,0.0,0.0,0.0,-1.5589,-1.5604,-1.5742,-1.5985,-1.598,-1.5717,0.0,0.0,0.0,0.0,0.0,0.0,0.0,0.0,0.0,0.0,0.0,0.0,0.0,0.0,0.0,0.0,0.0,0.0,0.0,0.0,0.0,0.0,0.0,0.0,0.0,0.0,0.0,0.0,0.0,0.0,0.0,0.0,0.0,0.0,0.0,0.0,0.0,0.0,0.0,0.0,0.0,0.0,0.0,0.0,0.0,0.0,0.0,0.0,0.0,0.0,0.0,0.0,0.0,0.0,0.0,0.0,0.0,0.0,0.0,0.0,0.0,0.0,0.0,0.0,0.0,0.0,0.0,0.0,0.0,0.0,0.0,0.0,0.0,0.0,0.0,0.0,0.0,0.0,0.0,0.0,0.0,0.0,0.0,0.0,0.0,0.0,0.0,0.0,0.0,0.0,0.0,0.0,0.0,0.0,0.0,0.0,0.0,0.0,0.0,0.0,0.0,0.0,0.0,0.0,0.0,0.0,0.0,0.0,0.0,-1.6703,-1.6388,-1.6345,-1.6608,-1.6584,-1.6348,-1.5831,0.0,0.0,0.0,0.0,0.0,0.0,0.0,0.0,0.0,0.0,0.0,0.0,0.0,0.0,0.0,0.0,0.0,0.0,0.0,0.0,0.0,0.0,0.0,0.0,0.0,0.0,0.0,0.0,0.0,0.0,0.0,0.0,0.0,0.0,0.0,0.0,0.0,0.0,0.0,0.0,0.0,0.0,0.0,0.0,0.0,0.0,0.0,0.0,0.0,0.0,0.0,0.0,0.0,0.0,0.0,0.0,0.0,0.0,0.0,0.0,0.0,0.0,0.0,0.0,0.0,0.0,0.0,0.0,0.0,0.0,0.0,0.0,0.0,0.0,0.0,0.0,0.0,0.0,0.0,0.0,0.0,0.0,0.0,0.0,0.0,0.0,0.0,0.0,0.0,0.0,0.0,0.0,0.0,0.0,0.0,0.0,0.0,0.0,0.0,0.0,0.0,0.0,0.0,0.0,0.0,0.0,0.0,0.0,-1.8102,-1.749,-1.7157,-1.7266,-1.7003,-1.6759,0.0,0.0,0.0,0.0,0.0,0.0,0.0,0.0,0.0,0.0,0.0,0.0,0.0,0.0,0.0,0.0,0.0,0.0,0.0,0.0,0.0,0.0,0.0,0.0,0.0,0.0,0.0,0.0,0.0,0.0,0.0,0.0,0.0,0.0,0.0,0.0,0.0,0.0,0.0,0.0,0.0,0.0,0.0,0.0,0.0,0.0,0.0,0.0,0.0,0.0,0.0,0.0,0.0,0.0,0.0,0.0,0.0,0.0,0.0,0.0,0.0,0.0,0.0,0.0,0.0,0.0,0.0,0.0,0.0,0.0,0.0,0.0,0.0,0.0,0.0,0.0,0.0,0.0,0.0,0.0,0.0,0.0,0.0,0.0,0.0,0.0,0.0,0.0,0.0,0.0,0.0,0.0,0.0,0.0,0.0,0.0,0.0,0.0,0.0,0.0,0.0,0.0,0.0,0.0,0.0,0.0,0.0,0.0,0.0,-1.9255,-1.9512,-1.9063,-1.7968,-1.8087,-1.7994,0.0,0.0,0.0,0.0,0.0,0.0,0.0,0.0,0.0,0.0,0.0,0.0,0.0,0.0,0.0,0.0,0.0,0.0,0.0,0.0,0.0,0.0,0.0,0.0,0.0,0.0,0.0,0.0,0.0,0.0,0.0,0.0,0.0,0.0,0.0,0.0,0.0,0.0,0.0,0.0,0.0,0.0,0.0,0.0,0.0,0.0,0.0,0.0,0.0,0.0,0.0,0.0,0.0,0.0,0.0,0.0,0.0,0.0,0.0,0.0,0.0,0.0,0.0,0.0,0.0,0.0,0.0,0.0,0.0,0.0,0.0,0.0,0.0,0.0,0.0,0.0,0.0,0.0,0.0,0.0,0.0,0.0,0.0,0.0,0.0,0.0,0.0,0.0,0.0,0.0,0.0,0.0,0.0,0.0,0.0,0.0,0.0,0.0,0.0,0.0,0.0,0.0,0.0,0.0,0.0,0.0,0.0,0.0,-1.9488,-2.0361,-2.0724,-2.0569,-1.9813,-1.9686,-1.9323,0.0,0.0,0.0,0.0,0.0,0.0,0.0,0.0,0.0,0.0,0.0,0.0,0.0,0.0,0.0,0.0,0.0,0.0,0.0,0.0,0.0,0.0,0.0,0.0,0.0,0.0,0.0,0.0,0.0,0.0,0.0,0.0,0.0,0.0,0.0,0.0,0.0,0.0,0.0,0.0,0.0,0.0,0.0,0.0,0.0,0.0,0.0,0.0,0.0,0.0,0.0,0.0,0.0,0.0,0.0,0.0,0.0,0.0,0.0,0.0,0.0,0.0,0.0,0.0,0.0,0.0,0.0,0.0,0.0,0.0,0.0,0.0,0.0,0.0,0.0,0.0,0.0,0.0,0.0,0.0,0.0,0.0,0.0,0.0,0.0,0.0,0.0,0.0,0.0,0.0,0.0,0.0,0.0,0.0,0.0,0.0,0.0,0.0,0.0,0.0,0.0,0.0,0.0,0.0,0.0,0.0,0.0,0.0,-2.064,-2.1462,-2.1643,-2.1903,-2.211,-2.1495,-2.0602,0.0,0.0,0.0,0.0,0.0,0.0,0.0,0.0,0.0,0.0,0.0,0.0,0.0,0.0,0.0,0.0,0.0,0.0,0.0,0.0,0.0,0.0,0.0,0.0,0.0,0.0,0.0,0.0,0.0,0.0,0.0,0.0,0.0,0.0,0.0,0.0,0.0,0.0,0.0,0.0,0.0,0.0,0.0,0.0,0.0,0.0,0.0,0.0,0.0,0.0,0.0,0.0,0.0,0.0,0.0,0.0,0.0,0.0,0.0,0.0,0.0,0.0,0.0,0.0,0.0,0.0,0.0,0.0,0.0,0.0,0.0,0.0,0.0,0.0,0.0,0.0,0.0,0.0,0.0,0.0,0.0,0.0,0.0,0.0,0.0,0.0,0.0,0.0,0.0,0.0,0.0,0.0,0.0,0.0,0.0,0.0,0.0,0.0,0.0,0.0,0.0,0.0,0.0,0.0,0.0,0.0,0.0,0.0,-2.2286,-2.3335,-2.3841,-2.4123,-2.4081,-2.2317,-2.1094,0.0,0.0,0.0,0.0,0.0,0.0,0.0,0.0,0.0,0.0,0.0,0.0,0.0,0.0,0.0,0.0,0.0,0.0,0.0,0.0,0.0,0.0,0.0,0.0,0.0,0.0,0.0,0.0,0.0,0.0,0.0,0.0,0.0,0.0,0.0,0.0,0.0,0.0,0.0,0.0,0.0,0.0,0.0,0.0,0.0,0.0,0.0,0.0,-1.0058,0.0,0.0,0.0,0.0,0.0,0.0,0.0,0.0,0.0,0.0,0.0,0.0,0.0,0.0,0.0,0.0,0.0,0.0,0.0,0.0,0.0,0.0,0.0,0.0,0.0,0.0,0.0,0.0,0.0,0.0,0.0,0.0,0.0,0.0,0.0,0.0,0.0,0.0,0.0,0.0,0.0,0.0,0.0,0.0,0.0,0.0,0.0,0.0,0.0,0.0,0.0,0.0,0.0,0.0,0.0,0.0,0.0,0.0,0.0,-2.4165,-2.4987,-2.5618,-2.594,-2.5663,-2.4235,-2.2949,0.0,0.0,0.0,0.0,0.0,0.0,0.0,0.0,0.0,0.0,0.0,0.0,0.0,0.0,0.0,0.0,0.0,0.0,0.0,0.0,0.0,0.0,0.0,0.0,0.0,0.0,0.0,0.0,0.0,0.0,0.0,0.0,0.0,0.0,0.0,0.0,0.0,0.0,0.0,0.0,0.0,0.0,0.0,0.0,0.0,0.0,0.0,0.0,0.0,0.0,0.0,0.0,0.0,0.0,0.0,0.0,0.0,0.0,0.0,0.0,0.0,0.0,0.0,0.0,0.0,0.0,0.0,0.0,0.0,0.0,0.0,0.0,0.0,0.0,0.0,0.0,0.0,0.0,0.0,0.0,0.0,0.0,0.0,0.0,0.0,0.0,0.0,0.0,0.0,0.0,0.0,0.0,0.0,0.0,0.0,0.0,0.0,0.0,0.0,0.0,0.0,0.0,0.0,0.0,0.0,0.0,0.0,-2.4431,-2.5832,-2.6685,-2.7251,-2.7454,-2.716,-2.6406,-2.5232,-2.3448,0.0,0.0,0.0,0.0,0.0,0.0,0.0,0.0,0.0,0.0,0.0,0.0,0.0,0.0,0.0,0.0,0.0,0.0,0.0,0.0,0.0,0.0,0.0,0.0,0.0,0.0,0.0,0.0,0.0,0.0,0.0,0.0,0.0,0.0,0.0,0.0,0.0,0.0,-1.5354,-1.4977,0.0,0.0,0.0,0.0,0.0,0.0,0.0,0.0,-2.0223,0.0,0.0,0.0,0.0,0.0,0.0,0.0,0.0,0.0,0.0,0.0,0.0,0.0,0.0,0.0,0.0,0.0,0.0,0.0,0.0,0.0,0.0,0.0,0.0,0.0,0.0,0.0,0.0,0.0,0.0,0.0,0.0,0.0,0.0,0.0,0.0,0.0,0.0,0.0,0.0,0.0,0.0,0.0,0.0,0.0,0.0,0.0,0.0,0.0,0.0,0.0,0.0,0.0,0.0,0.0,0.0,-2.378,-2.5508,-2.7075,-2.84,-2.8807,-2.8956,-2.8778,-2.8375,-2.7327,-2.5522,0.0,0.0,0.0,0.0,0.0,0.0,0.0,0.0,0.0,0.0,0.0,0.0,0.0,0.0,0.0,0.0,0.0,0.0,0.0,0.0,0.0,0.0,0.0,0.0,0.0,0.0,0.0,0.0,0.0,0.0,0.0,0.0,0.0,0.0,0.0,0.0,0.0,0.0,0.0,-1.9577,-1.9927,0.0,0.0,0.0,0.0,0.0,0.0,0.0,0.0,-2.2908,0.0,0.0,0.0,0.0,0.0,0.0,0.0,0.0,0.0,0.0,0.0,0.0,0.0,0.0,0.0,0.0,0.0,0.0,0.0,0.0,0.0,0.0,0.0,0.0,0.0,0.0,0.0,0.0,0.0,0.0,0.0,0.0,0.0,0.0,0.0,0.0,0.0,0.0,0.0,0.0,0.0,0.0,0.0,0.0,0.0,0.0,0.0,0.0,0.0,0.0,0.0,0.0,0.0,0.0,0.0,-2.4603,-2.6708,-2.8353,-2.9536,-2.9937,-3.0187,-3.022,-2.935,-2.8206,0.0,0.0,0.0,0.0,0.0,0.0,0.0,0.0,0.0,0.0,0.0,0.0,0.0,0.0,0.0,0.0,0.0,0.0,0.0,0.0,0.0,0.0,0.0,0.0,0.0,0.0,0.0,0.0,0.0,0.0,0.0,0.0,0.0,0.0,0.0,0.0,0.0,0.0,0.0,0.0,-2.38,-2.4619,-2.5348,0.0,0.0,0.0,0.0,0.0,0.0,-2.7575,-2.7322,0.0,0.0,0.0,0.0,0.0,0.0,0.0,0.0,0.0,0.0,0.0,0.0,0.0,0.0,0.0,0.0,0.0,0.0,0.0,0.0,0.0,0.0,0.0,0.0,0.0,0.0,0.0,0.0,0.0,0.0,0.0,0.0,0.0,0.0,0.0,0.0,0.0,0.0,0.0,0.0,0.0,0.0,0.0,0.0,0.0,0.0,0.0,0.0,0.0,0.0,0.0,0.0,0.0,0.0,0.0,-2.5154,-2.7744,-2.9533,-3.021,-3.0823,-3.1179,-3.1345,-3.0102,-2.882,0.0,0.0,0.0,0.0,0.0,0.0,0.0,0.0,0.0,0.0,0.0,0.0,0.0,0.0,0.0,0.0,0.0,0.0,0.0,0.0,0.0,0.0,0.0,0.0,0.0,0.0,0.0,0.0,0.0,0.0,0.0,0.0,0.0,0.0,0.0,0.0,0.0,0.0,0.0,0.0,0.0,-2.8692,-2.958,-2.9984,0.0,0.0,0.0,0.0,-3.12,-3.1504,0.0,0.0,0.0,0.0,0.0,0.0,0.0,0.0,0.0,0.0,0.0,0.0,0.0,0.0,0.0,0.0,0.0,0.0,0.0,0.0,0.0,0.0,0.0,0.0,0.0,0.0,0.0,0.0,0.0,0.0,0.0,0.0,0.0,0.0,0.0,0.0,0.0,0.0,0.0,0.0,0.0,0.0,0.0,0.0,0.0,0.0,0.0,0.0,0.0,0.0,0.0,0.0,0.0,0.0,0.0,0.0,-2.5749,-2.8302,-2.9997,-3.0804,-3.1525,-3.1922,-3.197,-3.1104,-2.9881,0.0,0.0,0.0,0.0,0.0,0.0,0.0,0.0,0.0,0.0,0.0,0.0,0.0,0.0,0.0,0.0,0.0,0.0,0.0,0.0,0.0,0.0,0.0,0.0,0.0,0.0,0.0,0.0,0.0,0.0,0.0,0.0,0.0,0.0,0.0,0.0,0.0,0.0,0.0,0.0,0.0,-3.1712,-3.3641,-3.378,-3.394,0.0,0.0,-3.4468,-3.4875,-3.4233,0.0,0.0,0.0,0.0,0.0,0.0,0.0,0.0,0.0,0.0,0.0,0.0,0.0,0.0,0.0,0.0,0.0,0.0,0.0,0.0,0.0,0.0,0.0,0.0,0.0,0.0,0.0,0.0,0.0,0.0,0.0,0.0,0.0,0.0,0.0,0.0,0.0,0.0,0.0,0.0,0.0,0.0,0.0,0.0,0.0,0.0,0.0,0.0,0.0,0.0,0.0,0.0,0.0,0.0,0.0,-2.5657,-2.5924,-2.8833,-3.0531,-3.1017,-3.1834,-3.2188,-3.1985,-3.1296,-3.0171,0.0,0.0,0.0,0.0,0.0,0.0,0.0,0.0,0.0,0.0,0.0,0.0,0.0,0.0,0.0,0.0,0.0,0.0,0.0,0.0,0.0,0.0,0.0,0.0,0.0,0.0,0.0,0.0,0.0,0.0,0.0,0.0,0.0,0.0,0.0,0.0,0.0,0.0,0.0,0.0,0.0,0.0,-3.6102,-3.6543,0.0,0.0,0.0,-3.7126,-3.7344,0.0,0.0,0.0,0.0,0.0,0.0,0.0,0.0,0.0,0.0,0.0,0.0,0.0,0.0,0.0,0.0,0.0,0.0,0.0,0.0,0.0,0.0,0.0,0.0,0.0,0.0,0.0,0.0,0.0,0.0,0.0,0.0,0.0,0.0,0.0,0.0,0.0,0.0,0.0,0.0,0.0,0.0,0.0,0.0,0.0,0.0,0.0,0.0,0.0,0.0,0.0,0.0,0.0,0.0,0.0,0.0,0.0,-2.6029,-2.9061,-3.0744,-3.1004,-3.1945,-3.2302,-3.1956,-3.1497,0.0,0.0,0.0,0.0,0.0,0.0,0.0,0.0,0.0,0.0,0.0,0.0,0.0,0.0,0.0,0.0,0.0,0.0,0.0,0.0,0.0,0.0,0.0,0.0,0.0,0.0,0.0,-2.5477,0.0,0.0,0.0,0.0,0.0,0.0,0.0,0.0,0.0,0.0,0.0,0.0,0.0,0.0,-3.678,-3.8236,-3.8819,-3.9198,0.0,0.0,-3.9311,-3.953,-3.888,-3.8116,0.0,0.0,0.0,0.0,0.0,0.0,0.0,0.0,0.0,0.0,0.0,0.0,0.0,0.0,0.0,0.0,0.0,0.0,0.0,0.0,0.0,0.0,0.0,0.0,0.0,0.0,0.0,0.0,0.0,0.0,0.0,0.0,0.0,0.0,0.0,0.0,0.0,0.0,0.0,0.0,0.0,0.0,0.0,0.0,0.0,0.0,0.0,0.0,0.0,0.0,0.0,0.0,0.0,0.0,0.0,-2.6169,-2.882,-3.0424,-3.0851,-3.2006,-3.2561,-3.2206,-3.1877,-3.095,0.0,0.0,0.0,0.0,0.0,0.0,0.0,0.0,0.0,0.0,0.0,0.0,0.0,0.0,0.0,0.0,0.0,0.0,0.0,0.0,0.0,0.0,0.0,0.0,0.0,0.0,0.0,0.0,0.0,0.0,0.0,0.0,0.0,0.0,0.0,0.0,0.0,0.0,0.0,0.0,0.0,-3.7784,-4.0466,-4.0555,-4.0684,0.0,0.0,-4.0972,-4.1169,-4.0388,-3.9262,-3.8055,0.0,0.0,0.0,0.0,0.0,0.0,0.0,0.0,0.0,0.0,0.0,0.0,0.0,0.0,0.0,0.0,0.0,0.0,0.0,0.0,0.0,0.0,0.0,0.0,0.0,0.0,0.0,0.0,0.0,0.0,0.0,0.0,0.0,0.0,0.0,0.0,0.0,0.0,0.0,0.0,0.0,0.0,0.0,0.0,0.0,0.0,0.0,0.0,0.0,0.0,0.0,0.0,0.0,-2.6333,-2.7246,-2.9226,-3.0489,-3.1069,-3.2237,-3.2389,-3.1614,-3.1902,-3.1189,0.0,0.0,0.0,0.0,0.0,0.0,0.0,0.0,0.0,0.0,0.0,0.0,0.0,0.0,0.0,0.0,0.0,0.0,0.0,0.0,0.0,0.0,0.0,0.0,0.0,0.0,0.0,0.0,-2.7071,-2.7073,-2.727,0.0,0.0,0.0,0.0,0.0,0.0,0.0,0.0,0.0,0.0,-3.9239,-4.0529,-4.1082,0.0,0.0,-4.1778,-4.1506,-4.1748,-4.0822,-3.9946,-3.9595,-3.7693,0.0,0.0,0.0,0.0,0.0,0.0,0.0,0.0,0.0,0.0,0.0,0.0,0.0,0.0,0.0,0.0,0.0,0.0,0.0,0.0,0.0,0.0,0.0,0.0,0.0,0.0,0.0,0.0,0.0,0.0,0.0,0.0,0.0,0.0,0.0,0.0,0.0,0.0,0.0,0.0,0.0,0.0,0.0,0.0,0.0,0.0,0.0,0.0,0.0,0.0,0.0,0.0,-2.6771,-2.7901,-2.9343,-3.0394,-3.1188,-3.2342,-3.247,-3.1601,-3.2094,-3.1474,0.0,0.0,0.0,0.0,0.0,0.0,0.0,0.0,0.0,0.0,0.0,0.0,0.0,0.0,0.0,0.0,0.0,0.0,0.0,0.0,0.0,0.0,0.0,0.0,0.0,0.0,0.0,0.0,-2.7531,-2.7425,-2.768,0.0,0.0,0.0,0.0,0.0,0.0,0.0,0.0,0.0,0.0,-4.0246,-4.0764,-4.1661,-4.2281,-4.2281,-4.2158,-4.1971,-4.1918,-4.116,-4.0613,-4.0576,0.0,0.0,0.0,0.0,0.0,0.0,0.0,0.0,0.0,0.0,0.0,0.0,0.0,0.0,0.0,0.0,0.0,0.0,0.0,0.0,0.0,0.0,0.0,0.0,0.0,0.0,0.0,0.0,0.0,0.0,0.0,0.0,0.0,0.0,0.0,0.0,0.0,0.0,0.0,0.0,0.0,0.0,0.0,0.0,0.0,0.0,0.0,0.0,0.0,0.0,0.0,0.0,0.0,0.0,-2.7927,-2.8984,-3.0086,-3.1188,-3.2316,-3.268,-3.2354,-3.238,-3.1915,-3.0921,0.0,0.0,0.0,0.0,0.0,0.0,0.0,0.0,0.0,0.0,0.0,0.0,0.0,0.0,0.0,0.0,0.0,0.0,0.0,0.0,0.0,0.0,0.0,0.0,0.0,0.0,-2.859,-2.8301,-2.8137,0.0,0.0,0.0,0.0,0.0,0.0,0.0,0.0,0.0,0.0,-3.8721,-4.0575,-4.1744,-4.2485,-4.2951,-4.29,-4.2731,-4.2303,-4.1701,-4.1492,-4.1177,0.0,0.0,0.0,0.0,0.0,0.0,0.0,0.0,0.0,0.0,0.0,0.0,0.0,0.0,0.0,0.0,0.0,0.0,0.0,0.0,0.0,0.0,0.0,0.0,0.0,0.0,0.0,-2.5506,-2.5636,0.0,0.0,0.0,0.0,0.0,0.0,0.0,0.0,0.0,0.0,0.0,-2.8659,-2.8954,0.0,0.0,0.0,0.0,0.0,0.0,0.0,0.0,0.0,0.0,0.0,0.0,-2.7676,-2.882,-2.9528,-3.028,-3.1033,-3.1785,-3.1915,-3.1498,-3.1837,-3.1341,-2.9902,0.0,0.0,0.0,0.0,0.0,0.0,0.0,0.0,0.0,0.0,0.0,0.0,0.0,0.0,0.0,0.0,0.0,0.0,0.0,0.0,0.0,0.0,0.0,0.0,0.0,-2.8573,0.0,0.0,0.0,0.0,0.0,0.0,0.0,0.0,0.0,0.0,0.0,-3.6516,-3.8129,-3.9505,-4.0546,-4.0995,-4.1746,-4.2289,0.0,0.0,0.0,0.0,0.0,0.0,0.0,0.0,0.0,0.0,0.0,0.0,0.0,0.0,-3.9214,-3.694,-3.6292,-3.6076,-3.6076,0.0,0.0,0.0,0.0,0.0,0.0,0.0,0.0,0.0,0.0,0.0,0.0,0.0,0.0,0.0,0.0,-2.6009,0.0,0.0,0.0,0.0,0.0,0.0,0.0,0.0,-2.9391,-3.0098,-3.0587,-3.1098,-3.1423,0.0,-3.1701,-3.0596,0.0,0.0,0.0,0.0,0.0,0.0,0.0,0.0,-2.8307,-2.9248,-2.9849,-3.0398,-3.0973,-3.1548,-3.1653,-3.1313,-3.1653,-3.1026,-2.9327,-2.8543,-2.784,0.0,0.0,0.0,0.0,0.0,0.0,0.0,0.0,0.0,0.0,0.0,0.0,0.0,0.0,0.0,0.0,0.0,0.0,0.0,0.0,0.0,0.0,0.0,-2.8799,0.0,0.0,0.0,0.0,0.0,0.0,0.0,0.0,0.0,-3.4941,-3.6438,-3.7831,-3.8994,-4.0102,-4.0879,-4.1024,0.0,0.0,0.0,0.0,0.0,0.0,0.0,-4.2333,-4.2429,-4.2486,-4.2678,-4.3265,-4.3041,-4.294,-4.332,0.0,0.0,-3.943,-3.8577,-3.8262,-3.7954,-3.7707,-3.7589,-3.7686,-3.7809,-3.8023,0.0,0.0,0.0,0.0,0.0,0.0,0.0,0.0,-2.7461,-2.7461,0.0,-2.6941,0.0,0.0,0.0,0.0,0.0,0.0,0.0,0.0,-3.1649,-3.2311,-3.2946,-3.3806,-3.4066,-3.3751,-3.3953,-3.3034,-3.1052,-2.9757,0.0,0.0,0.0,0.0,0.0,0.0,-2.8726,-2.9327,-2.9902,-3.0424,-3.0973,-3.1522,-3.1733,-3.1784,-3.181,-3.0999,-2.9379,-2.9248,-2.8697,-2.7333,-2.6951,0.0,0.0,0.0,0.0,0.0,0.0,0.0,0.0,0.0,0.0,0.0,0.0,0.0,0.0,0.0,0.0,0.0,0.0,0.0,0.0,-2.9126,0.0,0.0,0.0,0.0,0.0,0.0,0.0,0.0,0.0,0.0,-3.6662,-3.7579,-3.8586,-3.9462,0.0,0.0,0.0,0.0,-4.2903,-4.2354,-4.2703,-4.2877,-4.2237,-4.268,-4.3113,-4.3113,0.0,0.0,-4.5494,-4.5179,-4.4821,-4.482,-4.4329,-4.3763,-4.2949,-4.2067,-4.1401,-4.0632,-3.9893,-3.9473,-3.9181,-3.9281,-3.944,-3.2066,0.0,0.0,0.0,0.0,-2.9208,-2.9208,-2.9208,-2.9208,-2.9021,-2.869,-2.8411,0.0,0.0,0.0,0.0,0.0,0.0,-3.1317,-3.2043,-3.2959,-3.3696,-3.4464,-3.4264,-3.4255,-3.4573,-3.4438,-3.3558,-3.2228,-3.1862,-3.0637,-2.8804,0.0,0.0,0.0,0.0,-2.9719,-2.9902,-3.0451,-3.0817,-3.0973,-3.1156,-3.1235,-3.1235,-3.1235,-3.0682,-2.9469,-2.9416,-2.9061,-2.8217,-2.7448,0.0,0.0,0.0,0.0,0.0,0.0,0.0,0.0,0.0,0.0,0.0,0.0,0.0,0.0,0.0,0.0,0.0,0.0,0.0,-2.9138,-2.9404,-2.9763,0.0,0.0,0.0,0.0,0.0,0.0,0.0,0.0,0.0,-3.9091,-3.9299,-3.9663,0.0,0.0,-4.1539,-4.1775,-4.223,-4.2523,-4.2364,0.0,0.0,0.0,-4.3174,-4.3476,-4.3595,-4.4743,-4.5701,-4.5872,-4.6022,-4.6028,-4.5898,-4.5111,-4.4321,-4.3743,-4.2638,-4.1709,-4.1309,-4.0724,-4.0269,-4.0489,-4.0758,-4.1053,-3.4262,-3.2871,-3.1609,-3.0967,-3.0801,-3.0801,-3.0698,-3.0532,-3.0532,-3.0387,-3.0098,-2.9743,-2.9505,-2.953,-2.9816,0.0,0.0,0.0,-3.3198,-3.3744,-3.47,-3.5288,-3.5519,-3.5554,-3.5661,-3.5739,-3.5279,-3.4371,-3.3038,-3.2803,-3.1757,-3.0006,0.0,0.0,-2.9301,-2.9849,-3.0064,-3.0163,-3.0712,-3.0973,-3.0973,-3.0973,-3.0973,-3.0973,-3.0973,-3.0524,-2.9539,-2.9487,-2.9209,-2.8627,-2.7653,-2.7499,0.0,0.0,0.0,0.0,0.0,0.0,0.0,0.0,0.0,0.0,0.0,-2.8411,0.0,0.0,0.0,0.0,-2.8773,-2.9064,-2.9465,-3.0289,0.0,0.0,0.0,0.0,0.0,0.0,0.0,-3.7899,-3.8654,-3.9472,-4.0515,-4.0798,-4.1049,-4.1459,-4.172,-4.198,-4.2206,0.0,-4.268,-4.2775,-4.3052,-4.3295,-4.3355,-4.3654,-4.3989,-4.4499,-4.5236,-4.5878,-4.6179,-4.6333,-4.6284,-4.6059,-4.544,-4.4723,-4.4189,-4.3142,-4.2222,-4.1837,-4.1426,-4.1224,-4.1283,-4.1588,-4.1916,-3.5914,-3.5397,-3.3658,-3.2664,-3.2209,-3.2209,-3.1961,-3.1547,-3.1547,-3.1505,-3.136,-3.0852,-3.0726,-3.0952,-3.145,0.0,-3.3993,-3.4483,-3.5041,-3.5547,-3.659,-3.6775,-3.6405,-3.7326,-3.7482,-3.6907,-3.6332,-3.5182,-3.3613,-3.296,-3.2097,-3.0999,-3.0477,-2.9928,-2.9457,-2.9954,-3.0215,-3.0215,-3.0712,-3.0973,-3.0973,-3.0973,-3.0973,-3.0973,-3.0973,-3.0524,-2.9566,-2.9557,-2.9183,-2.8573,-2.7714,-2.7471,-2.8026,0.0,0.0,0.0,0.0,0.0,0.0,0.0,0.0,0.0,0.0,0.0,0.0,0.0,0.0,0.0,-2.9027,0.0,-2.9813,-3.1601,0.0,0.0,0.0,-3.5823,-3.7112,-3.7452,-3.8081,-3.9439,0.0,0.0,-4.1212,0.0,-4.2492,-4.2238,-4.2365,-4.2618,-4.2899,-4.3052,-4.3235,-4.3449,-4.3654,-4.3831,-4.3831,-4.4064,-4.4529,-4.5307,-4.552,-4.5673,-4.6152,-4.614,-4.5929,-4.5715,-4.5417,-4.4937,-4.4398,-4.346,-4.2784,-4.2145,-4.1997,-4.1909,-4.1746,-4.1916,-4.2238,-3.6577,-3.637,-3.5252,-3.432,-3.3596,-3.3575,-3.3327,-3.2913,-3.2913,-3.252,-3.1857,-3.218,-3.2341,-3.2361,-3.2107,-3.2286,-3.2892,-3.3742,-3.4508,-3.5051,-3.5823,-3.6325,-3.6535,-3.6493,-3.6462,-3.6279,-3.5757,-3.4816,-3.3613,-3.2986,-3.2097,-3.1026,-3.0843,-3.0712,-3.0581,-3.0712,-3.079,-3.079,-3.0921,-3.0973,-3.0973,-3.0973,-3.0973,-3.0973,-3.0973,-3.0598,-2.9724,-2.9741,-2.9268,-2.8318,-2.7797,-2.7653,-2.7818,-2.7594,0.0,0.0,0.0,0.0,0.0,0.0,0.0,0.0,0.0,-2.8411,-2.8411,0.0,-2.8411,0.0,-2.9027,-3.0012,-3.1605,-3.2408,0.0,0.0,-3.542,-3.6474,-3.7326,-3.7954,-3.8807,-4.0166,-4.0579,-4.1119,-4.198,-4.252,-4.2899,-4.3052,-4.3267,-4.3328,-4.3449,-4.3687,-4.3864,-4.3923,-4.3981,-4.4097,-4.4179,-4.4384,-4.4621,-4.479,-4.524,-4.5621,-4.5639,-4.5614,-4.5496,-4.5103,-4.4483,-4.3911,-4.348,-4.2737,-4.2064,-4.1692,-4.1658,-4.1778,-4.1947,-4.2142,-4.2267,-3.6804,-3.6722,-3.5811,-3.5128,-3.4652,-3.4465,-3.3989,-3.3389,-3.3368,-3.2996,-3.2333,-3.2685,-3.2944,-3.3099,-3.2833,-3.2994,-3.3522,-3.4199,-3.4772,-3.521,-3.5974,-3.6413,-3.6529,-3.6677,-3.6701,-3.6675,-3.5957,-3.5208,-3.4319,-3.3221,-3.2254,-3.1365,-3.1104,-3.0973,-3.0973,-3.0973,-3.0973,-3.0973,-3.0973,-3.0973,-3.0973,-3.0973,-3.0869,-3.0607,-3.0682,-3.0349,-2.9422,-2.9507,-2.9254,-2.8581,-2.794,-2.7709,-2.7992,-2.763,-2.759,0.0,0.0,0.0,0.0,0.0,0.0,0.0,0.0,0.0,0.0,0.0,-2.9304,0.0,-3.0166,0.0,-3.24,-3.3525,-3.4478,-3.5283,-3.6119,-3.6927,-3.7679,-3.8149,-3.8936,-4.0291,-4.0674,-4.1215,-4.2269,-4.2713,-4.3023,-4.3388,-4.3628,-4.3805,-4.3747,-4.3981,-4.4212,-4.4179,-4.427,-4.4327,-4.444,-4.4193,-4.4079,-4.4079,-4.4113,-4.4125,-4.4069,-4.3979,-4.3866,-4.3695,-4.3165,-4.2667,-4.2367,-4.1927,-4.1455,-4.1341,-4.1297,-4.1337,-4.1494,-4.1617,-4.1699,-3.6804,-3.6722,-3.5811,-3.5397,-3.5314,-3.4921,-3.4258,-3.3472,-3.3472,-3.3182,-3.282,-3.2902,-3.3138,-3.3501,-3.3453,-3.381,-3.4543,-3.4809,-3.5145,-3.5421,-3.6186,-3.6522,-3.6358,-3.7015,-3.7361,-3.735,-3.6467,-3.5783,-3.5155,-3.3587,-3.2463,-3.1759,-3.1339,-3.1052,-3.0973,-3.0973,-3.0973,-3.0973,-3.0973,-3.0973,-3.0973,-3.0973,-3.0712,-3.0163,-3.0355,-2.9918,-2.9012,-2.9093,-2.917,-2.8939,-2.8102,-2.7846,-2.8369,-2.7822,-2.7624,0.0,-2.8829,0.0,0.0,0.0,0.0,0.0,0.0,0.0,0.0,-3.0104,-3.0422,-3.0535,-3.1674,-3.253,-3.2826,-3.4585,-3.5792,-3.6004,-3.6625,-3.728,-3.7904,-3.8122,-3.878,-4.0004,-4.0419,-4.1055,-4.1884,-4.2359,-4.2729,-4.2993,-4.3348,-4.3523,-4.3623,-4.3887,-4.4091,-4.4057,-4.4193,-4.4079,-4.4079,-4.3673,-4.3267,-4.32,-4.2861,-4.2252,-4.2252,-4.2146,-4.1971,-4.187,-4.1753,-4.1566,-4.1332,-4.1253,-4.1106,-4.0836,-4.068,-4.0656,-4.0808,-4.0965,-4.1001,-3.6804,-3.6722,-3.5811,-3.5211,-3.4879,-3.4797,-3.4445,-3.3927,-3.3927,-3.3705,-3.3367,-3.3014,-3.32,-3.3704,-3.3171,-3.3131,-3.3524,-3.365,-3.39,-3.428,-3.5163,-3.5694,-3.6073,-3.664,-3.6852,-3.6755,-3.6133,-3.5427,-3.4554,-3.3796,-3.2881,-3.1785,-3.1731,-3.1444,-3.0999,0.0,0.0,0.0,-3.0973,-3.0973,-3.0973,-3.0973,-3.0786,-3.0382,-3.0401,0.0,-2.9241,-2.9161,-2.8915,-2.845,-2.8269,0.0,0.0,0.0,0.0,0.0,0.0,0.0,0.0,0.0,0.0,0.0,-3.0782,-3.0782,-3.0237,-3.0351,-3.0658,-3.1151,-3.1921,-3.2875,-3.4041,-3.5084,-3.5918,-3.6445,-3.6784,-3.728,-3.7904,-3.8029,-3.8404,-3.9185,-3.9629,-3.9975,-4.0414,-4.078,-4.114,-4.1617,-4.1872,-4.2076,-4.23,-4.2992,-4.3348,-4.2807,-4.2828,-4.276,-4.2726,-4.2625,-4.2489,-4.2455,-4.2422,-4.2016,-4.1474,-4.1339,-4.1032,-4.0508,-4.0774,-4.1037,-4.0809,-4.0875,-4.0588,-4.0087,-3.9468,-3.9462,-4.0819,-4.1124,-4.1106,-3.668,0.0,-3.5707,-3.5169,0.0,-3.4755,-3.4362,-3.372,-3.372,-3.3696,-3.3614,-3.338,-3.3587,-3.4098,-3.3351,-3.3121,-3.3518,-3.3107,-3.3269,-3.3866,-3.4335,-3.492,-3.5379,-3.5774,-3.5966,-3.6055,-3.5594,-3.5072,-3.4647,-3.3897,-3.33,-3.2698,-3.2046,-3.1705,-3.1418,-3.113,-3.0973,-3.0973,-3.0973,-3.1048,-3.1123,-3.1123,-3.0803,-3.0175,0.0,0.0,0.0,0.0,0.0,0.0,0.0,0.0,0.0,0.0,0.0,-2.9262,-3.0051,-3.0556,-3.0693,-3.1159,-3.1397,-3.1397,-3.1705,-3.1767,-3.1428,-3.1705,-3.2013,-3.2351,-3.3306,-3.4198,-3.4906,-3.5644,-3.623,-3.6569,-3.6662,-3.6878,-3.7188,-3.7313,-3.7623,-3.8309,-3.8654,-3.8999,-3.9752,-4.0059,-4.0421,-4.086,-4.1271,-4.1421,-4.1355,-4.2097,-4.2584,-4.2354,-4.2286,-4.2286,-4.2252,-4.1948,-4.1745,-4.1711,-4.1136,-4.0561,-4.0189,-3.9833,-3.9427,-3.9007,-3.9244,-3.9345,-3.9277,-3.9175,-3.9075,-3.8706,-3.8338,-3.8321,-3.9229,-3.9375,-3.9382,-3.6535,-3.6059,-3.5542,-3.5045,-3.4631,-3.4548,-3.4149,-3.3381,0.0,0.0,0.0,-3.3727,-3.3909,-3.4338,-3.3572,-3.3453,-3.3742,-3.2971,-3.2969,-3.3668,-3.3866,-3.4237,-3.4702,-3.4817,-3.4991,-3.5261,-3.4907,-3.4779,-3.4736,-3.4105,-3.3666,-3.3509,-3.262,-3.2045,-3.1759,-3.1365,-3.1078,-3.1048,-3.1048,-3.1123,-3.1272,-3.1347,-3.0917,-2.9997,-3.0073,-2.9646,-2.8633,-2.8692,-2.8922,-2.9149,-2.8802,-2.8708,-2.9011,-2.8826,-2.8886,-2.9369,-3.0347,-3.0981,-3.1256,-3.194,-3.2382,-3.2382,-3.2413,-3.2413,-3.2413,-3.3029,-3.3398,-3.3398,-3.466,-3.546,-3.5491,-3.6076,-3.6507,-3.6507,-3.6507,-3.6507,-3.6507,-3.66,-3.6909,-3.7467,-3.7748,-3.8153,-3.8967,-3.9399,-3.9794,-4.0235,-4.0573,-4.0912,-4.0634,-4.1137,-4.1687,-4.1779,-4.1711,-4.1813,-4.1779,-4.1238,-4.0865,-4.0696,-3.9681,-3.8851,-3.858,-3.8201,-3.7793,-3.7611,-3.7597,-3.7686,-3.7624,-3.773,-3.7483,-3.7416,-3.7382,-3.7364,-3.7263,-3.723,-3.7412,-3.6535,-3.6039,-3.5211,-3.459,-3.4134,-3.3741,-3.3402,-3.3173,-3.3287,-3.3586,-3.3974,-3.3974,-3.4072,-3.4185,-3.3656,-3.3487,-3.3582,-3.3141,-3.2992,0.0,-3.3568,-3.3866,-3.4115,-3.4174,-3.4259,-3.4438,-3.435,-3.4254,-3.4218,-3.4288,-3.4058,-3.3639,-3.343,-3.2829,-3.1914,-3.1757,-3.1546,-3.1299,-3.1272,-3.1272,-3.1272,-3.1447,-3.1349,-3.0824,-3.0384,-2.9902,-2.952,-2.9067,-2.8986,-2.9338,-2.9282,-2.9414,-2.9633,-2.9793,-3.0007,-3.0366,-3.0925,-3.139,-3.1588,-3.2018,-3.2302,-3.2413,-3.2413,-3.2413,-3.2413,-3.2998,-3.3398,-3.346,-3.4629,-3.5491,-3.5522,-3.6045,-3.6415,-3.6445,-3.6476,-3.6476,-3.6445,-3.6507,-3.6569,-3.6723,-3.6971,-3.7216,-3.7584,-3.7975,-3.8328,-3.8667,-3.907,-3.9336,-3.9648,-3.9998,-4.0238,-4.0392,-4.0392,-4.0392,-4.0324,-3.9783,-3.9411,-3.9309,-3.8696,-3.7963,-3.7454,-3.7274,-3.7024,-3.641,-3.6808,-3.707,-3.7046,-3.7555,-3.7462,-3.703,-3.6907,-3.6785,-3.631,-3.6231,-3.6582,-3.639,-3.5687,-3.5024,-3.4486,-3.401,-3.3327,-3.3142,-3.3409,-3.3409,-3.3636,-3.4065,-3.3806,-3.3878,-3.4161,-3.3453,-3.3302,-3.3572,-3.3095,-3.3092,-3.3269,-3.3392,-3.3568,-3.3819,-3.3813,-3.3835,-3.3973,-3.4148,-3.4091,-3.3946,-3.423,-3.4267,-3.4031,-3.3744,-3.3169,-3.2359,-3.2306,-3.2254,-3.2196,-3.1589,-3.1421,-3.1596,-3.1743,-3.1621,-3.1314,-3.1058,-3.0719,-3.0361,-2.9914,-2.9711,-2.9903,-2.9659,-2.9554,-2.9713,-2.9837,-3.0021,-3.0355,-3.0776,-3.1161,-3.1452,-3.191,-3.2247,-3.2382,-3.2413,-3.2413,-3.2413,-3.3029,-3.3398,-3.3429,-3.4352,-3.4937,-3.4937,-3.5214,-3.5399,-3.5399,-3.5399,-3.5613,-3.5982,-3.6044,-3.626,-3.6662,-3.6877,-3.6904,-3.6676,-3.688,-3.7068,-3.7173,-3.772,-3.8393,-3.885,-3.8972,-3.9126,-3.9362,-3.9462,-3.9309,-3.9005,-3.8633,-3.8478,-3.8458,-3.7861,-3.7364,-3.7013,-3.683,-3.6473,-3.6122,-3.6361,-3.6498,-3.6444,-3.6638,-3.6706,-3.6525,-3.6355,-3.6229,-3.6,-3.6019,-3.6293,-3.6266,-3.5376,-3.4838,-3.4279,-3.372,-3.3016,-3.3069,-3.3614,-3.3508,-3.369,-3.3982,-3.3725,-3.377,-3.3937,-3.3331,-3.3241,-3.339,-3.3151,-3.3092,-3.3269,-3.3292,-3.3323,-3.3459,-3.3335,-3.3315,-3.3344,-3.3682,-3.3878,-3.3751,-3.4147,-3.4397,-3.4345,-3.4061,-3.3564,-3.2987,-3.304,-3.3067,-3.3118,-3.2269,-3.1915,-3.2105,-3.2044,-3.1938,-3.1787,-3.1693,-3.1461,-3.1197,-3.0721,-3.0518,-3.0518,-3.0227,-3.0038,-3.0038,-3.0136,-3.0205,-3.0278,-3.0618,-3.0953,-3.1307,-3.1796,-3.2191,-3.2327,-3.2382,-3.2413,-3.2444,-3.2844,-3.3244,-3.3429,-3.4075,-3.4475,-3.4565,-3.4565,-3.4534,-3.4534,-3.4593,-3.4898,-3.5391,-3.5543,-3.5789,-3.6438,-3.6531,-3.6401,-3.6111,-3.6127,-3.6278,-3.6389,-3.6938,-3.7617,-3.7982,-3.8051,-3.812,-3.827,-3.8535,-3.8565,-3.7942,-3.7753,-3.7746,-3.7738,-3.7206,-3.6887,-3.6771,-3.6448,-3.626,-3.6105,-3.6148,-3.6217,-3.6096,-3.6087,-3.6122,-3.6078,-3.6122,-3.6096,-3.6096,-3.6148,-3.6225,-3.6246,-3.5355,-3.4507,-3.3637,-3.2913,-3.2768,-3.3048,-3.3438,-3.3189,-3.3418,-3.4141,-3.4141,-3.3933,-3.3695,-3.3537,-3.3447,-3.3361,-3.3292,-3.3247,-3.3247,-3.3292,-3.304,-3.2655,-3.2651,-3.2604,-3.2629,-3.2983,-3.3427,-3.3725,-3.4147,-3.4397,-3.4397,-3.462,-3.4386,-3.3885,-3.3966,-3.3939,-3.3665,-3.353,-3.3235,-3.2772,-3.25,-3.2318,-3.2335,-3.1956,-3.1861,-3.1944,-3.1428,-3.1226,-3.1387,-3.1331,-3.1302,-3.1302,-3.1302,-3.118,-3.0772,-3.094,-3.1054,-3.1308,-3.1769,-3.214,-3.2191,-3.2388,-3.2413,-3.2413,-3.2444,-3.2752,-3.3306,-3.4102,-3.4321,-3.4503,-3.45,-3.4554,-3.4492,-3.467,-3.4883,-3.4914,-3.5003,-3.5034,-3.5065,-3.5368,-3.5263,-3.532,-3.5506,-3.5947,-3.6226,-3.645,-3.6738,-3.7048,-3.7168,-3.7004,-3.6917,-3.7326,-3.7841,-3.759,-3.7293,-3.7046,-3.6956,-3.659,-3.6414,-3.6354,-3.6371,-3.6241,-3.6199,-3.6241,-3.6233,-3.6191,-3.6182,-3.614,-3.6062,-3.6105,-3.6191,-3.6276,-3.6241,-3.6241,-3.5602,-3.4718,-3.4341,-3.3555,-3.2747,-3.2437,-3.265,-3.3146,-3.27,-3.2879,-3.3599,-3.3576,-3.3563,-3.3572,-3.33,-3.3092,-3.2833,-3.281,-3.265,-3.2397,-3.2397,-3.2259,-3.2149,-3.244,-3.2416,-3.2491,-3.3093,-3.3518,-3.3751,-3.4147,-3.4481,-3.4673,-3.4756,-3.4706,-3.4576,-3.4739,-3.4768,-3.4687,-3.4337,-3.4197,-3.4131,-3.3383,-3.301,-3.3173,-3.2791,-3.2626,-3.2737,-3.2206,-3.1937,-3.2005,-3.1696,-3.1499,-3.1499,-3.1499,-3.1453,-3.1237,-3.1504,-3.1898,-3.2193,-3.2706,-3.291,-3.2833,-3.2998,-3.3011,-3.2554,-3.2633,-3.2843,-3.3036,-3.3234,-3.3301,-3.3388,-3.3444,-3.347,-3.3612,-3.3668,-3.3935,-3.4366,-3.4453,-3.4635,-3.5156,-3.5363,-3.5229,-3.4927,-3.4761,-3.4993,-3.5545,-3.5727,-3.5883,-3.6189,-3.629,-3.6059,-3.5723,-3.6075,-3.6477,-3.6569,-3.6514,-3.6444,-3.6464,-3.6345,-3.6225,-3.6233,-3.6276,-3.6284,-3.6284,-3.6284,-3.6284,-3.6276,-3.6276,-3.6233,-3.6191,-3.6191,-3.6276,-3.6284,-3.6284,-3.6284,-3.5085,-3.4492,-3.4134,-3.3368,-3.252,-3.2188,-3.2295,-3.2657,-3.234,-3.2572,-3.3182,-3.2913,-3.3005,-3.3242,-3.2924,-3.2636,-3.2489,-3.2351,-3.2099,-3.1777,-3.1777,-3.1708,-3.1665,-3.209,-3.2296,-3.2388,-3.3093,-3.368,-3.4004,-3.4314,-3.4673,-3.4839,-3.4921,-3.5003,-3.5168,-3.5331,-3.5413,-3.5521,-3.5223,-3.5244,-3.5448,-3.4513,-3.3947,-3.3907,-3.3561,-3.3325,-3.3326,-3.2876,-3.2651,-3.2651,-3.223,-3.2005,-3.1977,-3.1977,-3.1921,-3.1791,-3.1923,-3.2263,-3.2708,-3.3208,-3.3457,-3.3361,-3.3648,-3.3599,-3.3098,-3.3053,-3.3014,-3.2944,-3.2664,-3.264,-3.2633,-3.2687,-3.2827,-3.2935,-3.2989,-3.3316,-3.3833,-3.3981,-3.4279,-3.4918,-3.494,-3.4962,-3.4526,-3.4182,-3.4239,-3.4781,-3.4929,-3.498,-3.5283,-3.5383,-3.5235,-3.4934,-3.5278,-3.5508,-3.5667,-3.5912,-3.6019,-3.6182,-3.6225,-3.6233,-3.6284,-3.6284,-3.6284,-3.6284,-3.6284,-3.6284,-3.6318,-3.6284,-3.6284,-3.6284,-3.6284,-3.6284,-3.6284,-3.6284,-3.6284,-3.496,-3.4652,-3.3782,-3.2892,-3.2064,-3.2225,-3.2306,-3.221,-3.1955,-3.2372,-3.3025,-3.2241,-3.209,-3.2604,-3.2535,-3.2489,-3.2397,-3.1984,-3.1754,-3.1685,-3.1685,-3.1479,-3.1065,-3.1483,-3.1774,-3.1793,-3.2649,-3.3632,-3.4673,-3.4756,-3.4921,-3.5086,-3.5249,-3.5386,-3.5494,-3.5817,-3.6086,-3.6058,-3.6163,-3.6401,-3.6503,-3.5947,-3.5133,-3.413,-3.4024,-3.3816,-3.3438,-3.3297,-3.3269,-3.3269,-3.3185,-3.3185,-3.3213,-3.3185,-3.2932,-3.2398,-3.2037,-3.1931,-3.2349,-3.2825,-3.3238,-3.3668,-3.4088,-3.4048,-3.3717,-3.3675,-3.345,-3.3006,-3.2912,-3.2881,-3.2881,-3.2989,-3.3043,-3.3096,-3.3309,-3.3498,-3.353,-3.3698,-3.3706,-3.3886,-3.3982,-3.4066,-3.3976,-3.3931,-3.3982,-3.4147,-3.4198,-3.4216,-3.4333,-3.4382,-3.4497,-3.4754,-3.5005,-3.5304,-3.5407,-3.58,-3.6062,-3.6148,-3.6233,-3.6318,-3.6284,-3.6284,-3.6284,-3.6284,-3.6284,-3.6284,-3.6284,-3.6284,-3.6284,-3.6284,-3.6284,-3.6284,-3.6284,-3.6284,-3.6284,-3.4085,-3.3803,-3.2892,-3.2313,-3.2002,-3.1751,-3.1698,-3.1721,-3.1589,-3.1994,-3.2498,-3.1995,-3.1999,-3.2466,-3.1823,-3.1547,-3.1525,-3.1364,-3.1111,-3.0813,-3.0767,-3.0675,-3.0514,-3.0856,-3.1149,-3.152,-3.2264,-3.33,-3.4397,-3.4673,-3.5003,-3.5249,-3.5304,-3.5575,-3.5817,-3.6006,-3.6166,-3.6246,-3.6405,-3.6484,-3.6721,-3.6498,-3.6046,-3.5358,-3.4545,-3.414,-3.3916,-3.355,-3.3326,-3.3326,-3.3326,-3.3326,-3.3326,-3.3326,-3.3241,-3.2988,-3.3067,-3.3197,-3.3437,-3.4032,-3.4341,-3.4391,-3.485,-3.4932,-3.4514,-3.4241,-3.3975,-3.3779,-3.337,-3.315,-3.315,-3.3096,-3.315,-3.3361,-3.3466,-3.3539,-3.3591,-3.3642,-3.3745,-3.3797,-3.3899,-3.4,-3.4,-3.405,-3.405,-3.4101,-3.4101,-3.3924,-3.3665,-3.3616,-3.3713,-3.3999,-3.4313,-3.4722,-3.5532,-3.5844,-3.6148,-3.6233,-3.6276,-3.6284,-3.6284,-3.6284,-3.6284,-3.6284,-3.6284,-3.6284,-3.6284,-3.6284,-3.6284,-3.6284,-3.6284,-3.6284,-3.6284,-3.6284,-3.6284,-3.3391,-3.3099,-3.2467,-3.1968,-3.1657,-3.1464,-3.1317,-3.1463,-3.1451,-3.1834,-3.2331,-3.187,-3.1871,-3.1979,-3.1203,-3.0744,-3.0767,-3.0744,-3.056,-3.0239,-3.0216,-3.0216,-3.0216,-3.0487,-3.0847,-3.1383,-3.2264,-3.33,-3.4314,-3.4756,-3.5086,-3.5467,-3.5575,-3.5817,-3.6166,-3.6246,-3.6405,-3.6484,-3.6563,-3.6615,-3.68,-3.6772,-3.6682,-3.6304,-3.5349,-3.4618,-3.4181,-3.3831,-3.3522,-3.3354,-3.3326,-3.3326,-3.3326,-3.3326,-3.3326,-3.3326,-3.3536,-3.3813,-3.4059,-3.4534,-3.4794,-3.4895,-3.5307,-3.5552,-3.5198,-3.5012,-3.477,-3.4406,-3.4048,-3.3752,-3.3446,-3.3361,-3.3361,-3.3519,-3.3539,-3.3591,-3.3745,-3.3797,-3.3848,-3.3949,-3.405,-3.4101,-3.4101,-3.4101,-3.3971,-3.3841,-3.3777,-3.3534,-3.2966,-3.2852,-3.2947,-3.3149,-3.3379,-3.4074,-3.4823,-3.5377,-3.5942,-3.6096,-3.6284,-3.6284,-3.6284,-3.6284,-3.6284,-3.6284,-3.6284,-3.6284,-3.6284,-3.6284,-3.6284,-3.6284,-3.6284,-3.6284,-3.6284,-3.6284,-3.6284,-3.2793,-3.2664,-3.2434,-3.1814,-3.1251,-3.1614,-3.1546,-3.1305,-3.1732,-3.2139,-3.2331,-3.1653,-3.1604,-3.1476,-3.0836,-3.0308,-3.0285,-3.0308,-3.0285,-3.0216,-3.0216,-3.0216,-3.0216,-3.0487,-3.0847,-3.1383,-3.2698,-3.3725,-3.4397,-3.4839,-3.5249,-3.5656,-3.5898,-3.6166,-3.6405,-3.6563,-3.6642,-3.6693,-3.685,-3.6978,-3.6978,-3.6978,-3.6978,-3.6866,-3.6304,-3.5461,-3.4365,-3.4225,-3.3888,-3.3382,-3.3326,-3.3326,-3.3326,-3.3326,-3.3326,-3.3326,-3.3326,-3.3536,-3.3882,-3.4128,-3.4601,-3.5014,-3.5529,-3.5766,-3.5765,-3.5873,-3.566,-3.4936,-3.4643,-3.4462,-3.3866,-3.3674,-3.3623,-3.3571,-3.3642,-3.3745,-3.3899,-3.4,-3.4101,-3.4101,-3.4101,-3.4101,-3.4068,-3.3971,-3.3744,-3.3226,-3.3064,-3.2805,-3.2158,-3.2043,-3.2136,-3.2367,-3.264,-3.3184,-3.397,-3.4755,-3.5411,-3.5966,-3.6138,-3.6284,-3.6284,-3.6284,-3.6284,-3.6284,-3.6284,-3.6284,-3.6284,-3.6284,-3.6284,-3.6284,-3.6284,-3.6284,-3.6284,-3.6284,-3.6284,-3.2207,-3.2168,-3.173,-3.1377,-3.1148,-3.1294,-3.1348,-3.124,-3.1812,-3.2218,-3.2431,-3.2067,-3.1786,-3.1567,-3.1042,-3.056,-3.0239,-3.0216,-3.0216,-3.0216,-3.0216,-3.0216,-3.0216,-3.0487,-3.1026,-3.1801,-3.2698,-3.3556,-3.4314,-3.4812,-3.5413,-3.5925,-3.6086,-3.6246,-3.6563,-3.6642,-3.6772,-3.6929,-3.6978,-3.6978,-3.6978,-3.6978,-3.6978,-3.695,-3.6782,-3.6136,-3.4955,-3.4478,-3.3944,-3.3354,-3.3326,-3.3326,-3.3326,-3.3326,-3.3326,-3.3326,-3.3536,-3.3744,-3.3951,-3.4332,-3.4735,-3.5198,-3.5718,-3.6134,-3.6322,-3.6338,-3.6248,-3.584,-3.5304,-3.4675,-3.443,-3.395,-3.3726,-3.3745,-3.3797,-3.3899,-3.4,-3.405,-3.4101,-3.4101,-3.4101,-3.3906,-3.355,-3.3453,-3.3161,-3.2481,-3.2319,-3.206,-3.1477,-3.1283,-3.1342,-3.1569,-3.1869,-3.2374,-3.3296,-3.4176,-3.4864,-3.5614,-3.6042,-3.6249,-3.6284,-3.6284,-3.6284,-3.6284,-3.6284,-3.6284,-3.6284,-3.6284,-3.6284,-3.6284,-3.6284,-3.6284,-3.6284,-3.6284,-3.6284,-3.1605,-3.1574,-3.1335,-3.119,-3.1232,-3.143,-3.1527,-3.1629,-3.2037,-3.2443,-3.2555,-3.2324,-3.202,-3.1731,-3.1226,-3.0721,-3.0262,-3.0216,-3.0216,-3.0216,-3.0216,-3.0216,-3.0216,-3.0578,-3.1026,-3.1737,-3.2525,-3.33,-3.3979,-3.4673,-3.5331,-3.5817,-3.6086,-3.6405,-3.6772,-3.6772,-3.685,-3.6978,-3.6978,-3.6978,-3.6978,-3.6978,-3.6978,-3.6978,-3.7056,-3.6513,-3.5384,-3.4905,-3.4312,-3.3635,-3.3466,-3.3536,-3.3536,-3.3536,-3.3536,-3.3605,-3.3744,-3.3882,-3.402,-3.4399,-3.4802,-3.5133,-3.5653,-3.6196,-3.6508,-3.662,-3.678,-3.6565,-3.5925,-3.523,-3.4929,-3.4266,-3.3931,-3.3949,-3.3899,-3.3949,-3.405,-3.4101,-3.4101,-3.4101,-3.4101,-3.3744,-3.3291,-3.3064,-3.2643,-3.1898,-3.1607,-3.1348,-3.0765,-3.0538,-3.0672,-3.0849,-3.1077,-3.1783,-3.2765,-3.3598,-3.4281,-3.5091,-3.587,-3.6111,-3.6284,-3.6284,-3.6284,-3.6284,-3.6284,-3.6284,-3.6284,-3.6284,-3.6284,-3.6284,-3.6284,-3.6284,-3.6284,-3.6284,-3.6284,-3.0941,-3.1105,-3.136,-3.1315,-3.1284,-3.1732,-3.1913,-3.2037,-3.2566,-3.2891,-3.2778,-3.2712,-3.2305,-3.18,-3.1364,-3.0836,-3.0331,-3.0216,-3.0216,-3.0216,-3.0216,-3.0306,-3.0397,-3.0781,-3.1139,-3.1673,-3.2376,-3.2982,-3.3641,-3.4397,-3.5059,-3.571,-3.6218,-3.6615,-3.6929,-3.6978,-3.6978,-3.6978,-3.6978,-3.6978,-3.7056,-3.7056,-3.7,-3.6972,-3.7155,-3.6722,-3.5617,-3.5394,-3.4925,-3.3845,-3.3772,-3.3813,-3.3882,-3.3911,-3.3882,-3.3813,-3.3882,-3.3951,-3.4128,-3.4332,-3.4601,-3.4935,-3.5459,-3.5879,-3.6383,-3.6904,-3.716,-3.6997,-3.6419,-3.5926,-3.5279,-3.4554,-3.4115,-3.405,-3.4,-3.4,-3.405,-3.4101,-3.4101,-3.4101,-3.4068,-3.3841,-3.3194,-3.3032,-3.2287,-3.1413,-3.0959,-3.0538,-3.0247,-3.0097,-3.0054,-3.026,-3.0615,-3.1183,-3.2158,-3.2876,-3.3596,-3.4203,-3.5111,-3.5697,-3.6146,-3.6249,-3.6284,-3.6284,-3.6284,-3.6284,-3.6284,-3.6284,-3.6284,-3.6284,-3.6284,-3.6284,-3.6284,-3.6284,-3.6284,-3.0867,-3.1063,-3.1251,-3.1245,-3.124,-3.1812,-3.2015,-3.2139,-3.2667,-3.2891,-3.2946,-3.3032,-3.2741,-3.2259,-3.1754,-3.1272,-3.079,-3.0376,-3.0216,-3.0216,-3.0397,-3.0578,-3.0781,-3.0894,-3.1407,-3.2025,-3.2463,-3.3154,-3.3894,-3.4397,-3.5141,-3.5871,-3.6218,-3.6615,-3.69,-3.6978,-3.6978,-3.6978,-3.6978,-3.7056,-3.7211,-3.7211,-3.7062,-3.6845,-3.7263,-3.6835,-3.5723,-3.5397,-3.4852,-3.3927,-3.3813,-3.3882,-3.3951,-3.3951,-3.3951,-3.3951,-3.402,-3.4059,-3.4128,-3.4428,-3.4698,-3.4868,-3.5264,-3.5748,-3.6226,-3.6754,-3.7144,-3.7208,-3.6662,-3.6066,-3.5764,-3.4845,-3.4198,-3.4101,-3.405,-3.405,-3.4101,-3.4101,-3.4101,-3.4101,-3.4101,-3.3777,-3.3226,-3.2676,-3.206,-3.1186,-3.0603,-3.0214,-3.0085,-2.9902,-2.9946,-3.0162,-3.0483,-3.0849,-3.1443,-3.2196,-3.2804,-3.3274,-3.4111,-3.5076,-3.5663,-3.618,-3.6249,-3.6284,-3.6284,-3.6284,-3.6284,-3.6249,-3.6284,-3.6111,-3.618,-3.6111,-3.6249,-3.6318,-3.6326,-3.0705,-3.1,-3.1141,-3.1322,-3.1629,-3.2037,-3.224,-3.2443,-3.2869,-3.3092,-3.3092,-3.3192,-3.2971,-3.2466,-3.1961,-3.1479,-3.0996,-3.0445,-3.0306,-3.0397,-3.0668,-3.0871,-3.096,-3.105,-3.1496,-3.2025,-3.2463,-3.2982,-3.3725,-3.4314,-3.5032,-3.579,-3.6218,-3.6615,-3.6978,-3.6978,-3.6978,-3.6978,-3.7056,-3.724,-3.7289,-3.711,-3.6931,-3.671,-3.69,-3.6458,-3.5612,-3.5321,-3.486,-3.4232,-3.4088,-3.4088,-3.4088,-3.4088,-3.4088,-3.4088,-3.4196,-3.4196,-3.4264,-3.4563,-3.4765,-3.4935,-3.5294,-3.5748,-3.6133,-3.66,-3.7055,-3.7054,-3.6414,-3.6023,-3.5635,-3.4781,-3.4198,-3.4101,-3.4101,-3.4101,-3.4101,-3.4101,-3.4101,-3.4101,-3.4068,-3.3841,-3.3194,-3.2708,-3.2158,-3.151,-3.0862,-3.0571,-3.0344,-3.0129,-2.9946,-3.0162,-3.0384,-3.0742,-3.1099,-3.1749,-3.2432,-3.2827,-3.339,-3.4357,-3.5082,-3.5766,-3.5973,-3.6008,-3.6146,-3.618,-3.6015,-3.5877,-3.5766,-3.5697,-3.5835,-3.6049,-3.6153,-3.6402,-3.6402,-3.062,-3.0827,-3.1116,-3.1527,-3.2015,-3.2342,-3.2667,-3.2891,-3.3192,-3.3292,-3.3292,-3.3292,-3.304,-3.2535,-3.203,-3.1525,-3.1088,-3.0583,-3.0534,-3.0668,-3.096,-3.1074,-3.1139,-3.1229,-3.1567,-3.2059,-3.2362,-3.2884,-3.3683,-3.425,-3.4895,-3.5629,-3.6138,-3.6615,-3.69,-3.6978,-3.6978,-3.7056,-3.7211,-3.7317,-3.7386,-3.712,-3.6928,-3.6601,-3.633,-3.5985,-3.5607,-3.5415,-3.5114,-3.4157,-3.4332,-3.4332,-3.4332,-3.4399,-3.4399,-3.4332,-3.4332,-3.4332,-3.4428,-3.4563,-3.4735,-3.4935,-3.5228,-3.5683,-3.6133,-3.6538,-3.6808,-3.6711,-3.6222,-3.5734,-3.5137,-3.4424,-3.4165,-3.4101,-3.4101,-3.4101,-3.4101,-3.4101,-3.4101,-3.4101,-3.4101,-3.3777,-3.342,-3.3064,-3.2838,-3.2222,-3.151,-3.1024,-3.0733,-3.0441,-3.0206,-3.0119,-3.0342,-3.0634,-3.0992,-3.1375,-3.1948,-3.2521,-3.2976,-3.3706,-3.4362,-3.4944,-3.5393,-3.56,-3.5469,-3.5365,-3.5261,-3.5157,-3.5117,-3.5261,-3.5405,-3.5751,-3.6139,-3.6416,-3.6561,-3.0724,-3.0827,-3.1505,-3.1913,-3.2117,-3.2566,-3.2869,-3.2869,-3.317,-3.3224,-3.3269,-3.3269,-3.3155,-3.2994,-3.2121,-3.1685,-3.1504,-3.0927,-3.0758,-3.1116,-3.1205,-3.1407,-3.1407,-3.1383,-3.1889,-3.2479,-3.2635,-3.3208,-3.4101,-3.4497,-3.4977,-3.5629,-3.6218,-3.6615,-3.69,-3.7056,-3.7056,-3.724,-3.7289,-3.7471,-3.7672,-3.7548,-3.7181,-3.6476,-3.6288,-3.5954,-3.5619,-3.5851,-3.5561,-3.4679,-3.4332,-3.4399,-3.4399,-3.4399,-3.4399,-3.4399,-3.4399,-3.4399,-3.4399,-3.4496,-3.4601,-3.4868,-3.5001,-3.5329,-3.5973,-3.6414,-3.6504,-3.6411,-3.6055,-3.5455,-3.4535,-3.423,-3.4101,-3.4101,-3.4101,-3.4101,-3.4101,-3.4101,-3.4101,-3.4101,-3.4101,-3.4036,-3.3841,-3.3356,-3.3097,-3.2773,-3.2255,-3.1607,-3.1218,-3.0927,-3.0595,-3.0402,-3.052,-3.0784,-3.0918,-3.1235,-3.1709,-3.2104,-3.2562,-3.2879,-3.3536,-3.406,-3.4476,-3.4614,-3.4653,-3.4584,-3.4579,-3.4549,-3.4549,-3.4723,-3.504,-3.5526,-3.5943,-3.6331,-3.6684,-3.0516,-3.0827,-3.1527,-3.1913,-3.2342,-3.2667,-3.2855,-3.275,-3.2803,-3.2764,-3.2604,-3.2558,-3.2558,-3.2512,-3.18,-3.1504,-3.1507,-3.1155,-3.1026,-3.1294,-3.1383,-3.156,-3.1673,-3.1584,-3.193,-3.2592,-3.2635,-3.3208,-3.3862,-3.4412,-3.4895,-3.571,-3.6298,-3.6772,-3.7056,-3.7211,-3.7289,-3.7471,-3.7548,-3.7701,-3.7853,-3.7688,-3.7242,-3.6635,-3.6548,-3.646,-3.5938,-3.6112,-3.5764,-3.5038,-3.4574,-3.4399,-3.4399,-3.4399,-3.4399,-3.4399,-3.4399,-3.4399,-3.4399,-3.4399,-3.4534,-3.4868,-3.4935,-3.5329,-3.5846,-3.632,-3.6288,-3.598,-3.5713,-3.5369,-3.4277,-3.4101,-3.4101,-3.4101,-3.4101,-3.4101,-3.4101,-3.4101,-3.4101,-3.4101,-3.4101,-3.4101,-3.3906,-3.3647,-3.3582,-3.342,-3.2967,-3.2352,-3.219,-3.1801,-3.1167,-3.0912,-3.0904,-3.0931,-3.0938,-3.1157,-3.1504,-3.1829,-3.2044,-3.2256,-3.2605,-3.3058,-3.348,-3.3827,-3.4279,-3.4036,-3.4036,-3.4004,-3.4109,-3.4457,-3.484,-3.5366,-3.5854,-3.6417,-3.6741,-3.0412,-3.0931,-3.1527,-3.1993,-3.2431,-3.2733,-3.2659,-3.242,-3.2374,-3.219,-3.1823,-3.1754,-3.1915,-3.1685,-3.1389,-3.1205,-3.1318,-3.1333,-3.1318,-3.1383,-3.156,-3.1673,-3.1673,-3.1673,-3.1761,-3.205,-3.24,-3.2884,-3.3649,-3.4173,-3.4895,-3.5629,-3.627,-3.6772,-3.7162,-3.7471,-3.7548,-3.7548,-3.7777,-3.7853,-3.7976,-3.7721,-3.7244,-3.678,-3.6925,-3.6867,-3.6344,-3.6228,-3.5996,-3.5456,-3.4748,-3.4457,-3.4399,-3.4399,-3.4399,-3.4399,-3.4399,-3.4399,-3.4399,-3.4399,-3.4534,-3.4868,-3.4935,-3.5264,-3.5846,-3.6197,-3.6102,-3.5666,-3.5322,-3.5037,-3.4212,-3.4101,-3.4101,-3.4101,-3.4101,-3.4101,-3.4151,-3.4151,-3.4151,-3.4101,-3.4101,-3.4101,-3.4101,-3.3971,-3.4036,-3.4003,-3.3518,-3.3129,-3.2935,-3.2579,-3.188,-3.1193,-3.1078,-3.0997,-3.0972,-3.1083,-3.1466,-3.1688,-3.1802,-3.2119,-3.2262,-3.2894,-3.3525,-3.3835,-3.4042,-3.3905,-3.3768,-3.3841,-3.4016,-3.4257,-3.4504,-3.4789,-3.556,-3.6466,-3.6794,-3.0599,-3.1219,-3.2037,-3.2297,-3.2256,-3.243,-3.2328,-3.1938,-3.1869,-3.1823,-3.1731,-3.1754,-3.1685,-3.1688,-3.1507,-3.1342,-3.1262,-3.1342,-3.1407,-3.1584,-3.1673,-3.1673,-3.1673,-3.1761,-3.1849,-3.2113,-3.2376,-3.3071,-3.3878,-3.4491,-3.4921,-3.5494,-3.6138,-3.6615,-3.6929,-3.7162,-3.7471,-3.7625,-3.7853,-3.7976,-3.8011,-3.7866,-3.7622,-3.7099,-3.7302,-3.707,-3.6548,-3.6315,-3.5996,-3.5386,-3.4748,-3.4486,-3.4399,-3.4399,-3.4399,-3.4399,-3.4399,-3.4399,-3.4399,-3.4399,-3.4534,-3.4802,-3.4935,-3.5264,-3.5846,-3.629,-3.6102,-3.5439,-3.4846,-3.4374,-3.4165,-3.4101,-3.4101,-3.4101,-3.4101,-3.4151,-3.425,-3.425,-3.425,-3.4151,-3.4151,-3.4101,-3.4151,-3.4151,-3.4151,-3.4151,-3.3874,-3.3485,-3.3259,-3.2935,-3.2449,-3.1765,-3.1153,-3.1097,-3.1012,-3.119,-3.1428,-3.1651,-3.194,-3.2505,-3.2789,-3.3248,-3.3705,-3.4265,-3.43,-3.4127,-3.4022,-3.3952,-3.4129,-3.4515,-3.441,-3.4341,-3.5326,-3.6344,-3.6738,-3.0363,-3.1055,-3.1396,-3.1547,-3.1734,-3.2002,-3.1846,-3.141,-3.1364,-3.1203,-3.1019,-3.0973,-3.0973,-3.0997,-3.102,-3.1058,-3.1276,-3.1496,-3.1584,-3.1649,-3.1673,-3.1673,-3.1761,-3.1761,-3.1937,-3.2113,-3.2487,-3.3082,-3.3766,-3.4444,-3.4895,-3.5467,-3.6058,-3.6563,-3.685,-3.724,-3.7548,-3.7701,-3.7901,-3.7907,-3.7767,-3.7738,-3.7535,-3.7447,-3.7593,-3.7593,-3.7273,-3.6519,-3.6199,-3.5735,-3.4922,-3.4516,-3.4399,-3.4399,-3.4399,-3.4399,-3.4399,-3.4399,-3.4399,-3.4399,-3.4563,-3.4868,-3.5001,-3.5329,-3.591,-3.6291,-3.6253,-3.564,-3.5112,-3.4489,-3.4165,-3.4133,-3.4151,-3.4201,-3.4201,-3.425,-3.4349,-3.4399,-3.4349,-3.43,-3.4349,-3.4349,-3.43,-3.43,-3.425,-3.4201,-3.4151,-3.3924,-3.3599,-3.3372,-3.3048,-3.2443,-3.1765,-3.1328,-3.1348,-3.1489,-3.1589,-3.1747,-3.232,-3.2852,-3.342,-3.3916,-3.4517,-3.5116,-3.4906,-3.4765,-3.4553,-3.4588,-3.4695,-3.4836,-3.5013,-3.5225,-3.5614,-3.6146,-3.6573,-2.996,-3.0855,-3.0754,-3.0919,-3.1213,-3.1384,-3.1157,-3.0767,-3.056,-3.0285,-2.9963,-3.0032,-3.0101,-3.0191,-3.0644,-3.1026,-3.1407,-3.1584,-3.1673,-3.1673,-3.1673,-3.1673,-3.1761,-3.1849,-3.2025,-3.2201,-3.2636,-3.2982,-3.3462,-3.4173,-3.4729,-3.5223,-3.5898,-3.6457,-3.6744,-3.7134,-3.7548,-3.7777,-3.7976,-3.7837,-3.7447,-3.7186,-3.7099,-3.7128,-3.7564,-3.7709,-3.7418,-3.6577,-3.6083,-3.5706,-3.5096,-3.4399,-3.4399,-3.4399,-3.4399,-3.4399,-3.4399,-3.4399,-3.4399,-3.4399,-3.4534,-3.4868,-3.5067,-3.5459,-3.5882,-3.6292,-3.6428,-3.6047,-3.5465,-3.4975,-3.4489,-3.4248,-3.4233,-3.425,-3.43,-3.4399,-3.4497,-3.4546,-3.4594,-3.4546,-3.4594,-3.4546,-3.4448,-3.4399,-3.4349,-3.4349,-3.43,-3.43,-3.4039,-3.4055,-3.3746,-3.3139,-3.2471,-3.1779,-3.1675,-3.1921,-3.1987,-3.2047,-3.2835,-3.3619,-3.4119,-3.4619,-3.5292,-3.5932,-3.6042,-3.5865,-3.5581,-3.5297,-3.5474,-3.5616,-3.5864,-3.6006,-3.6078,-3.6291,-3.6683,-3.007,-3.0666,-3.0868,-3.1027,-3.0949,-3.0583,-3.0124,-2.9665,-2.9274,-2.8953,-2.9045,-2.9366,-2.9662,-2.9973,-3.0767,-3.1335,-3.1536,-3.1577,-3.1601,-3.1649,-3.1673,-3.1761,-3.1761,-3.1937,-3.2113,-3.24,-3.281,-3.3068,-3.3326,-3.3894,-3.4397,-3.4895,-3.5467,-3.5978,-3.6298,-3.6822,-3.7056,-3.7211,-3.7644,-3.763,-3.7273,-3.6722,-3.646,-3.646,-3.6577,-3.6693,-3.6693,-3.6025,-3.559,-3.5444,-3.4835,-3.4428,-3.4399,-3.4399,-3.4399,-3.4399,-3.4399,-3.4399,-3.4399,-3.4399,-3.4534,-3.4868,-3.5067,-3.5459,-3.5946,-3.635,-3.6569,-3.6773,-3.5916,-3.5234,-3.4961,-3.4608,-3.438,-3.4349,-3.4448,-3.4546,-3.4643,-3.4691,-3.4691,-3.4739,-3.4739,-3.4643,-3.4546,-3.4497,-3.4448,-3.4448,-3.4448,-3.4448,-3.4448,-3.4399,-3.4137,-3.3463,-3.3156,-3.2486,-3.2168,-3.2386,-3.2523,-3.2446,-3.3343,-3.4276,-3.4781,-3.532,-3.6145,-3.668,-3.6789,-3.6898,-3.6612,-3.647,-3.6364,-3.6328,-3.6363,-3.6328,-3.6257,-3.6542,-3.6898,-2.9633,-3.0326,-3.0049,-3.0057,-3.0101,-2.9573,-2.9251,-2.9022,-2.8815,-2.8786,-2.8896,-2.9103,-2.9393,-2.9832,-3.0257,-3.0668,-3.1168,-3.1216,-3.1408,-3.1601,-3.1737,-3.1761,-3.1937,-3.2138,-3.24,-3.255,-3.2921,-3.3068,-3.3326,-3.381,-3.4397,-3.4564,-3.5141,-3.5629,-3.5898,-3.6508,-3.6822,-3.6936,-3.6892,-3.6793,-3.6563,-3.6141,-3.5764,-3.5793,-3.6083,-3.6199,-3.6083,-3.5706,-3.5456,-3.5241,-3.4748,-3.4428,-3.4399,-3.4399,-3.4399,-3.4399,-3.4399,-3.4399,-3.4399,-3.4399,-3.4601,-3.4868,-3.5133,-3.5524,-3.6165,-3.6627,-3.6753,-3.6692,-3.6571,-3.6108,-3.5519,-3.5165,-3.4873,-3.4661,-3.4546,-3.4643,-3.4739,-3.4787,-3.4835,-3.4916,-3.4916,-3.4787,-3.4691,-3.4643,-3.4594,-3.4594,-3.4546,-3.4497,-3.4546,-3.4546,-3.42,-3.3656,-3.3479,-3.3262,-3.2971,-3.2917,-3.316,-3.3257,-3.4054,-3.4886,-3.5401,-3.6054,-3.6743,-3.7143,-3.7254,-3.7325,-3.7468,-3.7326,-3.7006,-3.6899,-3.6827,-3.672,-3.6684,-3.697,-3.7291,-2.8984,-2.969,-2.915,-2.9098,-2.9251,-2.8746,-2.854,-2.8517,-2.8418,-2.848,-2.8719,-2.8873,-2.9268,-2.964,-2.982,-3.0228,-3.0663,-3.0687,-3.0999,-3.1312,-3.1568,-3.1704,-3.1977,-3.2313,-3.255,-3.2698,-3.2982,-3.3068,-3.3326,-3.3725,-3.4147,-3.4314,-3.4895,-3.5304,-3.571,-3.6298,-3.6772,-3.7127,-3.6453,-3.6201,-3.6157,-3.5532,-3.5212,-3.527,-3.5532,-3.5822,-3.5764,-3.5386,-3.5096,-3.498,-3.469,-3.4399,-3.4399,-3.4399,-3.4399,-3.4399,-3.4399,-3.4399,-3.4399,-3.4399,-3.4534,-3.4802,-3.5264,-3.5718,-3.6414,-3.6937,-3.7291,-3.71,-3.7109,-3.6669,-3.6046,-3.5742,-3.5202,-3.4906,-3.4691,-3.4787,-3.4835,-3.4835,-3.4868,-3.4916,-3.4916,-3.4916,-3.4835,-3.4787,-3.4739,-3.4739,-3.4691,-3.4594,-3.4643,-3.4691,-3.4508,-3.4046,-3.4041,-3.3927,-3.3673,-3.3624,-3.3761,-3.4074,-3.4837,-3.5428,-3.5953,-3.6439,-3.6991,-3.7319,-3.7503,-3.754,-3.7504,-3.7577,-3.7577,-3.7362,-3.7184,-3.7113,-3.7148,-3.7434,-3.7577,-2.8229,-2.8536,-2.8468,-2.8596,-2.8723,-2.8241,-2.8035,-2.7989,-2.7694,-2.772,-2.7918,-2.8527,-2.9166,-2.9534,-2.9726,-2.9965,-3.0134,-3.0134,-3.047,-3.0845,-3.1186,-3.149,-3.1858,-3.229,-3.2649,-3.2735,-3.2957,-3.3068,-3.3154,-3.3386,-3.3725,-3.4147,-3.4564,-3.4977,-3.5467,-3.6138,-3.6766,-3.69,-3.631,-3.5928,-3.5767,-3.5241,-3.4603,-3.4545,-3.4574,-3.4545,-3.4574,-3.4516,-3.4574,-3.4574,-3.437,-3.4399,-3.437,-3.4399,-3.4399,-3.4399,-3.4399,-3.4399,-3.4399,-3.4399,-3.4467,-3.4802,-3.5264,-3.5879,-3.6476,-3.7058,-3.7472,-3.7751,-3.7672,-3.7232,-3.6607,-3.6138,-3.5679,-3.5036,-3.4787,-3.4835,-3.4883,-3.4883,-3.4916,-3.4916,-3.4916,-3.4916,-3.4916,-3.4835,-3.4835,-3.4787,-3.4835,-3.4739,-3.4787,-3.4835,-3.4835,-3.4717,-3.475,-3.4625,-3.4342,-3.4387,-3.4587,-3.4848,-3.5377,-3.5904,-3.6359,-3.6891,-3.7167,-3.7354,-3.7466,-3.754,-3.7577,-3.7577,-3.7577,-3.7577,-3.7542,-3.7399,-3.7363,-3.7542,-3.7613,-2.7572,-2.7638,-2.7638,-2.7905,-2.8218,-2.7736,-2.7506,-2.7483,-2.7545,-2.7672,-2.7938,-2.8474,-2.8745,-2.9018,-2.9066,-2.9316,-2.9556,-2.9605,-3.0025,-3.0423,-3.0701,-3.1027,-3.1441,-3.2017,-3.2287,-3.2496,-3.2867,-3.3093,-3.3154,-3.3189,-3.3471,-3.3894,-3.4236,-3.4729,-3.5331,-3.5869,-3.6415,-3.6476,-3.6122,-3.5769,-3.5491,-3.498,-3.4399,-3.4399,-3.4399,-3.4399,-3.4399,-3.4022,-3.4109,-3.4196,-3.3993,-3.408,-3.4283,-3.4341,-3.437,-3.4399,-3.4399,-3.4399,-3.4399,-3.4399,-3.4534,-3.4868,-3.5365,-3.5943,-3.6445,-3.6937,-3.7476,-3.7758,-3.8051,-3.7698,-3.6894,-3.662,-3.6241,-3.5331,-3.4868,-3.4916,-3.4916,-3.4916,-3.4916,-3.4916,-3.4916,-3.4916,-3.4916,-3.4916,-3.4916,-3.4916,-3.4916,-3.4916,-3.4916,-3.4916,-3.4916,-3.4963,-3.493,-3.5105,-3.4856,-3.5048,-3.5419,-3.562,-3.5814,-3.6172,-3.6568,-3.6856,-3.7129,-3.7317,-3.7466,-3.754,-3.7577,-3.7577,-3.7577,-3.7577,-3.7613,-3.7577,-3.7649,-3.7685,-3.7721,-2.7137,-2.7149,-2.7149,-2.7415,-2.769,-2.7369,-2.7231,-2.7231,-2.7534,-2.7857,-2.8259,-2.8419,-2.8522,-2.8522,-2.8546,-2.8715,-2.9003,-2.9181,-2.9576,-3.008,-3.0514,-3.0827,-3.1397,-3.1938,-3.2471,-3.2591,-3.2792,-3.3093,-3.3068,-3.2893,-3.3047,-3.3392,-3.3731,-3.4065,-3.482,-3.5407,-3.5941,-3.5967,-3.5622,-3.5454,-3.5328,-3.4777,-3.4428,-3.4399,-3.4399,-3.4225,-3.4051,-3.3732,-3.3587,-3.3558,-3.3499,-3.3558,-3.3877,-3.4138,-3.4225,-3.4341,-3.4399,-3.4399,-3.4399,-3.4496,-3.4601,-3.5001,-3.5524,-3.5943,-3.6383,-3.6937,-3.7594,-3.8026,-3.8228,-3.7916,-3.6964,-3.6721,-3.6092,-3.5148,-3.4949,-3.4916,-3.4916,-3.4916,-3.4916,-3.4916,-3.4916,-3.4916,-3.4916,-3.4916,-3.4916,-3.4916,-3.4916,-3.4916,-3.4916,-3.4916,-3.493,-3.5011,-3.5058,-3.5198,-3.5337,-3.5441,-3.5543,-3.5722,-3.5916,-3.6207,-3.6568,-3.6856,-3.7129,-3.7279,-3.7429,-3.754,-3.7613,-3.7613,-3.7613,-3.7577,-3.7613,-3.7685,-3.7721,-3.7757,-3.7828,-2.6693,-2.6903,-2.7103,-2.7208,-2.7254,-2.7254,-2.7231,-2.7231,-2.7638,-2.8122,-2.8419,-2.8522,-2.8522,-2.8522,-2.8522,-2.8595,-2.8619,-2.8778,-2.9156,-2.9699,-3.0491,-3.1199,-3.1838,-3.2297,-3.2607,-3.2993,-3.3068,-3.3068,-3.2993,-3.2676,-3.2642,-3.2777,-3.2927,-3.3251,-3.4206,-3.4481,-3.4938,-3.539,-3.5024,-3.5123,-3.5085,-3.469,-3.4457,-3.4399,-3.4283,-3.4022,-3.3732,-3.3267,-3.3035,-3.289,-3.2687,-3.2861,-3.3383,-3.347,-3.3732,-3.4254,-3.4312,-3.4341,-3.4399,-3.4563,-3.4898,-3.5228,-3.5653,-3.61,-3.6631,-3.727,-3.7801,-3.8173,-3.8079,-3.7682,-3.7015,-3.6473,-3.5744,-3.5214,-3.4982,-3.4916,-3.4916,-3.4916,-3.4916,-3.4916,-3.4916,-3.4916,-3.4916,-3.4916,-3.4916,-3.4916,-3.4916,-3.4916,-3.4916,-3.4963,-3.4977,-3.5058,-3.5152,-3.5291,-3.5429,-3.5532,-3.5667,-3.5844,-3.6062,-3.636,-3.6609,-3.693,-3.7126,-3.7314,-3.7429,-3.7577,-3.7613,-3.7613,-3.7649,-3.7721,-3.7721,-3.7757,-3.7828,-3.7899,-3.7899,-2.5564,-2.5905,-2.6142,-2.6404,-2.6749,-2.7093,-2.7231,-2.7313,-2.7719,-2.8122,-2.8419,-2.8522,-2.8522,-2.8522,-2.8522,-2.8522,-2.8498,-2.8736,-2.8986,-2.9371,-3.0258,-3.0642,-3.1248,-3.1981,-3.2491,-3.2616,-3.2767,-3.2767,-3.2466,-3.2248,-3.2269,-3.2316,-3.2463,-3.301,-3.39,-3.4431,-3.4864,-3.4909,-3.4882,-3.4934,-3.4777,-3.4516,-3.4399,-3.437,-3.4022,-3.3674,-3.3296,-3.2745,-3.2338,-3.228,-3.2106,-3.2193,-3.2687,-3.2832,-3.3122,-3.3645,-3.379,-3.4089,-3.4455,-3.4831,-3.5162,-3.5489,-3.5782,-3.6226,-3.6723,-3.7329,-3.7892,-3.8157,-3.7872,-3.7452,-3.7067,-3.6439,-3.5744,-3.5148,-3.4916,-3.4916,-3.4916,-3.4916,-3.4916,-3.4916,-3.4916,-3.4916,-3.4916,-3.4883,-3.4883,-3.493,-3.493,-3.493,-3.493,-3.4977,-3.5024,-3.5152,-3.5245,-3.5429,-3.5566,-3.5711,-3.5888,-3.6071,-3.6318,-3.6527,-3.6771,-3.7048,-3.7203,-3.7354,-3.7503,-3.7613,-3.7649,-3.7721,-3.7792,-3.7863,-3.7828,-3.7863,-3.7933,-3.7969,-3.7969,-2.4993,-2.5305,-2.5561,-2.5899,-2.6267,-2.6749,-2.7047,-2.7348,-2.7719,-2.8122,-2.8339,-2.8443,-2.8522,-2.8522,-2.8522,-2.8522,-2.8498,-2.8816,-2.8973,-2.9229,-3.0015,-3.0448,-3.0904,-3.1461,-3.1863,-3.2064,-3.2215,-3.224,-3.2021,-3.1984,-3.1877,-3.1915,-3.2216,-3.2745,-3.341,-3.3827,-3.4108,-3.4229,-3.4438,-3.4629,-3.4477,-3.437,-3.4283,-3.4022,-3.3674,-3.3267,-3.2687,-3.2106,-3.1584,-3.17,-3.1613,-3.1526,-3.1961,-3.2251,-3.2513,-3.2984,-3.3375,-3.3732,-3.4309,-3.4682,-3.5066,-3.5752,-3.6006,-3.6445,-3.6876,-3.7567,-3.7751,-3.789,-3.7665,-3.7242,-3.6754,-3.6108,-3.5512,-3.4916,-3.4916,-3.4916,-3.4916,-3.4916,-3.4916,-3.4916,-3.4916,-3.4916,-3.4916,-3.4883,-3.4883,-3.493,-3.4977,-3.4977,-3.4977,-3.5105,-3.5198,-3.5291,-3.5429,-3.5577,-3.5756,-3.5932,-3.6148,-3.6367,-3.6568,-3.6771,-3.693,-3.7164,-3.7317,-3.7466,-3.7577,-3.7685,-3.7757,-3.7864,-3.7898,-3.7969,-3.8003,-3.8038,-3.807,-3.8036,-3.8038,-2.4848,-2.5105,-2.5515,-2.5647,-2.5784,-2.6221,-2.6863,-2.7418,-2.7683,-2.79,-2.806,-2.8251,-2.833,-2.8426,-2.845,-2.8474,-2.8578,-2.8895,-2.9052,-2.9382,-3.0119,-3.0428,-3.0783,-3.1185,-3.1486,-3.1461,-3.1619,-3.1852,-3.1605,-3.1439,-3.1268,-3.1563,-3.2031,-3.2545,-3.2935,-3.3294,-3.355,-3.3873,-3.4192,-3.434,-3.4361,-3.4283,-3.4022,-3.3674,-3.3238,-3.2629,-3.2048,-3.1496,-3.1148,-3.0945,-3.0684,-3.1003,-3.1264,-3.1467,-3.1965,-3.2441,-3.2834,-3.3461,-3.4006,-3.4316,-3.5055,-3.5795,-3.6292,-3.6814,-3.7266,-3.7584,-3.7697,-3.7481,-3.7183,-3.6668,-3.6092,-3.5611,-3.5048,-3.4916,-3.4916,-3.4916,-3.4916,-3.4916,-3.4916,-3.4916,-3.4916,-3.4916,-3.4963,-3.493,-3.4977,-3.5105,-3.5152,-3.5198,-3.5245,-3.5245,-3.5337,-3.5441,-3.5577,-3.5756,-3.5932,-3.6191,-3.6367,-3.6615,-3.6851,-3.7009,-3.7164,-3.7281,-3.7466,-3.7613,-3.7685,-3.7757,-3.7863,-3.7933,-3.7967,-3.8038,-3.8072,-3.8072,-3.807,-3.807,-3.8106,-2.3416,-2.3869,-2.4265,-2.4671,-2.5187,-2.5693,-2.617,-2.6418,-2.6675,-2.683,-2.7061,-2.7316,-2.7681,-2.7921,-2.7945,-2.8186,-2.8536,-2.8816,-2.9052,-2.951,-3.0044,-3.0428,-3.0758,-3.1035,-3.1286,-3.1417,-3.1473,-3.1352,-3.1156,-3.0906,-3.1386,-3.1917,-3.2182,-3.2588,-3.2945,-3.3326,-3.3577,-3.3785,-3.4099,-3.4235,-3.4225,-3.3993,-3.3645,-3.3296,-3.2571,-3.1961,-3.1555,-3.1061,-3.0771,-3.0655,-3.0628,-3.0802,-3.0951,-3.1068,-3.1331,-3.2159,-3.2632,-3.3199,-3.3565,-3.4173,-3.494,-3.5523,-3.598,-3.6622,-3.7101,-3.7348,-3.7358,-3.7069,-3.6678,-3.6191,-3.5794,-3.5346,-3.4982,-3.4916,-3.4916,-3.4916,-3.4916,-3.4916,-3.4916,-3.4963,-3.4963,-3.5011,-3.5011,-3.5058,-3.5105,-3.5198,-3.5291,-3.5383,-3.5429,-3.5475,-3.552,-3.5656,-3.58,-3.6019,-3.6241,-3.6485,-3.6655,-3.6895,-3.7126,-3.7279,-3.7429,-3.754,-3.7649,-3.7757,-3.7828,-3.7898,-3.7967,-3.8002,-3.8036,-3.8036,-3.8106,-3.807,-3.807,-3.8104,-3.8174,-2.2703,-2.3224,-2.3666,-2.4214,-2.4659,-2.4981,-2.5171,-2.5391,-2.5966,-2.6382,-2.6534,-2.6808,-2.7224,-2.7681,-2.7777,-2.7993,-2.8498,-2.8895,-2.9131,-2.9308,-2.9895,-3.0127,-3.0432,-3.0608,-3.0633,-3.0838,-3.0998,-3.0902,-3.0933,-3.1386,-3.1817,-3.2109,-3.24,-3.2803,-3.3255,-3.3577,-3.3682,-3.379,-3.3994,-3.4129,-3.3935,-3.3587,-3.3296,-3.2658,-3.1787,-3.1496,-3.1177,-3.0713,-3.0686,-3.0628,-3.0628,-3.0628,-3.0836,-3.0925,-3.1073,-3.1812,-3.2139,-3.2586,-3.3066,-3.3728,-3.4393,-3.5027,-3.5443,-3.6038,-3.6476,-3.6773,-3.6691,-3.647,-3.6138,-3.5778,-3.5463,-3.5181,-3.5048,-3.4916,-3.4916,-3.4916,-3.4916,-3.4916,-3.4963,-3.5011,-3.5011,-3.5105,-3.5071,-3.5152,-3.5211,-3.535,-3.5487,-3.5656,-3.5701,-3.5701,-3.579,-3.5922,-3.6105,-3.6318,-3.6568,-3.6771,-3.6974,-3.7206,-3.7356,-3.754,-3.7685,-3.7721,-3.7792,-3.7934,-3.8038,-3.8002,-3.8002,-3.8036,-3.8106,-3.8106,-3.814,-3.8104,-3.8104,-3.8138,-3.8241,-2.2424,-2.2848,-2.3526,-2.4009,-2.42,-2.4269,-2.4269,-2.4365,-2.5592,-2.6141,-2.6193,-2.6542,-2.6959,-2.7296,-2.7488,-2.7849,-2.8337,-2.8821,-2.9131,-2.9131,-2.9621,-2.993,-2.9905,-2.9829,-3.0159,-2.9982,-3.0164,-3.0676,-3.1029,-3.1596,-3.2109,-3.2327,-3.2763,-3.3101,-3.3281,-3.3386,-3.3398,-3.3235,-3.3541,-3.379,-3.3441,-3.318,-3.2774,-3.1816,-3.1409,-3.1177,-3.0771,-3.0628,-3.0628,-3.0628,-3.0628,-3.0687,-3.0866,-3.1161,-3.1337,-3.1483,-3.1867,-3.2193,-3.2611,-3.3115,-3.3706,-3.427,-3.483,-3.5158,-3.5422,-3.6013,-3.6052,-3.6018,-3.5745,-3.5497,-3.5181,-3.5081,-3.4949,-3.4916,-3.4916,-3.4916,-3.4916,-3.4963,-3.5011,-3.5058,-3.5105,-3.5198,-3.5291,-3.5337,-3.5441,-3.5577,-3.5711,-3.5844,-3.5975,-3.601,-3.6096,-3.6191,-3.636,-3.6609,-3.6816,-3.7052,-3.7317,-3.754,-3.7649,-3.7721,-3.7793,-3.7864,-3.7934,-3.8003,-3.8002,-3.8036,-3.8036,-3.8036,-3.8072,-3.8072,-3.8106,-3.8174,-3.8171,-3.8274,-3.8372,-2.0886,-2.1575,-2.2876,-2.3667,-2.4177,-2.42,-2.42,-2.4296,-2.4868,-2.5201,-2.525,-2.5564,-2.6045,-2.6598,-2.7007,-2.7416,-2.7951,-2.8651,-2.9028,-2.9184,-2.9521,-2.9779,-2.9779,-2.9779,-2.9831,-3.0088,-3.0318,-3.0543,-3.1188,-3.1829,-3.239,-3.2664,-3.2807,-3.2732,-3.3043,-3.3054,-3.2774,-3.2645,-3.2796,-3.2948,-3.2687,-3.2222,-3.17,-3.1351,-3.1148,-3.0858,-3.0628,-3.0628,-3.0628,-3.0628,-3.0628,-3.0776,-3.1014,-3.1424,-3.1655,-3.1712,-3.1826,-3.2148,-3.2348,-3.2609,-3.298,-3.3068,-3.3423,-3.3762,-3.4266,-3.5072,-3.544,-3.5481,-3.5399,-3.5166,-3.4982,-3.4949,-3.4916,-3.4916,-3.4916,-3.4916,-3.4916,-3.5011,-3.5058,-3.5152,-3.5198,-3.5291,-3.5429,-3.5566,-3.5667,-3.58,-3.5975,-3.6148,-3.6318,-3.6402,-3.6444,-3.6568,-3.6615,-3.6816,-3.7091,-3.7317,-3.7503,-3.7613,-3.7721,-3.7828,-3.7899,-3.7934,-3.7933,-3.7933,-3.7967,-3.8002,-3.8002,-3.7969,-3.8003,-3.8038,-3.8138,-3.8238,-3.8441,-3.8574,-3.8601,-2.0267,-2.1041,-2.244,-2.3367,-2.3784,-2.4085,-2.42,-2.4273,-2.4634,-2.4801,-2.4873,-2.5159,-2.5588,-2.6045,-2.643,-2.6863,-2.7468,-2.8208,-2.8509,-2.8864,-2.9294,-2.9624,-2.9779,-2.9781,-2.9758,-2.9834,-2.9925,-3.0283,-3.1047,-3.1412,-3.182,-3.2249,-3.2157,-3.235,-3.2717,-3.2465,-3.2182,-3.2106,-3.2077,-3.1961,-3.1845,-3.1526,-3.1264,-3.109,-3.08,-3.0628,-3.0628,-3.0628,-3.0628,-3.0628,-3.0628,-3.0836,-3.1073,-3.1424,-3.1655,-3.1826,-3.1996,-3.2191,-3.2296,-3.2362,-3.2444,-3.2458,-3.2406,-3.2901,-3.3,-3.3714,-3.4448,-3.4559,-3.5084,-3.4949,-3.4949,-3.4916,-3.4916,-3.4916,-3.4916,-3.4963,-3.5011,-3.5058,-3.5198,-3.5337,-3.5429,-3.552,-3.5656,-3.5834,-3.5932,-3.6062,-3.6233,-3.6444,-3.6609,-3.6771,-3.6851,-3.6856,-3.6935,-3.7091,-3.7354,-3.7503,-3.7613,-3.7757,-3.7828,-3.7864,-3.7899,-3.7898,-3.7933,-3.7967,-3.7967,-3.8002,-3.7967,-3.8003,-3.8002,-3.8104,-3.8238,-3.8332,-3.8606,-3.8982,-3.9265,-1.9961,-2.0815,-2.2099,-2.2883,-2.3276,-2.383,-2.4131,-2.4273,-2.4634,-2.4801,-2.4849,-2.5111,-2.5612,-2.5853,-2.6117,-2.6454,-2.6938,-2.7597,-2.802,-2.8319,-2.8845,-2.9074,-2.9327,-2.9656,-2.9503,-2.9468,-2.964,-2.998,-3.047,-3.0856,-3.1265,-3.1471,-3.1716,-3.1919,-3.2112,-3.2095,-3.1903,-3.1526,-3.1322,-3.1119,-3.1061,-3.109,-3.0974,-3.0742,-3.0628,-3.0628,-3.0628,-3.0628,-3.0628,-3.0628,-3.0717,-3.0895,-3.1132,-3.1424,-3.1682,-3.191,-3.2191,-3.2413,-3.2509,-3.2394,-3.2289,-3.2165,-3.1983,-3.1978,-3.2118,-3.2564,-3.3327,-3.4013,-3.4504,-3.4816,-3.4816,-3.4916,-3.4916,-3.4963,-3.4963,-3.5011,-3.5058,-3.5152,-3.5291,-3.5475,-3.5611,-3.5711,-3.5888,-3.6096,-3.6233,-3.636,-3.6527,-3.6731,-3.693,-3.7009,-3.7087,-3.7164,-3.7206,-3.7429,-3.7577,-3.7613,-3.7649,-3.7685,-3.7793,-3.7864,-3.7899,-3.7863,-3.7898,-3.7967,-3.8002,-3.7967,-3.807,-3.814,-3.8138,-3.8168,-3.8364,-3.8596,-3.9129,-3.9547,-4.0148,-1.8923,-2.0514,-2.1215,-2.2114,-2.3069,-2.3486,-2.381,-2.4227,-2.4634,-2.4801,-2.4849,-2.5111,-2.5396,-2.5492,-2.5949,-2.6214,-2.631,-2.7039,-2.7383,-2.7729,-2.8101,-2.8276,-2.8499,-2.8946,-2.8984,-2.9113,-2.9478,-2.9923,-3.0011,-3.0553,-3.1121,-3.15,-3.1148,-3.1323,-3.1488,-3.1409,-3.1061,-3.0887,-3.0858,-3.0742,-3.0713,-3.0713,-3.0684,-3.0657,-3.0628,-3.0628,-3.0628,-3.0628,-3.0628,-3.0628,-3.0717,-3.0895,-3.119,-3.1452,-3.1796,-3.2135,-3.2413,-3.2742,-3.2792,-3.253,-3.2387,-3.2192,-3.1978,-3.1564,-3.17,-3.1879,-3.2694,-3.3644,-3.4121,-3.4485,-3.4618,-3.4849,-3.4963,-3.5011,-3.5011,-3.5152,-3.5245,-3.5337,-3.5475,-3.5656,-3.58,-3.5932,-3.6105,-3.6318,-3.6568,-3.6655,-3.6816,-3.7048,-3.7126,-3.7241,-3.7317,-3.7392,-3.7466,-3.754,-3.7577,-3.7577,-3.7613,-3.7685,-3.7721,-3.7792,-3.7792,-3.7792,-3.7827,-3.8002,-3.7967,-3.7933,-3.8036,-3.8271,-3.8336,-3.8433,-3.8621,-3.8891,-3.946,-4.0111,-4.0644]}]]